     2              OBSERVATION DATA    GPS                 RINEX VERSION / TYPE
ASHTORIN MIT 09 - JUN - 97 09:47                            PGM / RUN BY / DATE
                                                            COMMENT
--> THIS IS THE START OF A NEW SITE <---                    COMMENT
--> THIS IS THE START OF A NEW SITE <---                    COMMENT
Original Marker Name: TRN1                                  COMMENT
Campaign Name: China Lake May 1997                          COMMENT
4-Character Station Name: TRN1                              COMMENT
6-Character Antenna Code: ASHGD3                            COMMENT
Vertical Measurement Point: TGP                             COMMENT
Vertical Offset to Rinex Ref. Point: 0.0640                 COMMENT
Radial Measurement Point: OOH                               COMMENT
Radial Offset to Rinex Ref. Point: 0.1737                   COMMENT
Antenna Height from Field Measurement: 1.0385 m             COMMENT
Additional Antenna Identification Info.:                    COMMENT
The Whopper (700718AB)                                      COMMENT
Original XYZ: -2410768.7400 -4582720.7900 3712578.1800      COMMENT
New XYZ position is based on association with SCEC monument COMMENT
E1F4F8H2+0011. Position of that monument is believed to be  COMMENT
valid to within 1 m horizontally; vertical accuracy         COMMENT
should be no worse than 3-times this value.                 COMMENT
                                                            COMMENT
Revised Rinex header created by UCSD GPS archive for        COMMENT
GSAC on 01-Aug-2000 (2000:214) 15:20:49 GMT                 COMMENT
For assistance contact dagnew@ucsd.edu                      COMMENT
or anderson@python.ucsd.edu                                 COMMENT
                                                            COMMENT
TRONA RM1 1991 GSG                                          MARKER NAME
trn1                                                        MARKER NUMBER
HEM US DEFENSE MAPPING AGENCY                               OBSERVER / AGENCY
456 ASHTECH Z-XII3 1G001C7                                  REC # / TYPE / VERS
443 ASHTECH GEODETIC III                                    ANT # / TYPE
 -2377361.0515 -4600627.6911  3711643.0888                  APPROX POSITION XYZ
        0.9599        0.0000        0.0000                  ANTENNA: DELTA H/E/N
     1     1     0                                          WAVELENGTH FACT L1/2
     7    L1    L2    C1    P1    P2    D1    D2            # / TYPES OF OBSERV
    30                                                      INTERVAL
  1997     5    19    15    21   30.000000                  TIME OF FIRST OBS
  1997     5    19    21    31   30.000000                  TIME OF LAST OBS
                                                            END OF HEADER
 97  5 19 15 21 30.0000000  0  6 26  2 27 19  7 15                  -0.000480640
    -66877.29319    -27016.02357  21955114.709           0.0005   21955121.0595
      2422.366        1887.558
    -38568.71319    -24534.31558  20094488.204           0.0005   20094496.0705
      1192.887         929.522
     -2749.06219     -1637.47258  19336991.329           0.0005   19336999.0695
        99.228          77.321
     48595.26019     29056.93257  22109077.716           0.0005   22109084.5945
     -1840.005       -1433.770
    -77691.36019    -49784.15158  20078684.584           0.0005   20078693.0365
      3144.671        2450.393
    -52798.96719    -27953.41953  22658589.904           0.0005          0.0005
      1763.768        1374.365
 97  5 19 15 22  0.0000000  0  6 26  2 27 19  7 15                  -0.000483197
   -139340.054 9    -83480.51247  21941324.624    21941325.3915   21941331.9574
      2407.852        1876.248
    -74313.758 9    -52387.59148  20087684.563    20087686.9505   20087693.9014
      1189.282         926.713
     -5554.150 9     -3823.26548  19336458.954    19336458.9855   19336465.2264
        87.012          67.802
    103863.948 9     72123.41447  22119594.302    22119594.5535   22119601.8474
     -1845.142       -1437.773
   -171874.736 9   -123173.77448  20060764.449    20060763.5645   20060770.2764
      3133.421        2441.627
   -105502.266 9    -69020.89657  22648560.603           0.0005   22648565.9155
      1749.072        1362.913
 97  5 19 15 22 30.0000000  3  2
TRN1                                                        MARKER NAME
--> THIS IS THE START OF A NEW SITE <---                    COMMENT
 97  5 19 15 22 30.0000000  0  6 26  2 27 19  7 15                  -0.000212328
   -211330.612 9   -139577.03347  22827003.192    22827003.5074   22827010.0924
      2391.636        1863.612
   -109914.014 9    -80128.05348  20980288.904    20980289.8454   20980296.7604
      1183.914         922.530
     -7954.553 9     -5693.72148  20235378.835    20235379.6324   20235385.8234
        72.416          56.428
    159309.805 9    115327.94447  23029520.979    23029523.0964   23029530.3214
     -1852.087       -1443.185
   -265675.335 9   -196265.13448  20942290.729    20942291.3074   20942297.9944
      3120.160        2431.294
   -157726.802 9   -109715.33746  23538005.892    23537997.9975   23538005.2814
      1732.455        1349.965
 97  5 19 15 22 59.9990000  0  6 26  2 27 19  7 15                  -0.000232525
   -282807.779 9   -195273.51457  22813402.494    22813401.8905   22813408.4875
      2372.984        1849.078
   -145326.762 9   -107722.40158  20973553.122    20973551.0125   20973557.9125
      1176.460         916.722
     -9874.653 9     -7189.90458  20235013.985    20235014.3345   20235020.4975
        55.060          42.904
    214995.195 9    158719.12257  23040122.970    23040119.7305   23040126.9525
     -1861.137       -1450.237
   -359057.495 9   -269030.43258  20924518.192    20924521.2675   20924527.9695
      3104.841        2419.357
   -209425.935 9   -150000.35956  23528155.132    23528160.2095   23528167.3385
      1713.546        1335.231
 97  5 19 15 23 29.9990000  0  6 26  2 27 19  7 15                  -0.000252663
   -353709.730 9   -250521.78047  22799909.801    22799909.7124   22799916.2624
      2353.624        1833.993
   -180508.355 9   -135136.63048  20966857.105    20966856.1894   20966863.0504
      1168.713         910.685
    -11273.304 9     -8279.76648  20234747.939    20234748.2334   20234754.3684
        37.833          29.480
    270979.650 9    202343.35747  23050774.426    23050773.2434   23050780.4504
     -1871.366       -1458.207
   -451967.380 9   -341427.72048  20906839.329    20906841.0824   20906847.7794
      3088.760        2406.826
   -260545.198 9   -189833.55246  23518430.833    23518432.5724   23518439.7254
      1694.071        1320.055
 97  5 19 15 23 59.9990000  0  6 26  2 27 19  7 15                  -0.000272771
   -424061.686 9   -305341.48447  22786521.974    22786522.2764   22786528.6594
      2335.862        1820.152
   -215490.073 9   -162395.11048  20960199.958    20960199.4004   20960206.2374
      1162.576         905.903
    -12175.389 9     -8982.69548  20234576.224    20234576.6124   20234582.7164
        21.380          16.660
    327239.290 9    246182.00847  23061480.006    23061479.0734   23061486.3434
     -1880.149       -1465.051
   -544421.723 9   -413470.04348  20889246.435    20889247.5534   20889254.2344
      3074.016        2395.337
   -311106.220 9   -229231.74846  23508809.872    23508811.2124   23508818.2114
      1675.807        1305.824
 97  5 19 15 24 29.9990000  0  6 26  2 27 19  7 15                  -0.000292830
   -493837.718 9   -359712.40747  22773244.071    22773244.4284   22773250.7034
      2316.529        1805.088
   -250244.793 9   -189476.70948  20953586.231    20953585.8414   20953592.6494
      1155.034         900.026
    -12529.201 9     -9258.39748  20234508.935    20234509.3054   20234515.3764
         2.788           2.172
    383823.627 9    290273.66647  23072247.103    23072246.7204   23072254.0584
     -1891.572       -1473.952
   -636387.173 9   -485131.41148  20871746.283    20871747.1004   20871753.7834
      3057.727        2382.644
   -361069.015 9   -268163.79746  23499303.012    23499303.6844   23499310.5874
      1655.604        1290.081
 97  5 19 15 24 59.9990000  0  6 26  2 27 19  7 15                  -0.000312841
   -563048.840 9   -413643.14247  22760073.535    22760074.0044   22760080.2584
      2297.940        1790.603
   -284783.085 9   -216389.66348  20947013.703    20947013.4844   20947020.2574
      1147.898         894.466
    -12332.489 9     -9105.12148  20234546.376    20234546.7414   20234552.8064
       -15.277         -11.904
    440740.731 9    334624.63747  23083077.856    23083077.6784   23083085.0274
     -1902.423       -1482.408
   -727879.254 9   -556423.91948  20854336.081    20854336.7444   20854343.4374
      3042.128        2370.489
   -410433.720 9   -306629.82346  23489909.396    23489910.0434   23489916.7744
      1635.768        1274.624
 97  5 19 15 25 29.9990000  0  6 26  2 27 19  7 15                  -0.000332799
   -631691.179 9   -467130.67247  22747011.232    22747011.8454   22747018.1004
      2278.474        1775.434
   -319088.798 9   -243121.38648  20940485.469    20940485.3554   20940492.1314
      1139.146         887.646
    -11591.011 9     -8527.34348  20234687.499    20234687.8784   20234693.9194
       -33.970         -26.470
    497992.160 9    379236.09947  23093972.563    23093972.3034   23093979.6544
     -1913.864       -1491.322
   -818890.789 9   -627341.97848  20837017.229    20837017.8064   20837024.4954
      3025.472        2357.511
   -459190.752 9   -344622.32046  23480631.510    23480631.9454   23480638.5804
      1614.909        1258.371
 97  5 19 15 25 59.9990000  0  6 26  2 27 19  7 15                  -0.000352720
   -699760.272 9   -520171.52547  22734058.213    22734058.8294   22734065.1104
      2258.687        1760.016
   -353124.589 9   -269642.78048  20934008.655    20934008.6084   20934015.3804
      1129.273         879.953
    -10293.985 9     -7516.68348  20234934.335    20234934.7144   20234940.7424
       -53.158         -41.422
    555566.255 9    424099.00247  23104928.407    23104928.3244   23104935.7234
     -1925.065       -1500.051
   -909409.776 9   -697876.23248  20819792.114    20819792.6514   20819799.3244
      3008.349        2344.168
   -507327.040 9   -382131.12247  23471471.595    23471471.9754   23471478.5894
      1593.431        1241.635
 97  5 19 15 26 29.9990000  0  6 26  2 27 19  7 15                  -0.000372601
   -767245.622 9   -572757.50547  22721216.260    22721216.8594   22721223.1834
      2239.871        1745.354
   -386877.021 9   -295943.37648  20927585.780    20927585.7804   20927592.5534
      1120.640         873.226
     -8438.733 9     -6071.03848  20235287.363    20235287.7574   20235293.8194
       -70.789         -55.160
    613454.062 9    469206.36147  23115944.023    23115944.0604   23115951.4684
     -1934.429       -1507.347
   -999416.307 9   -768011.17148  20802664.465    20802664.9934   20802671.6804
      2991.751        2331.235
   -554829.551 9   -419146.06247  23462432.310    23462432.6004   23462439.2224
      1573.032        1225.739
 97  5 19 15 26 59.9990000  0  6 26  2 27 19  7 15                  -0.000392440
   -834142.616 9   -624885.02947  22708486.120    22708486.8434   22708493.1754
      2219.557        1729.525
   -420352.520 9   -322028.17748  20921215.615    20921215.6454   20921222.4034
      1110.724         865.499
     -6041.611 9     -4203.15348  20235743.428    20235743.9164   20235750.0174
       -89.259         -69.552
    671631.264 9    514539.20247  23127014.370    23127014.8504   23127022.2484
     -1944.432       -1515.142
  -1088900.809 9   -837739.33148  20785636.225    20785636.6614   20785643.3274
      2973.463        2316.984
   -601699.593 9   -455668.18446  23453513.536    23453513.5764   23453520.1984
      1551.282        1208.791
 97  5 19 15 27 29.9990000  0  6 26  2 27 19  7 15                  -0.000412210
   -900404.232 9   -676517.45347  22695876.914    22695877.7304   22695884.1034
      2198.549        1713.155
   -453504.130 9   -347860.60448  20914907.096    20914907.1374   20914913.8974
      1100.026         857.163
     -3076.038 9     -1892.32848  20236307.869    20236308.2344   20236314.3894
      -107.984         -84.143
    730127.914 9    560120.97747  23138145.290    23138146.4404   23138153.8194
     -1954.760       -1523.190
  -1177809.624 9   -907018.90948  20768717.462    20768717.8824   20768724.5454
      2954.351        2302.092
   -647894.517 9   -491664.22746  23444722.787    23444722.9654   23444729.7114
      1528.981        1191.414
 97  5 19 15 27 59.9990000  0  6 26  2 27 19  7 15                  -0.000431896
   -966014.884 9   -727642.62747  22683391.705    22683392.4664   22683398.8664
      2176.403        1695.898
   -486326.012 9   -373436.09348  20908661.289    20908661.3654   20908668.1154
      1089.380         848.868
       476.865 9       876.16248  20236983.811    20236984.3264   20236990.5474
      -128.070         -99.795
    788958.370 9    605962.85547  23149340.070    23149341.5614   23149348.9374
     -1966.435       -1532.287
  -1266121.364 9   -975833.22848  20751912.311    20751912.6764   20751919.3554
      2933.976        2286.215
   -693399.473 9   -527122.62347  23436063.772    23436063.6494   23436070.5684
      1505.692        1173.266
 97  5 19 15 28 29.9990000  0  6 26  2 27 19  7 15                  -0.000451483
  -1030973.605 9   -778259.81247  22671030.496    22671031.2974   22671037.6614
      2154.736        1679.015
   -518864.009 9   -398790.37248  20902469.557    20902469.6354   20902476.3714
      1080.441         841.902
      4610.995 9      4097.55648  20237770.568    20237771.0674   20237777.3074
      -147.034        -114.572
    848131.842 9    652072.02247  23160601.282    23160601.9384   23160609.2974
     -1977.952       -1541.261
  -1353833.133 9  -1044180.03948  20735221.283    20735221.6854   20735228.3604
      2914.180        2270.790
   -738226.845 9   -562053.04347  23427533.281    23427533.2494   23427540.2994
      1483.427        1155.917
 97  5 19 15 28 59.9990000  0  6 26  2 27 19  7 15                  -0.000470979
  -1095299.566 9   -828383.93647  22658789.779    22658790.5414   22658796.8264
      2133.419        1662.404
   -551151.860 9   -423949.73948  20896325.441    20896325.5234   20896332.2324
      1071.653         835.054
      9308.012 9      7757.56048  20238664.414    20238664.9194   20238671.1644
      -166.465        -129.713
    907647.618 9    698447.92447  23171926.597    23171927.4314   23171934.7854
     -1989.982       -1550.635
  -1440974.167 9  -1112082.12148  20718638.840    20718639.2894   20718645.9824
      2894.837        2255.717
   -782401.385 9   -596474.75047  23419126.978    23419127.1044   23419134.2404
      1461.267        1138.650
 97  5 19 15 29 29.9990000  0  6 26  2 27 19  7 15                  -0.000490392
  -1159003.824 9   -878023.61947  22646667.267    22646668.0084   22646674.2494
      2112.678        1646.243
   -583188.175 9   -448913.09848  20890229.142    20890229.2814   20890235.9594
      1063.246         828.503
     14579.663 9     11865.34348  20239667.643    20239668.1144   20239674.3694
      -186.020        -144.951
    967511.649 9    745095.18146  23183318.114    23183319.2304   23183326.5724
     -2001.777       -1559.826
  -1527549.992 9  -1179543.78248  20702164.031    20702164.4414   20702171.1604
      2876.060        2241.086
   -825928.118 9   -630391.68647  23410844.082    23410844.2084   23410851.3714
      1439.637        1121.795
 97  5 19 15 29 59.9990000  0  6 26  2 27 19  7 15                  -0.000509720
  -1222076.961 9   -927171.51047  22634664.702    22634665.5054   22634671.7864
      2091.851        1630.014
   -614968.020 9   -473676.61148  20884181.612    20884181.7984   20884188.4714
      1055.032         822.103
     20454.927 9     16443.46048  20240785.746    20240786.1764   20240792.4134
      -206.182        -160.661
   1027740.520 9    792026.74046  23194778.861    23194780.4404   23194787.8394
     -2013.848       -1569.232
  -1613558.000 9  -1246562.98848  20685797.244    20685797.6634   20685804.4094
      2857.487        2226.613
   -868799.017 9   -663797.59147  23402687.027    23402686.2104   23402693.3084
      1418.017        1104.948
 97  5 19 15 30 29.9990000  0  6 26  2 27 19  7 15                  -0.000528976
  -1284531.386 9   -975837.29547  22622779.962    22622780.8004   22622787.1364
      2071.943        1614.501
   -646495.178 9   -498243.23048  20878182.281    20878182.4034   20878189.0614
      1046.742         815.643
     26935.596 9     21493.31848  20242018.979    20242019.4424   20242025.6634
      -225.759        -175.916
   1088326.993 9    839236.94946  23206308.678    23206309.7214   23206317.0854
     -2024.986       -1577.911
  -1699018.382 9  -1313155.47848  20669534.655    20669535.1154   20669541.8604
      2840.079        2213.049
   -911022.214 9   -696698.78447  23394652.388    23394651.4214   23394658.5064
      1396.957        1088.538
 97  5 19 15 30 59.9990000  0  6 26  2 27 19  7 15                  -0.000548192
  -1346392.496 9  -1024040.74547  22611008.256    22611009.0224   22611015.4164
      2052.327        1599.216
   -677762.788 9   -522607.59648  20872232.232    20872232.3944   20872239.0334
      1037.843         808.709
     34016.005 9     27010.51348  20243366.405    20243366.8364   20243373.0314
      -245.929        -191.633
   1149243.169 9    886704.06146  23217900.966    23217901.7304   23217909.0944
     -2035.769       -1586.313
  -1783958.562 9  -1379342.60748  20653371.034    20653371.5214   20653378.2644
      2822.717        2199.520
   -952610.200 9   -729104.99147  23386738.892    23386737.4594   23386744.6114
      1375.741        1072.006
 97  5 19 15 31 29.9990000  0  6 26  2 27 19  7 15                  -0.000567377
  -1407660.498 9  -1071782.04447  22599349.395    22599350.1384   22599356.5224
      2032.822        1584.017
   -708757.008 9   -546758.93548  20866334.288    20866334.4174   20866341.0194
      1029.267         802.026
     41696.327 9     32995.17448  20244827.921    20244828.3964   20244834.5874
      -265.320        -206.743
   1210480.707 9    934421.57846  23229554.441    23229554.8714   23229562.2464
     -2046.009       -1594.293
  -1868373.227 9  -1445120.24748  20637307.398    20637307.9504   20637314.7334
      2805.697        2186.257
   -993557.438 9   -761011.93947  23378945.319    23378945.4354   23378952.6634
      1354.705        1055.614
 97  5 19 15 31 59.9990000  0  6 26  2 27 19  7 15                  -0.000586527
  -1468347.156 9  -1119070.34847  22587801.064    22587801.8414   22587808.2664
      2012.891        1568.486
   -739509.579 9   -570721.97348  20860482.159    20860482.4234   20860489.0214
      1020.919         795.521
     49943.056 9     39421.18848  20246397.374    20246397.7414   20246403.9124
      -284.436        -221.638
   1272014.190 9    982369.71246  23241263.779    23241264.3324   23241271.7364
     -2056.257       -1602.278
  -1952288.304 9  -1510508.60048  20621338.941    20621339.4734   20621346.2234
      2788.630        2172.958
  -1033877.179 9   -792429.91547  23371272.965    23371272.8234   23371280.0944
      1333.158        1038.824
 97  5 19 15 32 29.9990000  0  6 26  2 27 19  7 15                  -0.000605633
  -1528448.754 9  -1165902.75347  22576364.060    22576364.8314   22576371.2664
      1994.149        1553.882
   -770024.747 9   -594500.02248  20854675.374    20854675.6214   20854682.1994
      1013.717         789.909
     58735.871 9     46272.72848  20248070.455    20248070.9844   20248077.1574
      -301.241        -234.733
   1333840.113 9   1030545.71346  23253028.517    23253029.4794   23253036.8844
     -2065.127       -1609.190
  -2035702.352 9  -1575506.53848  20605465.851    20605466.3244   20605473.0834
      2772.541        2160.421
  -1073561.638 9   -823352.86946  23363720.376    23363721.1304   23363728.3524
      1312.758        1022.928
 97  5 19 15 32 59.9990000  0  6 26  2 27 19  7 15                  -0.000624698
  -1587984.024 9  -1212293.87147  22565034.919    22565035.6614   22565042.0654
      1974.795        1538.801
   -800320.213 9   -618106.87448  20848910.346    20848910.6054   20848917.1784
      1005.979         783.880
     68026.910 9     53512.49748  20249838.625    20249839.0414   20249845.2154
      -318.085        -247.858
   1395934.651 9   1078931.03846  23264844.773    23264845.7844   23264853.1454
     -2074.487       -1616.483
  -2118624.959 9  -1640121.53848  20589686.153    20589686.6694   20589693.4474
      2755.723        2147.317
  -1112631.116 9   -853796.61646  23356286.007    23356286.4874   23356293.6964
      1291.872        1006.654
 97  5 19 15 33 29.9990000  0  6 26  2 27 19  7 15                  -0.000643705
  -1646926.016 9  -1258222.69747  22553818.613    22553819.3934   22553825.8504
      1955.012        1523.386
   -830383.982 9   -641533.18948  20843189.489    20843189.7014   20843196.2774
       998.641         778.162
     77816.679 9     61140.88348  20251701.538    20251701.9924   20251708.1524
      -334.422        -260.589
   1458305.971 9   1127532.02546  23276713.850    23276714.6444   23276722.0174
     -2083.394       -1623.424
  -2201041.536 9  -1704342.22648  20574002.731    20574003.3364   20574010.0954
      2738.986        2134.275
  -1151071.190 9   -883749.92246  23348971.407    23348971.6104   23348978.7674
      1271.090         990.460
 97  5 19 15 33 59.9990000  0  6 26  2 27 19  7 15                  -0.000662647
  -1705263.004 9  -1303680.09047  22542717.427    22542718.2824   22542724.7164
      1934.109        1507.098
   -860217.860 9   -664780.36048  20837512.280    20837512.5264   20837519.1144
       990.107         771.512
     88111.902 9     69163.12548  20253660.688    20253661.1584   20253667.3114
      -352.179        -274.425
   1520958.710 9   1176352.30646  23288636.400    23288637.1194   23288644.4174
     -2093.564       -1631.349
  -2282940.456 9  -1768159.55248  20558417.879    20558418.4574   20558425.2154
      2720.801        2120.105
  -1188879.181 9   -913210.69346  23341777.418    23341777.0074   23341784.1294
      1249.403         973.561
 97  5 19 15 34 29.9990000  0  6 26  2 27 19  7 15                  -0.000681540
  -1762997.870 9  -1348668.29847  22531730.785    22531731.6444   22531738.0584
      1914.986        1492.197
   -889806.174 9   -687836.19148  20831881.852    20831882.0834   20831888.6364
       982.466         765.558
     98923.923 9     77588.06548  20255718.270    20255718.6284   20255724.7974
      -368.587        -287.211
   1583896.629 9   1225394.80146  23300612.533    23300613.8284   23300621.1984
     -2102.207       -1638.083
  -2364304.845 9  -1831560.35448  20542934.746    20542935.3354   20542942.0974
      2703.541        2106.655
  -1226063.699 9   -942185.64047  23334701.163    23334701.0334   23334708.1564
      1229.628         958.152
 97  5 19 15 34 59.9990000  0  6 26  2 27 19  7 15                  -0.000700393
  -1820137.638 9  -1393192.78247  22520857.378    22520858.2734   22520864.7584
      1894.775        1476.448
   -919147.837 9   -710699.81448  20826298.217    20826298.5274   20826305.1144
       974.130         759.062
    110258.235 9     86419.99248  20257875.236    20257875.4854   20257881.6664
      -386.803        -301.405
   1647105.126 9   1274648.14046  23312641.141    23312642.0614   23312649.4644
     -2111.381       -1645.232
  -2445134.413 9  -1894544.41348  20527553.477    20527553.9794   20527560.7174
      2685.497        2092.595
  -1262639.616 9   -970686.35346  23327741.215    23327740.8704   23327748.0154
      1209.091         942.149
 97  5 19 15 35 29.9990000  0  6 26  2 27 19  7 15                  -0.000719201
  -1876660.703 9  -1437236.72948  22510101.321    22510102.2994   22510108.8374
      1874.084        1460.325
   -948227.919 9   -733359.62048  20820764.545    20820764.8194   20820771.3784
       965.156         752.070
    122162.026 9     95695.66048  20260140.448    20260140.7054   20260146.8984
      -406.352        -316.638
   1710608.173 9   1324131.00146  23324726.165    23324726.3694   23324733.7634
     -2121.685       -1653.261
  -2525402.786 9  -1957091.18348  20512278.831    20512279.4394   20512286.1544
      2666.281        2077.622
  -1298580.752 9   -998692.43047  23320901.486    23320901.5364   23320908.6484
      1187.450         925.286
 97  5 19 15 35 59.9990000  0  6 26  2 27 19  7 15                  -0.000737970
  -1932586.269 9  -1480815.08747  22499459.114    22499460.0234   22499466.5944
      1853.948        1444.635
   -977053.824 9   -755821.35848  20815279.106    20815279.4494   20815286.0224
       956.320         745.184
    134636.691 9    105416.17648  20262514.179    20262514.5554   20262520.7604
      -425.724        -331.733
   1774407.686 9   1373844.87246  23336867.498    23336867.0914   23336874.4304
     -2131.893       -1661.215
  -2605115.816 9  -2019205.21048  20497109.873    20497110.5534   20497117.2834
      2647.637        2063.094
  -1333888.905 9  -1026205.27247  23314182.279    23314182.6364   23314189.7414
      1165.964         908.543
 97  5 19 15 36 29.9990000  0  6 26  2 27 19  7 15                  -0.000756680
  -1987883.033 9  -1523903.47247  22488936.536    22488937.4434   22488943.9644
      1833.031        1428.336
  -1005593.473 9   -778060.04748  20809848.247    20809848.5654   20809855.1164
       947.096         737.997
    147718.467 9    115609.75848  20265003.319    20265003.9674   20265010.1684
      -445.712        -347.308
   1838535.992 9   1423814.94246  23349070.626    23349070.4064   23349077.6474
     -2142.656       -1669.602
  -2684252.779 9  -2080870.35948  20482050.523    20482051.3094   20482058.0344
      2628.944        2048.528
  -1368522.140 9  -1053192.20546  23307592.628    23307592.1484   23307599.2844
      1143.476         891.020
 97  5 19 15 36 59.9990000  0  6 26  2 27 19  7 15                  -0.000775351
  -2042588.249 9  -1566530.91447  22478526.517    22478527.4284   22478533.8614
      1813.583        1413.182
  -1033909.760 9   -800124.68148  20804459.771    20804460.1574   20804466.6904
       940.261         732.671
    161358.905 9    126238.65948  20267599.189    20267599.6874   20267605.8774
      -464.078        -361.619
   1902943.326 9   1474002.43746  23361326.214    23361326.7724   23361333.9884
     -2151.583       -1676.558
  -2762881.487 9  -2142139.46448  20467087.996    20467088.7634   20467095.4684
      2612.541        2035.746
  -1402517.360 9  -1079681.99246  23301123.382    23301123.1604   23301130.2064
      1122.432         874.622
 97  5 19 15 37 29.9990000  0  6 26  2 27 19  7 15                  -0.000793980
  -2096718.255 9  -1608710.13348  22468225.997    22468226.8394   22468233.2944
      1794.539        1398.342
  -1062035.676 9   -822040.98048  20799107.677    20799107.9944   20799114.4994
       934.237         727.977
    175532.489 9    137282.99948  20270296.074    20270296.8334   20270303.0534
      -481.375        -375.097
   1967609.609 9   1524391.71146  23373632.401    23373632.4284   23373639.7514
     -2159.911       -1683.048
  -2841038.614 9  -2203041.10548  20452215.298    20452215.9634   20452222.6674
      2597.455        2023.991
  -1435890.895 9  -1105687.34746  23294772.909    23294772.4084   23294779.4544
      1101.950         858.662
 97  5 19 15 37 59.9990000  0  6 26  2 27 19  7 15                  -0.000812555
  -2150247.353 9  -1650421.12048  22458039.747    22458040.5854   22458047.0914
      1773.683        1382.091
  -1089950.917 9   -843793.10848  20793795.509    20793795.8944   20793802.3964
       926.571         722.003
    190252.626 9    148753.22548  20273097.471    20273097.9784   20273104.2114
      -500.362        -389.892
   2032548.286 9   1574993.23546  23385990.096    23385989.8564   23385997.2124
     -2169.527       -1690.541
  -2918716.409 9  -2263569.24048  20437433.793    20437434.3834   20437441.0824
      2580.638        2010.887
  -1468621.339 9  -1131191.58646  23288544.558    23288544.0054   23288551.0704
      1079.841         841.435
 97  5 19 15 38 29.9990000  0  6 26  2 27 19  7 15                  -0.000831054
  -2203131.538 9  -1691629.57048  22447976.097    22447977.0364   22447983.5784
      1752.092        1365.266
  -1117615.570 9   -865349.98448  20788531.173    20788531.5104   20788537.9844
       917.799         715.168
    205565.344 9    160685.20548  20276011.383    20276011.9044   20276018.1524
      -520.206        -405.355
   2097793.336 9   1625833.49146  23398405.795    23398405.5594   23398412.9364
     -2179.808       -1698.552
  -2995870.138 9  -2323689.01248  20422751.910    20422752.5274   20422759.2264
      2563.119        1997.236
  -1500671.965 9  -1156166.09346  23282444.752    23282444.9864   23282452.0184
      1057.190         823.784
 97  5 19 15 38 59.9990000  0  6 26  2 27 19  7 15                  -0.000849490
  -2255383.343 9  -1732345.25848  22438032.921    22438033.8844   22438040.3874
      1730.831        1348.699
  -1145018.525 9   -886702.93248  20783316.603    20783316.9134   20783323.4034
       908.225         707.708
    221453.154 9    173065.30748  20279034.700    20279035.2814   20279041.5254
      -539.615        -420.479
   2163331.025 9   1676901.77946  23410876.785    23410877.0724   23410884.4024
     -2189.989       -1706.485
  -3072505.075 9  -2383404.52648  20408168.675    20408169.4064   20408176.1124
      2545.109        1983.202
  -1532057.933 9  -1180622.69146  23276472.025    23276472.4394   23276479.4424
      1034.546         806.140
 97  5 19 15 39 29.9990000  0  6 26  2 27 19  7 15                  -0.000867866
  -2306999.979 9  -1772566.01148  22428210.691    22428211.6344   22428218.0714
      1709.470        1332.054
  -1172124.209 9   -907824.24748  20778158.569    20778158.9054   20778165.3404
       897.825         699.604
    237922.022 9    185898.17748  20282168.729    20282169.2314   20282175.4664
      -559.313        -435.828
   2229178.303 9   1728211.30846  23423406.302    23423407.5054   23423414.7914
     -2200.761       -1714.879
  -3148596.968 9  -2442696.89948  20393688.823    20393689.6044   20393696.3004
      2526.487        1968.691
  -1562763.875 9  -1204549.40447  23270627.624    23270629.3194   23270636.3084
      1011.539         788.212
 97  5 19 15 39 59.9990000  0  6 26  2 27 19  7 15                  -0.000886182
  -2357982.647 9  -1812292.76748  22418509.084    22418509.9714   22418516.4074
      1688.542        1315.747
  -1198914.630 9   -928699.90248  20773060.475    20773060.8184   20773067.2744
       887.531         691.582
    254988.799 9    199196.95348  20285416.372    20285416.9414   20285423.1694
      -579.060        -451.216
   2295348.279 9   1779772.28846  23435998.235    23435999.2484   23436006.5674
     -2211.177       -1722.995
  -3224105.857 9  -2501534.97648  20379320.019    20379320.7404   20379327.4334
      2506.740        1953.304
  -1592780.215 9  -1227938.75646  23264915.713    23264917.3944   23264924.4184
       988.959         770.617
 97  5 19 15 40 29.9990000  0  6 26  2 27 19  7 15                  -0.000904445
  -2408325.722 9  -1851521.14448  22408929.017    22408929.9734   22408936.4224
      1667.584        1299.416
  -1225392.505 9   -949332.01248  20768021.917    20768022.2754   20768028.7194
       877.654         683.886
    272637.366 9    212949.07348  20288774.948    20288775.3544   20288781.6284
      -597.550        -465.623
   2361827.131 9   1831573.94846  23448648.147    23448649.7814   23448657.1464
     -2220.864       -1730.543
  -3299024.148 9  -2559912.85048  20365063.502    20365064.2944   20365070.9524
      2487.689        1938.459
  -1622120.414 9  -1250801.26046  23259332.140    23259334.1504   23259341.2154
       966.953         753.470
 97  5 19 15 40 59.9990000  0  6 26  2 27 19  7 15                  -0.000922637
  -2458015.774 9  -1890240.66448  22399473.301    22399474.3174   22399480.7884
      1645.330        1282.075
  -1251563.891 9   -969725.30148  20763041.665    20763042.0464   20763048.5054
       867.570         676.029
    290854.215 9    227144.01348  20292241.255    20292241.8944   20292248.1694
      -616.782        -480.609
   2428613.056 9   1883614.87846  23461356.821    23461358.7874   23461366.1174
     -2231.199       -1738.597
  -3373339.280 9  -2617820.72648  20350921.808    20350922.5654   20350929.2614
      2466.864        1922.232
  -1650776.566 9  -1273130.74047  23253878.987    23253881.0554   23253888.1264
       943.674         735.330
 97  5 19 15 41 29.9990000  0  6 26  2 27 19  7 15                  -0.000940747
  -2507040.407 9  -1928441.68048  22390144.165    22390145.1884   22390151.6534
      1622.665        1264.414
  -1277456.046 9   -989901.00648  20758114.507    20758114.9174   20758121.3824
       858.365         668.856
    309650.543 9    241790.49248  20295818.060    20295818.7474   20295825.0374
      -636.669        -496.106
   2495698.103 9   1935888.89746  23474123.143    23474124.6954   23474132.0914
     -2241.364       -1746.517
  -3447035.562 9  -2675246.38548  20336897.732    20336898.6004   20336905.2664
      2445.851        1905.858
  -1678744.510 9  -1294923.94646  23248557.442    23248558.9474   23248566.0294
       920.532         717.298
 97  5 19 15 41 59.9990000  0  6 26  2 27 19  7 15                  -0.000958771
  -2555383.612 9  -1966111.71448  22380944.671    22380945.7724   22380952.2384
      1600.614        1247.232
  -1303080.573 9  -1009868.17448  20753238.343    20753238.7654   20753245.2294
       850.423         662.667
    329038.597 9    256898.05248  20299507.621    20299508.2034   20299514.4704
      -655.257        -510.590
   2563080.052 9   1988394.26246  23486945.264    23486947.0914   23486954.4784
     -2250.238       -1753.432
  -3520104.294 9  -2732183.04748  20322993.264    20322994.0674   20323000.7424
      2426.182        1890.531
  -1706021.654 9  -1316178.87047  23243366.449    23243368.3044   23243375.4144
       898.385         700.040
 97  5 19 15 42 29.9990000  0  6 26  2 27 19  7 15                  -0.000976698
  -2603051.117 9  -2003255.22848  22371873.969    22371875.0074   22371881.4614
      1577.861        1229.502
  -1328451.908 9  -1029638.04648  20748410.299    20748410.7944   20748417.2164
       841.464         655.686
    348988.742 9    272443.60548  20303303.773    20303304.6034   20303310.8734
      -674.503        -525.587
   2630745.998 9   2041120.91846  23499821.900    23499823.4854   23499830.9154
     -2260.573       -1761.485
  -3592591.649 9  -2788666.68448  20309199.484    20309200.2204   20309206.8834
      2406.705        1875.355
  -1732616.242 9  -1336901.93447  23238306.846    23238307.5684   23238314.7024
       874.960         681.787
 97  5 19 15 42 59.9990000  0  6 26  2 27 19  7 15                  -0.000994530
  -2650052.171 9  -2039879.43048  22362929.990    22362931.0544   22362937.4664
      1555.611        1212.164
  -1353570.975 9  -1049211.34248  20743630.355    20743630.8104   20743637.2364
       832.990         649.083
    369515.856 9    288438.74848  20307210.084    20307210.7924   20307217.0694
      -694.055        -540.822
   2698721.056 9   2094088.44446  23512757.560    23512758.6984   23512766.1874
     -2271.084       -1769.676
  -3664505.288 9  -2844703.27148  20295514.749    20295515.5234   20295522.1854
      2387.616        1860.480
  -1758514.965 9  -1357082.77447  23233378.268    23233379.1844   23233386.3334
       851.585         663.573
 97  5 19 15 43 29.9990000  0  6 26  2 27 19  7 15                  -0.001012260
  -2696383.455 9  -2075981.73848  22354113.446    22354114.4984   22354120.9264
      1533.307        1194.785
  -1378419.201 9  -1068573.59548  20738901.896    20738902.3764   20738908.7864
       823.582         641.752
    390640.846 9    304899.76248  20311230.060    20311230.7614   20311237.0544
      -714.093        -556.436
   2767025.894 9   2147312.94746  23525755.959    23525756.6994   23525764.2484
     -2282.545       -1778.606
  -3735848.958 9  -2900295.72648  20281938.505    20281939.2634   20281945.9294
      2368.677        1845.722
  -1783708.393 9  -1376714.02247  23228585.363    23228585.0614   23228592.2074
       827.981         645.180
 97  5 19 15 43 59.9980000  0  6 26  2 27 19  7 15                  -0.001029882
  -2742038.542 9  -2111557.12948  22345425.569    22345426.6454   22345433.0704
      1511.088        1177.471
  -1402970.763 9  -1087704.67748  20734229.891    20734230.3784   20734236.7664
       813.740         634.083
    412373.628 9    321834.38748  20315365.539    20315366.4054   20315372.6984
      -734.255        -572.147
   2835687.300 9   2200815.29246  23538823.377    23538822.5094   23538830.0844
     -2294.404       -1787.847
  -3806609.174 9  -2955433.54148  20268473.355    20268474.0624   20268480.7304
      2349.429        1830.724
  -1808180.678 9  -1395783.34446  23223928.753    23223928.1674   23223935.3054
       804.065         626.544
 97  5 19 15 44 29.9980000  0  6 26  2 27 19  7 15                  -0.001047422
  -2787050.985 9  -2146631.76048  22336859.998    22336861.0944   22336867.5124
      1489.198        1160.414
  -1427234.448 9  -1106611.44048  20729612.677    20729613.1594   20729619.5114
       803.320         625.964
    434704.425 9    339234.99348  20319614.988    20319615.8364   20319622.1174
      -755.161        -588.437
   2904695.327 9   2254587.71846  23551955.736    23551954.3574   23551961.9514
     -2306.634       -1797.377
  -3876804.391 9  -3010131.09748  20255115.590    20255116.3484   20255123.0484
      2329.346        1815.075
  -1831948.562 9  -1414303.79046  23219405.773    23219405.2944   23219412.4324
       779.860         607.683
 97  5 19 15 44 59.9980000  0  6 26  2 27 19  7 15                  -0.001064884
  -2831415.069 9  -2181201.18348  22328417.658    22328418.8304   22328425.2824
      1467.706        1143.667
  -1451193.832 9  -1125281.09348  20725053.352    20725053.8544   20725060.2294
       793.061         617.970
    457659.148 9    357121.77448  20323983.265    20323983.9844   20323990.2764
      -775.942        -604.630
   2974056.470 9   2308635.31946  23565154.177    23565153.3984   23565160.9294
     -2318.002       -1806.235
  -3946389.643 9  -3064353.35848  20241873.880    20241874.7244   20241881.4194
      2308.930        1799.166
  -1855002.690 9  -1432268.05647  23215018.897    23215018.2614   23215025.4224
       756.257         589.291
 97  5 19 15 45 29.9980000  0  6 26  2 27 19  7 15                  -0.001082281
  -2875136.678 9  -2215269.97348  22320097.712    22320098.8974   22320105.3384
      1446.968        1127.508
  -1474827.708 9  -1143697.10248  20720555.980    20720556.4684   20720562.8344
       782.699         609.895
    481240.632 9    375496.94548  20328470.454    20328471.4144   20328477.7234
      -796.084        -620.325
   3043760.314 9   2362949.94446  23578418.138    23578417.6714   23578425.1444
     -2328.843       -1814.683
  -4015355.780 9  -3118093.19248  20228750.220    20228750.8954   20228757.5934
      2288.803        1783.483
  -1877345.644 9  -1449678.15847  23210766.991    23210766.5224   23210773.6884
       733.207         571.330
 97  5 19 15 45 59.9980000  0  6 26  2 27 19  7 15                  -0.001099626
  -2918233.430 9  -2248851.85948  22311896.871    22311897.9204   22311904.3404
      1426.143        1111.280
  -1498159.749 9  -1161877.91448  20716116.068    20716116.5334   20716122.8974
       772.625         602.045
    505421.338 9    394339.03848  20333072.111    20333072.8464   20333079.2004
      -815.885        -635.755
   3113777.996 9   2417509.11046  23591741.142    23591741.6754   23591749.1474
     -2338.955       -1822.562
  -4083720.336 9  -3171364.26248  20215740.935    20215741.5464   20215748.2424
      2268.990        1768.044
  -1898999.326 9  -1466551.17147  23206647.210    23206645.9934   23206653.1644
       710.354         553.523
 97  5 19 15 46 29.9980000  0  6 26  2 27 19  7 15                  -0.001116900
  -2960661.280 9  -2281912.52148  22303823.058    22303824.1804   22303830.6044
      1403.163        1093.374
  -1521144.746 9  -1179788.30348  20711742.170    20711742.6454   20711748.9924
       760.760         592.800
    530221.973 9    413664.19448  20337791.451    20337792.2674   20337798.6424
      -836.603        -651.898
   3184132.698 8   2472330.90046  23605127.767    23605129.6964   23605137.3134
     -2350.447       -1831.517
  -4151458.933 9  -3224147.57048  20202850.606    20202851.3194   20202858.0144
      2247.751        1751.494
  -1919930.717 9  -1482861.36347  23202664.334    23202662.8784   23202670.0454
       685.934         534.494
 97  5 19 15 46 59.9980000  0  6 26  2 27 19  7 15                  -0.001134119
  -3002454.731 9  -2314478.84548  22295870.086    22295871.1694   22295877.5854
      1382.972        1077.640
  -1543841.042 9  -1197473.73248  20707423.235    20707423.7244   20707430.0314
       752.239         586.160
    555580.696 9    433424.21648  20342617.207    20342617.9114   20342624.2904
      -854.095        -665.529
   3254767.011 8   2527370.55846  23618568.454    23618571.0154   23618578.5924
     -2358.543       -1837.826
  -4218629.950 9  -3276488.60948  20190068.311    20190069.0854   20190075.7724
      2230.428        1737.996
  -1940190.056 9  -1498647.87247  23198809.659    23198807.6774   23198814.8404
       664.548         517.830
 97  5 19 15 47 29.9980000  0  6 26  2 27 19  7 15                  -0.001151270
  -3043604.723 9  -2346543.78348  22288039.539    22288040.5774   22288046.9954
      1361.059        1060.565
  -1566260.626 9  -1214943.53948  20703156.861    20703157.4214   20703163.7314
       743.322         579.212
    581490.725 9    453613.83448  20347547.570    20347548.4444   20347554.8194
      -872.395        -679.788
   3325677.854 8   2582625.69546  23632063.262    23632064.9894   23632072.4794
     -2368.012       -1845.204
  -4285253.853 9  -3328403.32848  20177390.164    20177391.0164   20177397.6914
      2211.941        1723.590
  -1959774.960 9  -1513908.85747  23195082.943    23195080.8054   23195087.9834
       641.870         500.158
 97  5 19 15 47 59.9980000  0  6 26  2 27 19  7 15                  -0.001168330
  -3084082.007 9  -2378084.52148  22280336.922    22280338.0314   22280344.4194
      1338.286        1042.820
  -1588410.598 9  -1232203.26248  20698941.902    20698942.4474   20698948.7324
       734.043         571.981
    607962.625 9    474241.27448  20352585.034    20352585.9274   20352592.2914
      -891.671        -694.808
   3396878.206 8   2638106.42546  23645613.371    23645613.9934   23645621.4074
     -2377.920       -1852.925
  -4351313.031 9  -3379877.99848  20164819.477    20164820.3704   20164827.0694
      2192.788        1708.666
  -1978665.123 9  -1528628.47546  23191487.744    23191486.1564   23191493.2834
       618.320         481.808
 97  5 19 15 48 29.9980000  0  6 26  2 27 19  7 15                  -0.001185308
  -3123899.576 9  -2409111.20348  22272759.880    22272761.0314   22272767.4164
      1316.636        1025.950
  -1610304.664 9  -1249263.57148  20694775.600    20694776.1594   20694782.4444
       726.072         565.770
    634988.853 9    495300.65148  20357728.107    20357728.8464   20357735.2234
      -909.923        -709.031
   3468353.550 8   2693801.43346  23659214.910    23659215.3194   23659222.7954
     -2386.813       -1859.854
  -4416813.913 9  -3430917.63348  20152355.256    20152355.9884   20152362.6564
      2174.165        1694.155
  -1996871.610 9  -1542815.36947  23188022.817    23188021.6034   23188028.7314
       595.708         464.188
 97  5 19 15 48 59.9980000  0  6 26  2 27 19  7 15                  -0.001202191
  -3163050.792 9  -2439618.65048  22265309.682    22265310.8284   22265317.2094
      1295.044        1009.125
  -1631939.694 9  -1266122.03948  20690658.632    20690659.1734   20690665.4734
       717.773         559.304
    662596.196 9    516812.84448  20362981.551    20362982.3794   20362988.7504
      -928.936        -723.846
   3540127.011 8   2749728.74546  23672872.625    23672873.3744   23672880.9434
     -2396.374       -1867.304
  -4481728.002 9  -3481500.02448  20140002.474    20140003.2204   20140009.9064
      2155.092        1679.292
  -2014370.715 9  -1556451.05447  23184692.894    23184691.6404   23184698.7844
       572.555         446.147
 97  5 19 15 49 29.9980000  0  6 26  2 27 19  7 15                  -0.001219006
  -3201578.101 9  -2469639.93148  22257978.243    22257979.3174   22257985.7304
      1273.734         992.520
  -1653354.907 9  -1282809.21248  20686583.419    20686584.0174   20686590.2814
       709.948         553.206
    690742.277 9    538744.83248  20368337.413    20368338.4164   20368344.7864
      -947.288        -738.146
   3612162.413 8   2805860.14946  23686579.853    23686581.2494   23686588.8264
     -2405.788       -1874.640
  -4546089.969 9  -3531652.19448  20127754.734    20127755.5354   20127762.1904
      2135.791        1664.253
  -2031205.462 9  -1569569.04447  23181490.022    23181488.1084   23181495.2684
       549.924         428.512
 97  5 19 15 49 59.9980000  0  6 26  2 27 19  7 15                  -0.001235751
  -3239466.204 9  -2499163.13748  22250768.343    22250769.4884   22250775.8864
      1252.137         975.691
  -1674519.329 9  -1299300.96948  20682556.006    20682556.5644   20682562.8314
       700.886         546.145
    719445.680 9    561111.09648  20373799.612    20373800.5204   20373806.9004
      -966.303        -752.963
   3684481.050 8   2862212.26046  23700341.157    23700343.1504   23700350.7124
     -2415.560       -1882.255
  -4609863.993 9  -3581346.22548  20115618.876    20115619.6844   20115626.3484
      2115.724        1648.616
  -2047357.150 9  -1582154.80247  23178416.087    23178414.5514   23178421.7234
       526.835         410.521
 97  5 19 15 50 29.9980000  0  6 26  2 27 19  7 15                  -0.001252427
  -3276715.694 9  -2528188.71448  22243680.007    22243681.2004   22243687.5684
      1231.328         959.476
  -1695417.285 9  -1315585.08848  20678579.294    20678579.8404   20678586.1114
       692.365         539.505
    748705.890 9    583911.23648  20379367.744    20379368.5914   20379374.9614
      -984.415        -767.077
   3757088.356 8   2918789.31346  23714158.468    23714159.9534   23714167.5124
     -2424.828       -1889.476
  -4673042.890 9  -3630576.51948  20103596.421    20103597.0804   20103603.7334
      2096.288        1633.471
  -2062826.032 9  -1594208.48847  23175472.578    23175470.9574   23175478.1144
       504.381         393.024
 97  5 19 15 50 59.9980000  0  6 26  2 27 19  7 15                  -0.001269045
  -3313335.299 9  -2556723.47248  22236711.473    22236712.7354   22236719.0794
      1208.707         941.850
  -1716044.856 9  -1331658.52148  20674653.947    20674654.5214   20674660.7844
       681.572         531.095
    778525.230 9    607147.06548  20385042.331    20385043.0634   20385049.4114
     -1004.801        -782.962
   3829981.638 8   2975589.20646  23728030.402    23728031.2084   23728038.7374
     -2435.904       -1898.107
  -4735636.449 9  -3679350.70948  20091685.248    20091685.9484   20091692.5824
      2075.444        1617.229
  -2077616.390 9  -1605733.46047  23172656.817    23172656.4444   23172663.5804
       480.377         374.320
 97  5 19 15 51 29.9980000  0  6 26  2 27 19  7 15                  -0.001285591
  -3349295.705 9  -2584744.57648  22229868.503    22229869.6834   22229875.9984
      1189.284         926.715
  -1736368.981 9  -1347495.50548  20670786.442    20670786.9864   20670793.2314
       673.902         525.118
    808939.858 9    630846.75048  20390829.887    20390830.8004   20390837.1754
     -1022.283        -796.584
   3903181.788 8   3032628.21446  23741959.756    23741960.8184   23741968.2204
     -2443.558       -1904.071
  -4797625.152 9  -3727653.58448  20079889.099    20079889.8984   20079896.5594
      2057.649        1603.363
  -2091708.127 9  -1616714.05947  23169975.337    23169974.8654   23169982.0264
       459.530         358.075
 97  5 19 15 51 59.9980000  0  6 26  2 27 19  7 15                  -0.001302103
  -3384654.429 9  -2612296.82948  22223140.001    22223141.1134   22223147.4504
      1167.393         909.657
  -1756439.945 9  -1363135.21748  20666966.916    20666967.5674   20666973.8194
       663.679         517.152
    839898.083 9    654970.01748  20396721.144    20396721.9474   20396728.3374
     -1042.231        -812.128
   3976625.268 9   3089856.84046  23755935.417    23755936.7234   23755944.0964
     -2453.228       -1911.606
  -4859068.230 9  -3775531.29348  20068196.851    20068197.6934   20068204.3254
      2038.097        1588.128
  -2105155.317 9  -1627192.40046  23167416.705    23167415.9994   23167423.1864
       436.362         340.022
 97  5 19 15 52 29.9980000  0  6 26  2 27 19  7 15                  -0.001318561
  -3419383.056 9  -2639358.10048  22216531.273    22216532.4944   22216538.8714
      1147.951         894.507
  -1776233.744 9  -1378558.95748  20663200.456    20663200.9754   20663207.2094
       656.162         511.295
    871435.435 9    679544.55248  20402722.561    20402723.3304   20402729.7334
     -1060.145        -826.087
   4050330.237 9   3147289.22546  23769961.270    23769962.4404   23769969.8364
     -2460.337       -1917.146
  -4919958.865 9  -3822978.52748  20056609.753    20056610.5644   20056617.1984
      2021.437        1575.146
  -2117930.076 9  -1637146.78646  23164986.576    23164985.0734   23164992.1944
       415.367         323.663
 97  5 19 15 52 59.9980000  0  6 26  2 27 19  7 15                  -0.001334972
  -3453499.771 9  -2665942.55848  22210039.044    22210040.3504   22210046.7174
      1126.928         878.126
  -1795783.309 9  -1393792.38048  20659480.199    20659480.8364   20659487.0744
       647.709         504.708
    903536.546 9    704558.38548  20408831.179    20408832.0124   20408838.3884
     -1079.237        -840.964
   4124275.449 9   3204908.80946  23784032.249    23784033.8774   23784041.2284
     -2468.747       -1923.699
  -4980324.671 9  -3870016.80648  20045122.567    20045123.3694   20045129.9944
      2003.432        1561.116
  -2130050.067 9  -1646590.94446  23162679.880    23162678.6914   23162685.8494
       393.180         306.374
 97  5 19 15 53 29.9980000  0  6 26  2 27 19  7 15                  -0.001351321
  -3486982.815 9  -2692033.24748  22203667.436    22203668.7514   22203675.0814
      1105.755         861.627
  -1815088.942 9  -1408835.73448  20655806.538    20655807.1124   20655813.3274
       639.748         498.505
    936195.375 9    730006.81148  20415045.851    20415046.7944   20415053.1864
     -1097.456        -855.161
   4198463.293 9   3262717.48046  23798149.151    23798151.4834   23798158.7534
     -2476.626       -1929.838
  -5040151.321 9  -3916634.95848  20033737.823    20033738.7374   20033745.3524
      1985.326        1547.007
  -2141504.241 9  -1655516.28946  23160499.431    23160499.0794   23160506.2494
       370.841         288.967
 97  5 19 15 53 59.9980000  0  6 26  2 27 19  7 15                  -0.001367606
  -3519837.686 9  -2717634.45148  22197415.440    22197416.6624   22197423.0364
      1083.147         844.011
  -1834167.132 9  -1423701.85448  20652176.005    20652176.6464   20652182.8564
       630.693         491.449
    969385.842 9    755869.49448  20421361.855    20421362.7514   20421369.1454
     -1116.850        -870.273
   4272876.346 9   3320701.62946  23812310.103    23812311.7554   23812319.1704
     -2485.793       -1936.982
  -5099442.919 9  -3962836.19248  20022455.031    20022455.9374   20022462.5314
      1965.915        1531.882
  -2152298.726 9  -1663927.58546  23158444.634    23158444.9634   23158452.1524
       347.234         270.572
 97  5 19 15 54 29.9980000  0  6 26  2 27 19  7 15                  -0.001383808
  -3552039.068 9  -2742726.44248  22191287.750    22191288.9224   22191295.3184
      1062.900         828.234
  -1852998.782 9  -1438375.86748  20648592.525    20648593.1414   20648599.3244
       624.028         486.256
   1003137.393 9    782169.38648  20427784.605    20427785.4874   20427791.8914
     -1133.875        -883.539
   4347542.934 9   3378883.33746  23826519.702    23826520.5164   23826527.8824
     -2492.625       -1942.305
  -5158169.436 9  -4008597.10048  20011279.722    20011280.6564   20011287.2484
      1948.372        1518.212
  -2162406.851 9  -1671804.06647  23156521.588    23156521.5124   23156528.6694
       325.960         253.995
 97  5 19 15 54 59.9980000  0  6 26  2 27 19  7 15                  -0.001399946
  -3583598.365 9  -2767318.10148  22185282.199    22185283.4174   22185289.7704
      1041.838         811.822
  -1871593.659 9  -1452865.38148  20645054.044    20645054.6554   20645060.8554
       616.146         480.114
   1037428.810 9    808889.95248  20434310.052    20434310.9634   20434317.3594
     -1151.626        -897.371
   4422448.447 9   3437251.21346  23840773.004    23840774.5274   23840782.0224
     -2500.307       -1948.291
  -5216326.065 9  -4053913.94448  20000212.745    20000213.8354   20000220.3934
      1929.354        1503.393
  -2171845.222 9  -1679158.65046  23154725.234    23154725.4354   23154732.6044
       303.883         236.792
 97  5 19 15 55 29.9980000  0  6 26  2 27 19  7 15                  -0.001416038
  -3614542.478 9  -2791430.40048  22179393.692    22179394.9744   22179401.3074
      1021.519         795.989
  -1889957.363 9  -1467174.75848  20641559.554    20641560.1824   20641566.3784
       608.323         474.018
   1072247.708 9    836021.54648  20440935.931    20440936.7714   20440943.1804
     -1169.452        -911.261
   4497575.318 9   3495791.57746  23855068.300    23855070.7784   23855078.2444
     -2507.944       -1954.242
  -5273926.708 9  -4098797.55248  19989251.753    19989252.8074   19989259.3584
      1910.940        1489.044
  -2180628.634 9  -1686002.89046  23153053.687    23153054.0334   23153061.1774
       281.949         219.701
 97  5 19 15 55 59.9980000  0  6 26  2 27 19  7 15                  -0.001432089
  -3644894.286 9  -2815081.16448  22173617.972    22173619.2114   22173625.5144
      1002.765         781.375
  -1908087.144 9  -1481301.86248  20638109.578    20638110.1944   20638116.3854
       601.145         468.425
   1107598.164 9    863567.33748  20447663.010    20447663.7704   20447670.1954
     -1186.539        -924.576
   4572927.719 9   3554507.67246  23869408.339    23869409.8254   23869417.4454
     -2514.830       -1959.608
  -5330985.650 9  -4143259.05348  19978393.908    19978394.8804   19978401.3874
      1893.854        1475.730
  -2188766.802 9  -1692344.33047  23151505.531    23151505.4414   23151512.5574
       261.376         203.670
 97  5 19 15 56 29.9980000  0  6 26  2 27 19  7 15                  -0.001448106
  -3674659.143 9  -2838274.56648  22167953.975    22167955.1254   22167961.4654
       983.436         766.314
  -1925970.179 9  -1495236.69348  20634706.437    20634707.1694   20634713.3454
       592.954         462.042
   1143486.630 9    891532.35648  20454492.295    20454493.1204   20454499.5554
     -1204.073        -938.239
   4648516.649 9   3613408.06646  23883793.942    23883793.9784   23883801.7054
     -2522.444       -1965.541
  -5387506.537 9  -4187301.29348  19967638.301    19967639.3194   19967645.8144
      1875.998        1461.817
  -2196258.771 9  -1698182.24146  23150079.977    23150079.7844   23150086.9454
       239.965         186.986
 97  5 19 15 56 59.9980000  0  6 26  2 27 19  7 15                  -0.001464099
  -3703851.988 9  -2861022.24648  22162398.764    22162399.9404   22162406.3224
       964.057         751.213
  -1943616.418 9  -1508987.00948  20631348.542    20631349.2334   20631355.3664
       584.737         455.639
   1179890.107 9    919898.69448  20461419.644    20461420.5184   20461426.9274
     -1221.498        -951.817
   4724330.557 9   3672483.77646  23898221.237    23898221.0194   23898228.8444
     -2530.513       -1971.828
  -5443500.596 9  -4230933.01548  19956982.926    19956983.9944   19956990.4744
      1858.286        1448.015
  -2203116.194 9  -1703525.70546  23148775.399    23148774.8954   23148782.0224
       218.442         170.215
 97  5 19 15 57 29.9980000  0  6 26  2 27 19  7 15                  -0.001480054
  -3732451.246 9  -2883307.38848  22156956.518    22156957.7094   22156964.0894
       941.579         733.698
  -1961006.040 9  -1522537.36348  20628039.346    20628040.0844   20628046.2284
       573.824         447.136
   1216817.240 9    948673.07748  20468446.550    20468447.5454   20468453.9554
     -1241.037        -967.042
   4800386.145 9   3731747.80146  23912692.802    23912693.9084   23912701.7494
     -2540.476       -1979.592
  -5498966.370 9  -4274153.08848  19946428.155    19946429.2244   19946435.6714
      1838.575        1432.656
  -2209321.299 9  -1708360.86346  23147594.523    23147594.0844   23147601.2554
       194.469         151.534
 97  5 19 15 57 59.9980000  0  6 26  2 27 19  7 15                  -0.001495953
  -3760422.978 9  -2905103.54948  22151633.662    22151634.8754   22151641.1834
       922.141         718.551
  -1978123.191 9  -1535875.40048  20624782.176    20624782.8234   20624788.9484
       566.443         441.384
   1254266.961 9    977854.66748  20475573.037    20475573.9924   20475580.4334
     -1256.722        -979.264
   4876682.745 8   3791199.63846  23927209.366    23927212.7214   23927220.6024
     -2546.875       -1984.578
  -5553890.083 9  -4316950.77448  19935976.447    19935977.5714   19935984.0474
      1822.055        1419.783
  -2214865.113 9  -1712680.72147  23146539.685    23146539.2504   23146546.3154
       174.070         135.639
 97  5 19 15 58 29.9980000  0  6 26  2 27 19  7 15                  -0.001511789
  -3787763.433 9  -2926407.80248  22146430.953    22146432.1654   22146438.4534
       900.385         701.599
  -1994986.267 9  -1549015.45848  20621573.194    20621573.9024   20621580.0494
       557.688         434.562
   1292227.880 9   1007434.58648  20482796.932    20482797.7014   20482804.1384
     -1274.213        -992.893
   4953205.785 8   3850827.90046  23941771.441    23941774.5884   23941782.5324
     -2554.706       -1990.680
  -5608275.394 9  -4359328.93348  19925627.433    19925628.4224   19925634.8804
      1803.369        1405.223
  -2219753.580 9  -1716489.92846  23145609.774    23145608.9584   23145616.0754
       151.646         118.166
 97  5 19 15 58 59.9980000  0  6 26  2 27 19  7 15                  -0.001527573
  -3814487.101 9  -2947231.44748  22141345.584    22141346.8434   22141353.1344
       881.546         686.919
  -2011627.915 9  -1561982.98348  20618406.452    20618407.1354   20618413.2364
       552.007         430.135
   1330678.627 9   1037396.19348  20490113.945    20490114.6574   20490121.0944
     -1289.117       -1004.507
   5029927.339 8   3910610.83746  23956372.821    23956374.3224   23956382.1404
     -2559.794       -1994.645
  -5662135.530 9  -4401297.86248  19915378.053    19915379.1184   19915385.5804
      1787.566        1392.909
  -2224007.516 9  -1719804.69446  23144799.824    23144799.4794   23144806.5774
       132.123         102.953
 97  5 19 15 59 29.9980000  0  6 26  2 27 19  7 15                  -0.001543322
  -3840616.973 9  -2967592.38648  22136373.136    22136374.4674   22136380.8324
       860.485         670.508
  -2028067.677 9  -1574793.18348  20615278.010    20615278.7274   20615284.8714
       543.996         423.893
   1369614.214 9   1067735.60048  20497522.858    20497523.8464   20497530.3074
     -1306.758       -1018.253
   5106825.173 8   3970531.15446  23971007.467    23971007.5844   23971015.3974
     -2566.825       -2000.123
  -5715484.520 9  -4442868.49348  19905226.130    19905227.1694   19905233.6194
      1768.835        1378.313
  -2227642.748 9  -1722637.34946  23144107.756    23144107.7344   23144114.8224
       110.141          85.824
 97  5 19 15 59 59.9980000  0  6 26  2 27 19  7 15                  -0.001559031
  -3866147.575 9  -2987486.37248  22131514.846    22131516.1784   22131522.5154
       841.951         656.066
  -2044294.699 9  -1587437.61948  20612190.159    20612190.8724   20612197.0184
       538.046         419.257
   1409062.683 9   1098474.65448  20505029.506    20505030.6374   20505037.1094
     -1322.957       -1030.876
   5183929.044 8   4030611.98946  23985680.586    23985679.9744   23985687.8974
     -2573.135       -2005.040
  -5768280.991 9  -4484008.58948  19895179.235    19895180.3274   19895186.7844
      1751.242        1364.604
  -2230634.369 9  -1724968.49646  23143537.784    23143538.5234   23143545.5524
        89.604          69.821
 97  5 19 16  0 29.9980000  0  6 26  2 27 19  7 15                  -0.001574712
  -3891109.248 9  -3006937.03048  22126764.865    22126766.1754   22126772.4894
       822.918         641.235
  -2060327.597 9  -1599930.79048  20609139.202    20609139.9304   20609146.0764
       531.393         414.072
   1449014.552 9   1129605.96748  20512632.218    20512633.2214   20512639.7124
     -1339.802       -1044.002
   5261235.497 8   4090850.70846  24000391.484    24000390.8604   24000398.9264
     -2579.750       -2010.195
  -5820525.999 9  -4524718.97848  19885237.373    19885238.4544   19885244.9124
      1732.375        1349.903
  -2232992.428 9  -1726805.95246  23143089.274    23143089.7414   23143096.8534
        68.302          53.222
 97  5 19 16  0 59.9980000  0  6 26  2 27 19  7 15                  -0.001590379
  -3915505.788 9  -3025947.32948  22122122.331    22122123.6924   22122129.9454
       804.606         626.966
  -2076150.407 9  -1612260.25648  20606128.176    20606128.9654   20606135.1264
       524.431         408.648
   1489473.718 9   1161132.57648  20520331.432    20520332.3764   20520338.8444
     -1356.372       -1056.913
   5338738.021 8   4151242.19246  24015138.222    24015139.1244   24015147.2064
     -2586.031       -2015.089
  -5872208.432 9  -4564990.99348  19875402.471    19875403.5814   19875410.0364
      1714.286        1335.807
  -2234711.933 9  -1728145.83146  23142761.622    23142762.5664   23142769.6594
        47.427          36.956
 97  5 19 16  1 29.9980000  0  6 26  2 27 19  7 15                  -0.001606047
  -3939361.249 9  -3044536.00748  22117582.791    22117584.1504   22117590.4054
       785.190         611.836
  -2091773.424 9  -1624434.04048  20603155.278    20603156.0274   20603162.1844
       516.699         402.623
   1530409.415 9   1193030.50848  20528121.561    20528122.2014   20528128.6304
     -1372.966       -1069.844
   5416414.566 8   4211769.28146  24029916.249    24029920.5974   24029928.5514
     -2592.829       -2020.386
  -5923359.570 9  -4604849.01448  19865668.718    19865669.8734   19865676.2934
      1695.520        1321.184
  -2235818.231 9  -1729007.89446  23142551.429    23142551.9964   23142559.1494
        25.991          20.253
 97  5 19 16  1 59.9980000  0  7 26  2 27 19  4  7 15               -0.001621687
  -3962637.010 9  -3062672.97148  22113153.568    22113154.8814   22113161.2114
       767.405         597.978
  -2107176.319 9  -1636436.30048  20600224.077    20600224.9404   20600231.1004
       510.988         398.172
   1571827.391 9   1225304.23948  20536003.122    20536003.7874   20536010.2474
     -1387.359       -1081.059
   5494291.505 8   4272452.51945  24044734.528    24044740.1294   24044748.1524
     -2597.963       -2024.387
  -3198969.46818  -2449958.98555  24619771.685    24619772.2205   24619779.9805
      4218.021        3286.770
  -5973967.468 9  -4644283.73048  19856038.433    19856039.4934   19856045.9434
      1679.362        1308.594
  -2236292.476 9  -1729377.45046  23142460.805    23142461.7284   23142468.9134
         6.504           5.068
 97  5 19 16  2 29.9980000  0  7 26  2 27 19  4  7 15               -0.001637290
  -3985321.986 9  -3080349.58848  22108836.705    22108838.0874   22108844.4124
       744.857         580.408
  -2122354.763 9  -1648263.66848  20597335.766    20597336.5924   20597342.7314
       500.824         390.252
   1613731.398 9   1257956.70348  20543976.970    20543977.8554   20543984.3464
     -1406.408       -1095.902
   5572353.952 8   4333280.29545  24059590.484    24059594.8694   24059603.2164
     -2606.480       -2031.023
  -3325503.786 8  -2548557.15245  24595694.285    24595693.0514   24595701.2654
      4217.418        3286.300
  -6024051.618 9  -4683310.33148  19846507.636    19846508.8064   19846515.2484
      1659.566        1293.168
  -2236135.485 9  -1729255.13046  23142490.518    23142491.6414   23142498.7824
       -17.104         -13.328
 97  5 19 16  2 59.9980000  0  7 26  2 27 19  4  7 15               -0.001652908
  -4007414.077 9  -3097564.20248  22104632.818    22104634.1544   22104640.4224
       727.063         566.543
  -2137309.239 9  -1659916.50948  20594490.015    20594490.8514   20594497.0134
       495.319         385.963
   1656122.032 9   1290988.35448  20552043.608    20552044.5544   20552051.0724
     -1420.518       -1106.897
   5650591.719 8   4394244.68045  24074480.767    24074483.0864   24074491.4284
     -2610.487       -2034.146
  -3452118.893 8  -2647218.24345  24571598.331    24571598.8734   24571606.6324
      4222.520        3290.275
  -6073645.470 9  -4721954.88148  19837070.347    19837071.3914   19837077.8224
      1645.807        1282.447
  -2235358.333 9  -1728649.56346  23142638.212    23142639.5294   23142646.7374
       -35.655         -27.783
 97  5 19 16  3 29.9980000  0  7 26  2 27 19  4  7 15               -0.001668446
  -4028927.724 9  -3114328.09248  22100538.815    22100540.1874   22100546.4574
       707.836         551.561
  -2152062.762 9  -1671412.76548  20591682.495    20591683.3574   20591689.5344
       488.879         380.945
   1698980.315 9   1324384.40448  20560199.499    20560200.2254   20560206.7534
     -1436.206       -1119.121
   5729000.957 8   4455342.68045  24089403.124    24089403.9784   24089412.3354
     -2616.154       -2038.562
  -3578847.294 8  -2745967.65545  24547482.330    24547483.1144   24547491.1684
      4226.468        3293.352
  -6122782.175 9  -4760243.21548  19827719.843    19827721.0014   19827727.4464
      1630.486        1270.509
  -2233978.501 9  -1727574.38146  23142900.537    23142902.1144   23142909.2754
       -55.788         -43.471
 97  5 19 16  3 59.9980000  0  7 26  2 27 19  4  7 15               -0.001683945
  -4049861.635 9  -3130640.23448  22096555.183    22096556.6084   22096562.9214
       689.647         537.387
  -2166607.350 9  -1682746.21748  20588914.855    20588915.6524   20588921.8224
       482.411         375.905
   1742335.838 9   1358167.91448  20568449.604    20568450.5264   20568457.0114
     -1452.511       -1131.827
   5807593.668 8   4516583.65046  24104358.271    24104359.7384   24104368.1194
     -2621.497       -2042.725
  -3705672.527 8  -2844792.46345  24523349.149    24523349.0964   24523357.9284
      4230.018        3296.118
  -6171446.060 9  -4798163.11748  19818459.325    19818460.5474   19818466.9874
      1615.314        1258.686
  -2231978.289 9  -1726015.77846  23143280.834    23143282.7504   23143289.9944
       -75.893         -59.137
 97  5 19 16  4 29.9980000  0  7 26  2 27 19  4  7 15               -0.001699387
  -4070248.774 9  -3146526.32848  22092675.712    22092677.1134   22092683.4544
       671.106         522.940
  -2180951.032 9  -1693923.11448  20586185.299    20586186.1364   20586192.3414
       475.442         370.474
   1786189.532 9   1392339.60748  20576794.640    20576795.6054   20576802.1134
     -1469.352       -1144.950
   5886351.298 8   4577953.13446  24119345.819    24119346.8974   24119355.2604
     -2627.402       -2047.326
  -3832603.394 8  -2943699.60745  24499194.901    24499195.6384   24499203.8264
      4233.537        3298.860
  -6219642.129 9  -4835718.49148  19809288.057    19809289.1354   19809295.6094
      1599.331        1246.232
  -2229374.103 9  -1723986.55946  23143777.005    23143778.2924   23143785.6004
       -96.156         -74.927
 97  5 19 16  4 59.9980000  0  7 26  2 27 19  4  7 15               -0.001714798
  -4090088.759 9  -3161986.06748  22088900.370    22088901.7314   22088908.0084
       653.216         508.999
  -2195095.254 9  -1704944.59048  20583493.823    20583494.6264   20583500.8304
       469.188         365.601
   1830534.448 9   1426894.07548  20585233.066    20585234.1644   20585240.6644
     -1485.278       -1157.359
   5965289.682 8   4639463.47046  24134368.272    24134368.5424   24134376.8554
     -2633.379       -2051.984
  -3959635.036 8  -3042685.24645  24475020.954    24475022.3554   24475030.5824
      4236.867        3301.455
  -6267361.036 9  -4872902.04348  19800207.469    19800208.5474   19800215.0154
      1583.390        1233.810
  -2226164.417 9  -1721485.51546  23144387.209    23144389.1114   23144396.3824
      -116.196         -90.542
 97  5 19 16  5 29.9980000  0  7 26  2 27 19  4  7 15               -0.001730190
  -4109395.951 9  -3177030.64348  22085226.285    22085227.6764   22085233.9574
       633.269         493.456
  -2209055.318 9  -1715822.56748  20580837.286    20580838.1054   20580844.3164
       460.777         359.047
   1875352.276 9   1461817.04648  20593761.556    20593762.7544   20593769.2534
     -1503.369       -1171.456
   6044395.548 8   4701104.27145  24149421.768    24149422.0564   24149430.3464
     -2640.871       -2057.822
  -4086752.465 8  -3141737.73545  24450830.701    24450832.8534   24450840.7824
      4236.926        3301.501
  -6314585.560 9  -4909700.36848  19791220.827    19791222.0074   19791228.4774
      1564.154        1218.821
  -2222352.954 9  -1718515.56246  23145112.702    23145114.3814   23145121.7314
      -138.543        -107.956
 97  5 19 16  5 59.9980000  0  7 26  2 27 19  4  7 15               -0.001745587
  -4128186.820 9  -3191672.89548  22081650.397    22081651.9244   22081658.2014
       615.285         479.443
  -2222847.571 9  -1726569.78248  20578212.732    20578213.5404   20578219.7354
       454.654         354.276
   1920626.380 9   1497095.55648  20602377.256    20602378.1394   20602384.6384
     -1518.886       -1183.548
   6123631.154 8   4762846.18146  24164498.829    24164500.2394   24164508.4134
     -2645.579       -2061.490
  -4213956.912 8  -3240858.00745  24426624.960    24426626.4754   24426634.5644
      4239.223        3303.291
  -6361311.781 9  -4946110.40148  19782329.160    19782330.3334   19782336.8094
      1546.866        1205.350
  -2217959.545 9  -1715092.13146  23145948.880    23145950.4334   23145957.7764
      -158.456        -123.472
 97  5 19 16  6 29.9980000  0  7 26  2 27 19  4  7 15               -0.001760957
  -4146398.982 9  -3205864.20048  22078184.861    22078186.3014   22078192.5344
       597.479         465.568
  -2236431.610 9  -1737154.75248  20575627.784    20575628.5954   20575634.8194
       449.512         350.269
   1966380.761 9   1532748.30248  20611084.243    20611084.9384   20611091.4214
     -1532.754       -1194.354
   6203033.979 8   4824718.40845  24179609.178    24179610.3304   24179618.3494
     -2649.233       -2064.337
  -4341213.569 9  -3340018.96545  24402409.645    24402410.2984   24402418.5734
      4243.152        3306.352
  -6407497.429 9  -4982099.20848  19773540.237    19773541.4684   19773547.9474
      1530.892        1192.903
  -2212947.633 9  -1711186.76546  23146902.449    23146904.2024   23146911.5274
      -177.138        -138.030
 97  5 19 16  6 59.9980000  0  7 26  2 27 19  4  7 15               -0.001776332
  -4164065.649 9  -3219630.45048  22074823.085    22074824.4384   22074830.7464
       579.756         451.758
  -2249840.497 9  -1747603.23948  20573076.189    20573076.9694   20573083.2144
       443.939         345.926
   2012562.275 9   1568733.88748  20619872.037    20619872.9974   20619879.4884
     -1546.626       -1205.163
   6282551.723 8   4886680.14545  24194741.367    24194741.9764   24194750.2584
     -2652.429       -2066.828
  -4468567.641 9  -3439255.83145  24378174.131    24378175.6364   24378183.9464
      4246.594        3309.034
  -6453185.287 9  -5017700.12848  19764846.108    19764847.3434   19764853.8324
      1514.465        1180.102
  -2207356.757 9  -1706830.24546  23147966.602    23147968.1434   23147975.4524
      -196.091        -152.798
 97  5 19 16  7 29.9980000  0  7 26  2 27 19  4  7 15               -0.001791718
  -4181192.246 9  -3232975.86748  22071563.938    22071565.3304   22071571.6844
       562.310         438.164
  -2263070.430 9  -1757912.28348  20570558.639    20570559.3774   20570565.5924
       438.328         341.554
   2059173.106 9   1605054.00148  20628741.667    20628742.7574   20628749.2584
     -1560.545       -1216.009
   6362173.475 8   4948722.94745  24209892.748    24209893.6454   24209901.7834
     -2655.405       -2069.147
  -4596024.359 9  -3538572.65345  24353918.702    24353921.3694   24353929.6634
      4250.878        3312.372
  -6498371.245 9  -5052909.95648  19756247.521    19756248.7094   19756255.2324
      1498.310        1167.514
  -2201190.350 9  -1702025.26546  23149139.777    23149141.5964   23149148.8964
      -214.649        -167.259
 97  5 19 16  7 59.9980000  0  7 26  2 27 19  4  7 15               -0.001807092
  -4197746.196 9  -3245875.06148  22068413.715    22068415.2104   22068421.5254
       541.939         422.290
  -2276084.214 9  -1768052.89848  20568082.017    20568082.9334   20568089.1744
       429.837         334.938
   2106245.609 9   1641733.85848  20637699.304    20637700.3844   20637706.8864
     -1577.008       -1228.837
   6441933.208 8   5010873.27646  24225069.954    24225071.5874   24225079.6494
     -2661.549       -2073.934
  -4723573.843 9  -3637961.76445  24329648.133    24329649.4154   24329657.7114
      4252.950        3313.987
  -6543034.405 9  -5087712.41248  19747748.378    19747749.6004   19747756.1054
      1479.885        1153.157
  -2194422.925 9  -1696751.95846  23150427.323    23150429.3844   23150436.7254
      -235.955        -183.861
 97  5 19 16  8 29.9980000  0  7 26  2 27 19  4  7 15               -0.001822454
  -4213733.608 9  -3258332.79648  22065371.408    22065372.9194   22065379.2094
       524.702         408.859
  -2288875.141 9  -1778019.86348  20565648.089    20565648.9084   20565655.1524
       423.602         330.079
   2153773.615 9   1678768.65848  20646743.629    20646744.6824   20646751.1774
     -1590.924       -1239.681
   6521849.071 8   5073145.25846  24240277.116    24240279.1954   24240287.2644
     -2665.522       -2077.030
  -4851224.060 8  -3737429.38245  24305357.248    24305358.2884   24305366.7044
      4257.609        3317.617
  -6587190.907 9  -5122120.06548  19739345.675    19739346.9024   19739353.4234
      1464.560        1141.216
  -2187054.859 9  -1691010.62846  23151829.882    23151831.5444   23151838.8274
      -254.606        -198.394
 97  5 19 16  8 59.9980000  0  7 26  2 27 19  4  7 15               -0.001837837
  -4229216.111 9  -3270397.10748  22062425.228    22062426.7534   22062433.0644
       506.195         394.438
  -2301489.450 9  -1787849.20048  20563247.617    20563248.4914   20563254.7354
       416.146         324.270
   2201718.135 9   1716128.00748  20655867.036    20655868.2444   20655874.7204
     -1606.803       -1252.054
   6601883.366 8   5135509.53845  24255506.708    24255509.1294   24255517.4314
     -2671.489       -2081.680
  -4979006.458 8  -3836999.97545  24281040.535    24281042.0124   24281050.4534
      4259.891        3319.396
  -6630889.107 9  -5156170.60548  19731030.265    19731031.4434   19731037.9634
      1447.414        1127.855
  -2179128.757 9  -1684834.47046  23153338.606    23153339.8274   23153347.0954
      -275.138        -214.393
 97  5 19 16  9 29.9980000  0  7 26  2 27 19  4  7 15               -0.001853192
  -4244137.091 9  -3282023.85748  22059585.964    22059587.4414   22059593.7024
       488.023         380.278
  -2313877.513 9  -1797502.24148  20560890.211    20560891.1624   20560897.3894
       409.094         318.774
   2250141.004 9   1753860.09948  20665081.780    20665082.8384   20665089.3004
     -1621.964       -1263.868
   6682102.662 8   5198017.96146  24270771.206    24270774.4504   24270782.7124
     -2676.959       -2085.942
  -5106852.421 8  -3936620.11045  24256712.234    24256713.7334   24256722.1344
      4262.558        3321.474
  -6674077.484 9  -5189823.87448  19722811.706    19722812.9364   19722819.4544
      1431.202        1115.222
  -2170588.161 9  -1678179.47946  23154964.306    23154965.0554   23154972.3534
      -294.901        -229.793
 97  5 19 16  9 59.9980000  0  8 26  2 27 19  4  7  9 15            -0.001868524
  -4258502.894 9  -3293218.00148  22056852.270    22056853.7134   22056859.9944
       469.497         365.842
  -2326049.630 9  -1806987.01348  20558574.029    20558574.8924   20558581.1214
       402.248         313.440
   2299027.621 9   1791953.55248  20674384.647    20674385.6514   20674392.1364
     -1637.355       -1275.861
   6762492.974 9   5260659.64345  24286069.066    24286072.4534   24286080.4914
     -2682.629       -2090.360
  -5234757.423 8  -4036286.26046  24232371.843    24232374.2494   24232382.6094
      4264.051        3322.637
  -6716776.516 9  -5223095.83448  19714686.181    19714687.5764   19714694.1364
      1415.080        1102.660
   -339878.60118   -240765.19155  24364812.605           0.0005          0.0005
      4155.877        3238.346
  -2161446.108 9  -1671055.82546  23156704.287    23156704.7454   23156712.0334
      -314.960        -245.423
 97  5 19 16 10 29.9980000  0  8 26  2 27 19  4  7  9 15            -0.001883836
  -4272336.137 9  -3303997.17248  22054219.857    22054221.3384   22054227.6864
       451.666         351.947
  -2338038.933 9  -1816329.33648  20556292.447    20556293.3994   20556299.6424
       396.156         308.693
   2348354.817 9   1830390.30848  20683771.236    20683772.3104   20683778.8244
     -1652.114       -1287.361
   6843035.621 9   5323420.03745  24301396.904    24301399.1324   24301407.2294
     -2687.630       -2094.257
  -5362718.740 8  -4135996.26745  24208022.001    24208024.0164   24208032.2774
      4265.901        3324.079
  -6759009.827 9  -5256004.90448  19706649.724    19706650.8644   19706657.4114
      1399.418        1090.456
   -464540.151 9   -337903.83855  24341100.295           0.0005   24341106.6175
      4153.994        3236.878
  -2151717.619 9  -1663475.19846  23158555.653    23158555.9874   23158563.2914
      -334.556        -260.693
 97  5 19 16 10 59.9980000  0  8 26  2 27 19  4  7  9 15            -0.001899129
  -4285642.648 9  -3314365.90548  22051687.817    22051689.2554   22051695.5514
       434.934         338.910
  -2349872.817 9  -1825550.54848  20554040.598    20554041.5294   20554047.7664
       392.171         305.588
   2398108.124 9   1869159.10248  20693238.998    20693240.0874   20693246.5914
     -1665.265       -1297.609
   6923697.775 9   5386273.54745  24316747.401    24316748.6384   24316756.8284
     -2690.256       -2096.303
  -5490750.045 8  -4235760.82545  24183659.319    24183660.3104   24183668.7664
      4269.089        3326.563
  -6800783.041 9  -5288555.44648  19698700.409    19698701.6954   19698708.2504
      1384.891        1079.136
   -589172.076 9   -435019.64455  24317381.025    24317380.1265   24317387.3215
      4154.291        3237.110
  -2141418.404 9  -1655449.85446  23160515.806    23160515.8164   23160523.2194
      -352.542        -274.708
 97  5 19 16 11 29.9980000  0  8 26  2 27 19  4  7  9 15            -0.001914407
  -4298414.827 9  -3324318.27448  22049257.333    22049258.8224   22049265.1164
       417.981         325.699
  -2361552.279 9  -1834651.43548  20551818.138    20551819.0384   20551825.2514
       387.741         302.136
   2448282.421 9   1908255.93648  20702786.946    20702787.9734   20702794.4574
     -1678.323       -1307.784
   7004464.605 9   5449208.59845  24332116.686    24332118.0584   24332126.4864
     -2692.863       -2098.335
  -5618851.202 8  -4335579.80345  24159281.200    24159283.2784   24159291.8714
      4272.408        3329.149
  -6842087.811 9  -5320740.97348  19690840.636    19690841.6534   19690848.2264
      1369.930        1067.478
   -713786.831 9   -532122.02745  24293666.576    24293667.2335   24293674.5364
      4154.794        3237.502
  -2130550.606 9  -1646981.46846  23162583.870    23162583.9274   23162591.2984
      -370.682        -288.843
 97  5 19 16 11 59.9980000  0  8 26  2 27 19  4  7  9 15            -0.001929674
  -4310654.096 9  -3333855.38648  22046928.329    22046929.8104   22046936.0684
       398.121         310.224
  -2373071.345 9  -1843627.33448  20549625.995    20549627.0264   20549633.2634
       380.364         296.387
   2498880.587 9   1947683.06448  20712415.265    20712416.4994   20712423.0124
     -1694.760       -1320.592
   7085340.704 9   5512228.80545  24347506.836    24347508.4864   24347516.7504
     -2698.894       -2103.034
  -5747027.691 8  -4435457.48945  24134889.939    24134892.0134   24134900.4894
      4272.860        3329.501
  -6882910.998 9  -5352551.23848  19683072.131    19683073.2534   19683079.8314
      1351.704        1053.276
   -838392.631 9   -629217.43245  24269954.903    24269955.3044   24269962.9514
      4152.180        3235.465
  -2119108.600 9  -1638065.63946  23164761.287    23164761.2994   23164768.6774
      -392.073        -305.511
 97  5 19 16 12 29.9980000  0  8 26  2 27 19  4  7  9 15            -0.001944927
  -4322358.162 9  -3342975.44748  22044701.108    22044702.5954   22044708.8624
       380.468         296.469
  -2384425.007 9  -1852474.34648  20547465.493    20547466.5154   20547472.7514
       374.801         292.053
   2549911.851 9   1987447.67148  20722126.278    20722127.4244   20722133.9604
     -1709.041       -1331.720
   7166335.467 9   5575341.51645  24362920.436    24362921.3694   24362929.4594
     -2702.350       -2105.727
  -5875289.906 8  -4535401.96745  24110482.350    24110484.5364   24110492.8954
      4276.238        3332.134
  -6923243.384 9  -5383979.05648  19675397.004    19675398.2544   19675404.8354
      1335.607        1040.733
   -962977.215 9   -726296.29245  24246246.841    24246247.3214   24246255.2974
      4151.692        3235.085
  -2107086.612 9  -1628697.86946  23167048.729    23167049.0014   23167056.3974
      -410.981        -320.245
 97  5 19 16 12 59.9980000  0  8 26  2 27 19  4  7  9 15            -0.001960151
  -4333503.832 9  -3351660.40848  22042580.161    22042581.6604   22042587.9644
       362.588         282.536
  -2395573.817 9  -1861161.73348  20545343.950    20545344.9384   20545351.1944
       368.135         286.858
   2601409.183 9   2027575.44048  20731926.034    20731927.0504   20731933.6144
     -1724.273       -1343.589
   7247465.826 8   5638559.86745  24378359.686    24378360.1194   24378368.0974
     -2706.518       -2108.975
  -6003613.798 8  -4635394.50745  24086063.806    24086065.2484   24086073.6264
      4278.407        3333.824
  -6963068.624 9  -5415011.70248  19667818.500    19667819.7544   19667826.3564
      1319.346        1028.062
  -1087515.344 9   -823338.96846  24222547.868    24222548.5164   24222556.1774
      4150.445        3234.113
  -2094468.138 9  -1618865.31446  23169450.216    23169450.2054   23169457.6264
      -430.471        -335.432
 97  5 19 16 13 29.9980000  0  8 26  2 27 19  4  7  9 15            -0.001975378
  -4344143.331 9  -3359950.93848  22040555.561    22040557.0314   22040563.3534
       346.398         269.921
  -2406537.493 9  -1869704.86148  20543257.577    20543258.6294   20543264.8674
       362.466         282.441
   2653338.227 9   2068039.61048  20741807.578    20741808.8414   20741815.4174
     -1738.046       -1354.322
   7328702.592 8   5701861.14945  24393818.849    24393818.8744   24393827.0564
     -2709.623       -2111.394
  -6132023.548 8  -4735453.94845  24061627.982    24061629.6704   24061637.9864
      4281.864        3336.517
  -7002437.127 9  -5445688.44748  19660326.751    19660328.1694   19660334.7514
      1304.873        1016.784
  -1212032.702 9   -920365.44846  24198852.716    24198853.6744   24198861.2644
      4150.217        3233.935
  -2081291.821 9  -1608598.06746  23171957.296    23171957.5434   23171965.0544
      -448.388        -349.393
 97  5 19 16 13 59.9980000  0  8 26  2 27 19  4  7  9 15            -0.001990584
  -4354263.309 9  -3367836.65548  22038629.730    22038631.2444   22038637.5364
       328.796         256.205
  -2417303.794 9  -1878094.19048  20541208.828    20541209.8824   20541216.1294
       356.049         277.441
   2705716.078 9   2108853.50448  20751774.964    20751776.0194   20751782.6164
     -1753.101       -1366.053
   7410058.025 8   5765254.90445  24409300.460    24409300.6684   24409308.7954
     -2713.469       -2114.391
  -6260496.223 8  -4835562.42545  24037179.841    24037182.1504   24037190.3634
      4283.386        3337.703
  -7041349.294 9  -5476009.60648  19652921.940    19652923.3994   19652930.0144
      1289.890        1005.109
  -1336503.873 9  -1017355.92146  24175166.362    24175167.6684   24175175.1624
      4148.451        3232.559
  -2067547.395 9  -1597888.14346  23174573.270    23174572.9994   23174580.4954
      -467.354        -364.172
 97  5 19 16 14 29.9980000  0  8 26  2 27 19  4  7  9 15            -0.002005760
  -4363847.913 9  -3375305.19148  22036805.758    22036807.3244   22036813.6254
       311.366         242.623
  -2427875.176 9  -1886331.63848  20539197.205    20539198.2254   20539204.4944
       349.858         272.617
   2758544.758 9   2150018.69248  20761827.940    20761828.9864   20761835.5724
     -1767.594       -1377.346
   7491529.832 8   5828739.31545  24424805.055    24424804.6414   24424812.2214
     -2716.746       -2116.945
  -6388996.109 8  -4935692.12545  24012727.391    24012729.5474   24012737.5504
      4284.381        3338.479
  -7079804.022 9  -5505974.32248  19645604.339    19645605.7134   19645612.2994
      1274.820         993.366
  -1460911.297 9  -1114296.71946  24151492.618    24151493.7584   24151501.1414
      4146.617        3231.130
  -2053228.542 9  -1586730.61746  23177297.849    23177297.8264   23177305.3294
      -486.107        -378.785
 97  5 19 16 14 59.9970000  0  8 26  2 27 19  4  7  9 15            -0.002020890
  -4372865.732 9  -3382332.08448  22035089.699    22035091.2964   22035097.6224
       292.187         227.678
  -2438223.708 9  -1894395.43048  20537227.935    20537228.9464   20537235.2224
       342.367         266.779
   2811843.392 9   2191550.07948  20771970.825    20771971.4314   20771977.9784
     -1783.337       -1389.613
   7573138.749 8   5892330.60445  24440335.308    24440334.5264   24440341.8764
     -2721.629       -2120.750
  -6517472.787 8  -5035803.70645  23988277.866    23988281.0174   23988289.1424
      4283.550        3337.831
  -7117758.065 9  -5535548.88748  19638381.892    19638383.2464   19638389.8334
      1257.676         980.007
  -1585213.968 9  -1211155.91846  24127838.804    24127839.7294   24127847.1094
      4142.752        3228.118
  -2038304.009 9  -1575101.13346  23180137.009    23180137.8904   23180145.4284
      -506.618        -394.767
 97  5 19 16 15 29.9970000  0  8 26  2 27 19  4  7  9 15            -0.002035970
  -4381364.548 9  -3388954.55448  22033472.433    22033474.0484   22033480.4124
       274.411         213.827
  -2448416.876 9  -1902338.16048  20535288.320    20535289.2554   20535295.4894
       337.305         262.835
   2865548.209 9   2233397.97548  20782190.299    20782191.1234   20782197.7074
     -1796.967       -1400.234
   7654832.765 8   5955988.20745  24455880.470    24455880.1714   24455888.0014
     -2724.655       -2123.108
  -6645994.004 8  -5135950.00945  23963821.910    23963824.0834   23963832.3694
      4284.607        3338.655
  -7155249.482 9  -5564762.96548  19631247.461    19631248.8734   19631255.4514
      1241.730         967.582
  -1709461.954 9  -1307972.49146  24104195.159    24104196.0784   24104203.5294
      4140.517        3226.377
  -2022826.392 9  -1563040.67446  23183081.877    23183083.2274   23183090.7464
      -525.238        -409.276
 97  5 19 16 15 59.9970000  0  8 26  2 27 19  4  7  9 15            -0.002051092
  -4389336.297 9  -3395166.32848  22031955.491    22031957.0774   22031963.4854
       256.311         199.723
  -2458467.115 9  -1910169.51948  20533375.842    20533376.7594   20533383.0104
       331.805         258.549
   2919654.419 9   2275558.63948  20792486.395    20792487.2104   20792493.8164
     -1810.841       -1411.045
   7736616.975 8   6019716.04545  24471441.775    24471443.4744   24471451.4104
     -2728.450       -2126.065
  -6774560.220 8  -5236131.37345  23939357.217    23939358.6854   23939366.8104
      4285.770        3339.561
  -7192265.444 9  -5593606.56748  19624203.619    19624204.9614   19624211.5404
      1225.084         954.611
  -1833648.165 9  -1404740.92446  24080562.779    24080564.1174   24080571.7524
      4137.838        3224.289
  -2006792.751 9  -1550546.94546  23186132.935    23186134.3694   23186141.8444
      -544.536        -424.314
 97  5 19 16 16 29.9970000  0  7 26  2 27  4  7  9 15               -0.002066219
  -4396785.241 9  -3400970.71448  22030538.048    22030539.6034   22030546.0224
       238.308         185.695
  -2468353.845 9  -1917873.46548  20531494.394    20531495.4024   20531501.6504
       325.163         253.374
   2974164.339 9   2318033.89048  20802858.992    20802860.0934   20802866.7124
     -1825.202       -1422.235
  -6903179.760 8  -5336354.26245  23914881.430    23914883.0284   23914891.3194
      4286.998        3340.518
  -7228783.357 9  -5622062.06748  19617254.521    19617255.8684   19617262.4434
      1207.472         940.887
  -1957766.408 9  -1501456.39946  24056944.104    24056945.2054   24056952.9514
      4134.786        3221.911
  -1990190.444 9  -1537610.10346  23189291.944    23189293.7184   23189301.1954
      -564.246        -439.672
 97  5 19 16 16 59.9970000  0  7 26  2 27  4  7  9 15               -0.002081354
  -4403710.456 9  -3406366.99948  22029220.213    22029221.8144   22029228.1774
       222.045         173.022
  -2478051.575 9  -1925430.14048  20529649.075    20529649.9964   20529656.2144
       319.969         249.326
   3029085.680 9   2360829.72648  20813310.044    20813311.3034   20813317.8954
     -1837.647       -1431.933
  -7031868.497 8  -5436631.10445  23890392.116    23890394.2364   23890402.6294
      4290.750        3343.442
  -7264799.009 9  -5650126.20448  19610400.902    19610402.3164   19610408.8944
      1192.300         929.065
  -2081816.058 9  -1598118.42146  24033337.750    24033339.4184   24033347.1864
      4133.972        3221.277
  -1973017.289 9  -1524228.43846  23192559.645    23192561.6584   23192569.0774
      -581.961        -453.476
 97  5 19 16 17 29.9970000  0  7 26  2 27  4  7  9 15               -0.002096492
  -4410113.933 9  -3411356.74248  22028001.718    22028003.3374   22028009.6574
       204.939         159.693
  -2487545.413 9  -1932827.94048  20527842.370    20527843.3814   20527849.6074
       312.965         243.869
   3084426.788 9   2403952.65448  20823841.161    20823842.3784   20823848.9794
     -1851.687       -1442.873
  -7160622.781 8  -5536959.00745  23865890.293    23865892.9054   23865901.3294
      4292.924        3345.136
  -7300320.371 9  -5677805.17848  19603641.522    19603642.7954   19603649.3474
      1175.947         916.322
  -2205800.888 9  -1694729.92746  24009744.825    24009745.9794   24009753.6544
      4131.827        3219.605
  -1955269.005 9  -1510398.61546  23195936.935    23195939.0454   23195946.5184
      -601.177        -468.450
 97  5 19 16 17 59.9970000  0  7 26  2 27  4  7  9 15               -0.002111611
  -4416023.196 9  -3415961.38548  22026877.247    22026878.9104   22026885.2294
       189.193         147.423
  -2496836.917 9  -1940068.07448  20526074.284    20526075.2814   20526081.5094
       306.690         238.979
   3140172.959 9   2447391.21448  20834449.250    20834450.5594   20834457.1484
     -1864.501       -1452.858
  -7289459.818 8  -5637351.38945  23841373.574    23841376.0474   23841384.4404
      4296.356        3347.810
  -7335375.035 9  -5705120.49048  19596970.630    19596972.1094   19596978.6804
      1161.259         904.877
  -2329744.703 9  -1791309.48946  23986158.822    23986160.2254   23986167.8914
      4131.270        3219.171
  -1936962.825 9  -1496134.06946  23199420.283    23199422.5514   23199430.0764
      -618.979        -482.321
 97  5 19 16 18 29.9970000  0  7 26  2 27  4  7  9 15               -0.002126755
  -4421420.011 9  -3420166.72148  22025850.219    22025851.9174   22025858.2574
       170.625         132.954
  -2505903.124 9  -1947132.65048  20524349.151    20524350.0724   20524356.3114
       297.944         232.164
   3196341.376 9   2491158.79848  20845137.952    20845139.0644   20845145.6854
     -1879.932       -1464.882
  -7418359.178 8  -5737792.34145  23816845.132    23816847.3024   23816855.6174
      4296.831        3348.180
  -7369952.921 9  -5732064.28848  19590390.826    19590392.1654   19590398.7304
      1144.193         891.579
  -2453638.805 9  -1887850.29346  23962583.027    23962584.0414   23962591.5894
      4128.299        3216.856
  -1918087.099 9  -1481425.73546  23203011.385    23203014.5164   23203021.9824
      -639.278        -498.139
 97  5 19 16 18 59.9970000  0  7 26  2 27  4  7  9 15               -0.002141886
  -4426284.507 9  -3423957.25748  22024924.571    22024926.2904   22024932.5554
       154.646         120.503
  -2514745.951 9  -1954023.16648  20522666.295    20522667.3414   20522673.5894
       292.613         228.010
   3252938.743 9   2535260.61948  20855908.219    20855909.2184   20855915.8504
     -1892.390       -1474.590
  -7547295.946 8  -5838262.44145  23792309.333    23792311.4314   23792319.5424
      4299.611        3350.346
  -7404057.188 9  -5758639.03648  19583901.097    19583902.3704   19583908.9044
      1130.218         880.689
  -2577474.540 9  -1984345.61946  23939017.722    23939018.8894   23939026.3224
      4128.115        3216.713
  -1898635.657 9  -1466268.76646  23206712.336    23206716.0204   23206723.5104
      -656.656        -511.680
 97  5 19 16 19 29.9970000  0  7 26  2 27  4  7  9 15               -0.002157026
  -4430666.703 9  -3427371.97648  22024090.713    22024092.4264   22024098.6864
       136.379         106.269
  -2523429.354 9  -1960789.45448  20521013.949    20521014.9674   20521021.1894
       285.295         222.308
   3309916.178 9   2579658.60148  20866750.748    20866751.6794   20866758.2934
     -1907.270       -1486.184
  -7676307.288 8  -5938790.66545  23767759.315    23767761.2864   23767769.2834
      4300.081        3350.712
  -7437737.780 9  -5784883.64548  19577491.765    19577493.1454   19577499.7004
      1114.152         868.170
  -2701291.513 8  -2080826.33046  23915455.618    23915457.1804   23915464.6434
      4125.236        3214.470
  -1878654.931 9  -1450699.38046  23210515.463    23210518.2694   23210525.7094
      -676.406        -527.070
 97  5 19 16 19 59.9970000  0  7 26  2 27  4  7  9 15               -0.002172114
  -4434475.155 9  -3430339.62648  22023366.040    22023367.7484   22023374.0184
       118.720          92.509
  -2531879.831 9  -1967374.24448  20519405.890    20519406.9114   20519413.1394
       279.312         217.646
   3367363.225 9   2624422.51648  20877682.530    20877683.5014   20877690.1284
     -1921.427       -1497.216
  -7805309.969 8  -6039312.12945  23743211.232    23743212.7764   23743220.6544
      4301.130        3351.530
  -7470925.669 9  -5810744.33248  19571176.467    19571177.7094   19571184.2524
      1099.433         856.701
  -2824994.549 9  -2177218.23746  23891915.847    23891917.1104   23891924.6844
      4122.744        3212.528
  -1858063.042 9  -1434653.76146  23214434.511    23214436.7814   23214444.2044
      -695.239        -541.745
 97  5 19 16 20 29.9970000  0  7 26  2 27  4  7  9 15               -0.002187175
  -4437758.271 9  -3432897.92548  22022741.297    22022742.9884   22022749.3554
       100.665          78.440
  -2540155.979 9  -1973823.19248  20517830.860    20517832.0104   20517838.2474
       272.842         212.604
   3425230.592 9   2669513.95148  20888694.544    20888695.3184   20888701.9224
     -1935.925       -1508.513
  -7934336.000 8  -6139851.80045  23718658.455    23718659.8474   23718667.8694
      4301.020        3351.444
  -7503667.005 9  -5836257.04948  19564945.808    19564947.2304   19564953.8034
      1083.710         844.449
  -2948611.892 8  -2273543.37846  23868392.298    23868393.5364   23868401.1224
      4118.829        3209.477
  -1836906.356 9  -1418168.05046  23218461.044    23218462.7264   23218470.1674
      -714.772        -556.965
 97  5 19 16 20 59.9970000  0  7 26  2 27  4  7  9 15               -0.002202191
  -4440489.565 9  -3435026.23648  22022221.509    22022223.2814   22022229.6664
        82.974          64.655
  -2548224.490 9  -1980110.34848  20516295.656    20516296.6574   20516302.8654
       266.373         207.563
   3483545.629 9   2714954.22348  20899791.404    20899792.3514   20899798.9314
     -1950.377       -1519.774
  -8063348.293 8  -6240380.76945  23694107.845    23694109.6154   23694117.4054
      4301.116        3351.519
  -7535922.516 9  -5861391.21248  19558807.888    19558809.1914   19558815.7484
      1068.026         832.228
  -3072091.641 8  -2369761.28546  23844894.429    23844895.9344   23844903.6784
      4114.695        3206.256
  -1815153.041 9  -1401217.43046  23222600.624    23222602.3054   23222609.7154
      -733.992        -571.942
 97  5 19 16 21 29.9970000  0  7 26  2 27  4  7  9 15               -0.002217185
  -4442715.498 9  -3436760.74248  22021797.898    22021799.7524   22021806.0744
        66.142          51.539
  -2556114.011 9  -1986258.02548  20514794.285    20514795.3064   20514801.5294
       260.277         202.813
   3542273.908 9   2760716.50448  20910967.265    20910968.0134   20910974.5824
     -1964.173       -1530.524
  -8192380.917 9  -6340925.58645  23669553.524    23669555.5164   23669563.0724
      4301.655        3351.939
  -7567725.724 9  -5886172.92348  19552756.028    19552757.2494   19552763.8094
      1052.904         820.445
  -3195465.761 8  -2465896.92246  23821417.285    23821418.6954   23821426.5064
      4111.147        3203.491
  -1792847.101 9  -1383836.19046  23226845.711    23226847.0224   23226854.4244
      -752.375        -586.266
 97  5 19 16 21 59.9970000  0  7 26  2 27  4  7  9 15               -0.002232152
  -4444427.708 9  -3438094.95348  22021472.145    22021473.9994   22021480.2604
        48.725          37.968
  -2563804.748 9  -1992250.80648  20513330.656    20513331.7914   20513338.0474
       253.043         197.176
   3601429.855 9   2806812.02748  20922223.940    20922224.9904   20922231.5634
     -1978.748       -1541.882
  -8321406.867 8  -6441465.19945  23645000.723    23645002.5634   23645010.1564
      4300.653        3351.158
  -7599054.362 9  -5910584.84248  19546794.310    19546795.6094   19546802.1524
      1036.202         807.430
  -3318720.833 9  -2561939.78646  23797962.775    23797964.0374   23797971.7854
      4106.666        3199.999
  -1769977.955 9  -1366016.08646  23231198.162    23231198.9594   23231206.2984
      -771.524        -601.188
 97  5 19 16 22 29.9970000  0  7 26  2 27  4  7  9 15               -0.002247124
  -4445659.854 9  -3439055.08648  22021237.731    22021239.5404   22021245.8164
        32.275          25.149
  -2571314.555 9  -1998102.60348  20511901.657    20511902.7234   20511908.9724
       246.516         192.090
   3660972.799 9   2853209.10748  20933554.636    20933555.6674   20933562.2354
     -1991.940       -1552.161
  -8450444.336 8  -6542013.78345  23620445.649    23620447.3244   23620454.9644
      4300.922        3351.368
  -7629915.035 9  -5934632.10948  19540921.768    19540923.0164   19540929.5674
      1020.248         794.998
  -3441892.240 9  -2657917.43946  23774524.306    23774525.3314   23774533.0864
      4103.803        3197.769
  -1746578.765 9  -1347782.96246  23235650.986    23235651.6234   23235659.0554
      -789.467        -615.169
 97  5 19 16 22 59.9970000  0  7 26  2 27  4  7  9 15               -0.002262074
  -4446358.796 9  -3439599.75048  22021104.682    22021106.5254   22021112.8234
        14.156          11.031
  -2578591.196 9  -2003772.71148  20510516.878    20510518.0164   20510524.2554
       238.380         185.751
   3720956.231 9   2899949.41748  20944968.949    20944970.1554   20944976.7254
     -2007.257       -1564.096
  -8579457.614 8  -6642543.52745  23595895.348    23595896.9134   23595904.5484
      4299.689        3350.407
  -7660266.840 9  -5958282.86448  19535145.974    19535147.2634   19535153.7944
      1003.057         781.603
  -3564949.987 9  -2753806.53846  23751106.437    23751108.0764   23751115.8754
      4099.921        3194.744
  -1722609.155 9  -1329105.35846  23240212.009    23240212.9534   23240220.3634
      -808.659        -630.124
 97  5 19 16 23 29.9970000  0  7 26  2 27  4  7  9 15               -0.002277005
  -4446528.457 9  -3439731.98048  22021072.449    22021074.2684   22021080.5604
        -2.609          -2.033
  -2585640.804 9  -2009265.91248  20509175.359    20509176.5324   20509182.7654
       231.919         180.716
   3781381.056 9   2947033.67248  20956467.360    20956468.6514   20956475.2124
     -2020.803       -1574.652
  -8708449.549 8  -6743056.63145  23571347.541    23571350.5804   23571357.9494
      4299.978        3350.632
  -7690117.424 9  -5981543.05348  19529465.370    19529466.8434   19529473.4074
       987.356         769.368
  -3687912.266 9  -2849621.24346  23727707.542    23727709.0494   23727716.9594
      4097.863        3193.140
  -1698074.356 9  -1309987.34246  23244880.385    23244881.7844   23244889.1334
      -826.695        -644.178
 97  5 19 16 23 59.9970000  0  7 26  2 27  4  7  9 15               -0.002291942
  -4446208.595 9  -3439482.76448  22021133.360    22021135.1724   22021141.5164
       -18.765         -14.622
  -2592508.457 9  -2014617.33148  20507868.686    20507869.6804   20507875.8874
       225.935         176.053
   3842196.419 9   2994422.24648  20968040.292    20968041.4564   20968048.0124
     -2033.362       -1584.438
  -8837466.645 8  -6843589.34845  23546796.037    23546799.4114   23546806.8144
      4301.195        3351.581
  -7719511.485 9  -6004447.51248  19523871.899    19523873.3184   19523879.8794
       972.196         757.555
  -3810825.417 9  -2945397.67846  23704318.066    23704319.3644   23704327.1934
      4096.409        3192.007
  -1673014.336 9  -1290460.06646  23249649.387    23249650.5524   23249657.8714
      -843.942        -657.617
 97  5 19 16 24 29.9970000  0  7 26  2 27  4  7  9 15               -0.002306876
  -4445363.696 9  -3438824.42748  22021294.176    22021295.9244   22021302.2704
       -35.755         -27.861
  -2599162.464 9  -2019802.26948  20506602.273    20506603.4604   20506609.6644
       219.388         170.952
   3903418.131 9   3042127.44748  20979690.530    20979691.5954   20979698.1504
     -2046.462       -1594.646
  -8966494.638 8  -6944130.54945  23522243.302    23522246.1134   23522253.5964
      4302.245        3352.399
  -7748417.692 9  -6026971.81948  19518371.237    19518372.6434   19518379.2304
       956.533         745.350
  -3933666.973 9  -3041118.34546  23680942.198    23680943.4194   23680951.1364
      4094.485        3190.508
  -1647403.299 9  -1270503.42046  23254522.954    23254524.1824   23254531.5174
      -861.867        -671.585
 97  5 19 16 24 59.9970000  0  7 26  2 27  4  7  9 15               -0.002321834
  -4444041.633 9  -3437794.26848  22021545.725    22021547.4764   22021553.7974
       -52.571         -40.964
  -2605652.397 9  -2024859.35848  20505367.334    20505368.4784   20505374.6824
       213.027         165.995
   3965006.775 9   3090118.58048  20991410.318    20991411.5354   20991418.1104
     -2059.467       -1604.779
  -9095570.287 8  -7044708.87245  23497680.458    23497683.6054   23497691.4784
      4302.434        3352.546
  -7776875.413 9  -6049146.66048  19512955.944    19512957.3614   19512963.9034
       940.438         732.809
  -4056470.501 9  -3136809.35746  23657573.517    23657574.6304   23657582.2704
      4092.167        3188.702
  -1621275.678 9  -1250144.24446  23259494.576    23259496.0914   23259503.4204
      -880.219        -685.885
 97  5 19 16 25 29.9970000  0  7 26  2 27  4  7  9 15               -0.002336779
  -4442189.298 9  -3436350.91348  22021898.349    22021899.9874   22021906.3094
       -71.922         -56.043
  -2611927.081 9  -2029748.72448  20504173.395    20504174.4754   20504180.6564
       204.319         159.210
   4026995.973 9   3138421.82548  21003206.418    21003207.7074   21003214.2634
     -2074.052       -1616.144
  -9224620.954 8  -7145267.75945  23473123.793    23473126.0594   23473133.9094
      4299.948        3350.609
  -7804824.559 9  -6070925.20748  19507637.591    19507638.8444   19507645.3804
       921.962         718.412
  -4179181.468 9  -3232428.26446  23634221.936    23634223.4074   23634230.9794
      4087.468        3185.040
  -1594572.995 9  -1229336.95246  23264576.280    23264577.5034   23264584.6124
      -900.944        -702.034
 97  5 19 16 25 59.9970000  0  7 26  2 27  4  7  9 15               -0.002351717
  -4439813.554 9  -3434499.71048  22022350.405    22022352.1054   22022358.4084
       -85.808         -66.863
  -2617992.791 9  -2034475.25148  20503019.047    20503020.2084   20503026.3954
       200.751         156.429
   4089370.988 9   3187025.71048  21015075.627    21015077.2954   21015083.8234
     -2083.688       -1623.653
  -9353647.974 8  -7245808.21446  23448570.471    23448572.9784   23448580.8464
      4302.527        3352.618
  -7832276.763 9  -6092316.53448  19502413.575    19502414.8664   19502421.3854
       908.833         708.182
  -4301797.970 9  -3327973.54446  23610888.786    23610890.2194   23610897.8374
      4087.561        3185.112
  -1567303.946 9  -1208088.35546  23269765.408    23269766.6104   23269773.8024
      -916.341        -714.032
 97  5 19 16 26 29.9970000  0  7 26  2 27  4  7  9 15               -0.002366658
  -4436946.376 9  -3432265.56448  22022895.974    22022897.7514   22022904.0114
      -104.500         -81.428
  -2623881.501 9  -2039063.85748  20501898.451    20501899.6374   20501905.8104
       192.574         150.058
   4152113.322 9   3235915.81248  21027015.169    21027016.7874   21027023.2864
     -2098.507       -1635.200
  -9482671.537 8  -7346345.97346  23424018.273    23424020.4884   23424028.4564
      4299.639        3350.368
  -7859267.304 9  -6113348.11848  19497277.379    19497278.7534   19497285.2504
       891.368         694.572
  -4424339.810 9  -3423460.66846  23587569.865    23587571.2914   23587578.8204
      4082.323        3181.031
  -1539496.095 9  -1186419.90146  23275056.847    23275058.2994   23275065.4174
      -936.807        -729.979
 97  5 19 16 26 59.9970000  0  7 26  2 27  4  7  9 15               -0.002381563
  -4433558.022 9  -3429625.30648  22023540.821    22023542.5284   22023548.8464
      -121.010         -94.294
  -2629560.677 9  -2043489.19148  20500817.961    20500818.9884   20500825.0924
       186.307         145.174
   4215259.001 9   3285120.21648  21039031.571    21039033.0654   21039039.5494
     -2110.923       -1644.875
  -9611640.541 8  -7446841.21746  23399477.182    23399478.4014   23399486.4014
      4298.634        3349.585
  -7885782.499 9  -6134009.30548  19492231.880    19492233.0914   19492239.5874
       876.800         683.221
  -4546754.077 9  -3518848.36246  23564275.558    23564276.7134   23564284.0764
      4078.966        3178.415
  -1511113.555 9  -1164303.64646  23280458.475    23280459.3754   23280466.4234
      -954.943        -744.111
 97  5 19 16 27 29.9970000  0  7 26  2 27  4  7  9 15               -0.002396438
  -4429667.593 9  -3426593.84048  22024281.152    22024282.9034   22024289.2254
      -137.396        -107.062
  -2635034.775 9  -2047754.72148  20499776.245    20499777.3064   20499783.4334
       179.577         139.930
   4278792.894 9   3334627.12048  21051121.749    21051123.1764   21051129.6954
     -2123.900       -1654.987
  -9740571.745 8  -7547307.01046  23374942.383    23374943.5294   23374951.5054
      4297.655        3348.822
  -7911866.645 9  -6154334.60348  19487268.113    19487269.4334   19487275.9374
       862.893         672.384
  -4669051.526 9  -3614145.02846  23541003.208    23541004.3174   23541011.5354
      4075.035        3175.352
  -1482183.843 9  -1141761.03346  23285964.051    23285964.4974   23285971.6114
      -972.813        -758.036
 97  5 19 16 27 59.9970000  0  7 26  2 27  4  7  9 15               -0.002411282
  -4425295.309 9  -3423186.88548  22025113.123    22025114.9524   22025121.2534
      -153.894        -119.917
  -2640308.592 9  -2051864.18848  20498772.456    20498773.7214   20498779.8584
       172.246         134.218
   4342721.857 9   3384441.87048  21063287.025    21063288.5004   21063294.9984
     -2137.920       -1665.912
  -9869469.995 8  -7647747.12146  23350414.552    23350414.9654   23350422.8144
      4295.693        3347.293
  -7937528.902 9  -6174331.16348  19482384.618    19482386.0484   19482392.5674
       848.017         660.792
  -4791227.131 9  -3709346.77546  23517754.303    23517755.1024   23517762.2234
      4070.263        3171.634
  -1452720.641 9  -1118802.71846  23291570.954    23291571.1334   23291578.3014
      -991.204        -772.367
 97  5 19 16 28 29.9970000  0  7 26  2 27  4  7  9 15               -0.002426096
  -4420440.662 9  -3419404.07048  22026037.049    22026038.7864   22026045.1084
      -170.492        -132.851
  -2645379.370 9  -2055815.44848  20497807.721    20497808.8244   20497814.9484
       164.930         128.517
   4407054.015 9   3434570.79648  21075528.792    21075530.5344   21075537.0334
     -2151.727       -1676.670
  -9998317.749 8  -7748147.89446  23325895.758    23325896.1264   23325903.9424
      4293.269        3345.404
  -7962755.160 9  -6193987.98348  19477584.307    19477585.7024   19477592.1744
       832.781         648.920
  -4913272.095 9  -3804446.69546  23494529.774    23494530.6544   23494537.7954
      4065.250        3167.727
  -1422719.642 9  -1095425.32546  23297279.882    23297280.2314   23297287.2784
     -1009.651        -786.741
 97  5 19 16 28 59.9970000  0  7 26  2 27  4  7  9 15               -0.002440884
  -4415105.875 9  -3415247.12248  22027052.220    22027053.9914   22027060.3304
      -186.234        -145.117
  -2650239.049 9  -2059602.21148  20496882.922    20496884.0614   20496890.1794
       157.950         123.078
   4471786.619 9   3485011.76348  21087846.892    21087848.7464   21087855.2764
     -2164.980       -1686.997
 -10127102.092 8  -7848499.24146  23301388.611    23301389.2254   23301397.0124
      4291.408        3343.954
  -7987525.367 9  -6213289.43548  19472870.528    19472872.0744   19472878.5754
       817.456         636.979
  -5035179.764 9  -3899439.65846  23471331.132    23471332.2964   23471339.4334
      4060.982        3164.401
  -1392179.035 9  -1071627.47746  23303091.528    23303091.8924   23303098.9774
     -1027.444        -800.606
 97  5 19 16 29 29.9970000  0  7 26  2 27  4  7  9 15               -0.002455625
  -4409253.020 9  -3410686.47748  22028165.995    22028167.8044   22028174.1034
      -205.020        -159.756
  -2654845.283 9  -2063191.48148  20496006.298    20496007.5024   20496013.6324
       148.224         115.499
   4536978.027 9   3535810.23748  21100252.539    21100254.2994   21100260.7744
     -2182.038       -1700.289
 -10255785.302 8  -7948771.79946  23276901.267    23276901.5754   23276909.4224
      4286.524        3340.149
  -8011778.794 9  -6232188.20548  19468255.284    19468256.7974   19468263.2774
       798.190         621.966
  -5156920.095 9  -3994302.20246  23448164.095    23448165.8944   23448173.0194
      4054.029        3158.984
  -1361058.135 9  -1047377.44446  23309013.929    23309013.9934   23309021.0674
     -1048.376        -816.916
 97  5 19 16 29 59.9970000  0  7 26  2 27  4  7  9 15               -0.002470331
  -4402873.154 9  -3405715.18348  22029379.979    22029381.8704   22029388.1834
      -221.578        -172.658
  -2659204.604 9  -2066588.35648  20495177.017    20495177.9584   20495184.0774
       141.130         109.971
   4602634.191 9   3586970.86248  21112746.442    21112748.2624   21112754.7834
     -2196.235       -1711.352
 -10384369.343 9  -8048967.09246  23252432.374    23252432.8944   23252440.5104
      4284.577        3338.631
  -8035479.767 9  -6250656.49248  19463745.208    19463746.6514   19463753.1414
       780.903         608.496
  -5278486.990 9  -4089029.61046  23425030.524    23425032.4484   23425039.5804
      4049.329        3155.321
  -1329341.808 9  -1022663.44146  23315048.771    23315049.4404   23315056.5614
     -1067.223        -831.602
 97  5 19 16 30 29.9970000  0  7 26  2 27  4  7  9 15               -0.002485027
  -4396004.089 9  -3400362.70348  22030687.071    22030689.0104   22030695.3294
      -235.905        -183.822
  -2663360.086 9  -2069826.39848  20494386.130    20494387.2084   20494393.3324
       136.296         106.205
   4668699.808 9   3638450.53847  21125318.273    21125320.1634   21125326.6944
     -2207.618       -1720.222
 -10512917.583 9  -8149134.48546  23227970.477    23227970.9984   23227978.5174
      4285.861        3339.632
  -8058686.717 9  -6268739.82748  19459329.136    19459330.5394   19459337.0094
       766.709         597.436
  -5399927.095 9  -4183658.22546  23401921.018    23401923.1164   23401930.1154
      4047.191        3153.655
  -1297076.025 9   -997521.30546  23321188.497    23321189.4694   23321196.6014
     -1083.298        -844.128
 97  5 19 16 30 59.9970000  0  7 26  2 27  4  7  9 15               -0.002499745
  -4388685.336 9  -3394659.79948  22032079.910    22032081.7554   22032088.0994
      -252.160        -196.488
  -2667351.676 9  -2072936.72448  20493626.267    20493627.6274   20493633.7724
       129.747         101.102
   4735119.928 9   3690206.45247  21137957.188    21137959.4934   21137966.0534
     -2220.407       -1730.187
 -10641503.205 9  -8249331.00546  23203501.397    23203501.8954   23203509.4584
      4286.416        3340.064
  -8081464.029 9  -6286488.37548  19454994.573    19454996.1114   19455002.6144
       751.837         585.847
  -5521291.249 9  -4278227.65046  23378826.197    23378828.2054   23378835.1564
      4043.622        3150.874
  -1264314.167 9   -971992.61046  23327422.462    23327423.8314   23327430.9974
     -1100.912        -857.854
 97  5 19 16 31 29.9970000  0  7 26  2 27  4  7  9 15               -0.002514438
  -4380838.556 9  -3388545.45648  22033573.114    22033574.9274   22033581.3684
      -269.740        -210.187
  -2671113.686 9  -2075868.16548  20492910.530    20492911.7734   20492917.9074
       122.308          95.305
   4801955.583 9   3742286.15847  21150675.780    21150677.8934   21150684.4674
     -2233.920       -1740.717
 -10770074.546 9  -8349516.40146  23179034.736    23179035.5054   23179043.1404
      4286.056        3339.784
  -8103760.115 9  -6303861.94848  19450751.953    19450753.2644   19450759.7464
       735.775         573.331
  -5642510.872 9  -4372684.44746  23355758.976    23355760.8154   23355767.7334
      4038.748        3147.076
  -1230994.159 9   -946028.99746  23333763.390    23333764.4154   23333771.7194
     -1119.340        -872.213
 97  5 19 16 31 59.9970000  0  7 26  2 27  4  7  9 15               -0.002529136
  -4372505.690 9  -3382052.34648  22035158.793    22035160.6094   22035167.0694
      -285.559        -222.514
  -2674696.130 9  -2078659.68148  20492228.969    20492230.0914   20492236.2104
       116.733          90.961
   4869135.355 9   3794634.00447  21163459.870    21163461.8274   21163468.3784
     -2244.569       -1749.015
 -10898671.635 9  -8449721.85446  23154563.628    23154564.2804   23154571.8984
      4287.126        3340.618
  -8125629.963 9  -6320903.38348  19446590.224    19446591.5554   19446598.0264
       722.525         563.006
  -5763621.712 9  -4467056.48746  23332711.843    23332714.1884   23332721.1534
      4035.553        3144.587
  -1197167.549 9   -919670.61146  23340200.755    23340201.4114   23340208.8004
     -1135.531        -884.829
 97  5 19 16 32 29.9970000  0  7 26  2 27  4  7  9 15               -0.002543821
  -4363666.449 9  -3375164.64648  22036840.865    22036842.6664   22036849.1064
      -303.476        -236.475
  -2678079.993 9  -2081296.45548  20491584.904    20491586.1534   20491592.2964
       109.131          85.037
   4936670.458 9   3847258.73547  21176311.725    21176313.3614   21176319.8934
     -2257.605       -1759.173
 -11027257.816 9  -8549918.82546  23130093.921    23130095.1064   23130102.7094
      4285.356        3339.238
  -8147066.029 9  -6337606.80748  19442510.900    19442512.3864   19442518.8314
       706.551         550.559
  -5884605.998 9  -4561329.88446  23309689.455    23309691.5264   23309698.6584
      4030.106        3140.342
  -1162825.744 9   -892910.78946  23346735.761    23346736.4514   23346743.7874
     -1153.835        -899.092
 97  5 19 16 32 59.9970000  0  7 26  2 27  4  7  9 15               -0.002558474
  -4354295.232 9  -3367862.42548  22038624.173    22038625.9764   22038632.4064
      -321.665        -250.648
  -2681239.844 9  -2083758.67748  20490983.559    20490984.8454   20490990.9974
       101.011          78.710
   5004597.997 9   3900189.25847  21189238.132    21189239.5494   21189246.1484
     -2271.476       -1769.981
 -11155776.944 9  -8650063.53846  23105637.064    23105638.6784   23105646.2064
      4281.894        3336.541
  -8168013.240 9  -6353929.30448  19438524.881    19438526.2474   19438532.6964
       689.401         537.196
  -6005412.022 9  -4655464.39946  23286701.313    23286702.9894   23286709.9114
      4023.227        3134.982
  -1127932.373 9   -865721.18246  23353376.359    23353376.4964   23353383.7254
     -1172.990        -914.018
 97  5 19 16 33 29.9970000  0  7 26  2 27  4  7  9 15               -0.002573097
  -4344410.136 9  -3360159.78248  22040505.284    22040507.0604   22040513.5484
      -338.681        -263.907
  -2684174.971 9  -2086045.79848  20490425.234    20490426.3314   20490432.4664
        93.337          72.730
   5072920.520 9   3953427.56447  21202239.234    21202240.8944   21202247.5544
     -2284.751       -1780.325
 -11284199.692 9  -8750133.15246  23081199.243    23081200.6154   23081208.1414
      4278.067        3333.559
  -8188461.135 9  -6369862.73048  19434633.795    19434635.1554   19434641.5854
       672.449         523.986
  -6126037.121 9  -4749457.92446  23263746.974    23263748.7024   23263755.6484
      4017.196        3130.283
  -1092484.739 9   -838099.67146  23360121.840    23360122.0324   23360129.1454
     -1191.561        -928.489
 97  5 19 16 33 59.9970000  0  7 26  2 27  4  7  9 15               -0.002587676
  -4334002.940 9  -3352050.30648  22042485.721    22042487.5394   22042494.0124
      -354.415        -276.168
  -2686872.013 9  -2088147.39148  20489911.914    20489913.1034   20489919.2344
        87.031          67.816
   5141656.018 9   4006987.66347  21215319.258    21215320.8314   21215327.5124
     -2297.121       -1789.964
 -11412481.166 9  -8850092.68346  23056788.772    23056789.5194   23056796.8444
      4274.706        3330.940
  -8208394.120 9  -6385394.91948  19430840.520    19430842.0434   19430848.4914
       657.083         512.013
  -6246474.846 9  -4843305.44546  23240828.219    23240830.0704   23240837.1174
      4012.589        3126.693
  -1056469.133 9   -810035.57646  23366975.279    23366975.5114   23366982.7284
     -1208.879        -941.984
 97  5 19 16 34 29.9970000  0  7 26  2 27  4  7  9 15               -0.002602236
  -4323128.697 9  -3343576.90448  22044555.036    22044556.8664   22044563.3124
      -369.635        -288.027
  -2689363.365 9  -2090088.70648  20489437.714    20489438.9954   20489445.1464
        79.869          62.236
   5210778.433 9   4060849.25447  21228472.630    21228474.4074   21228481.1094
     -2310.141       -1800.110
 -11540662.771 9  -8949974.38946  23032396.338    23032397.3524   23032404.6464
      4271.706        3328.602
  -8227859.151 9  -6400562.47048  19427136.278    19427137.9884   19427144.4684
       641.505         499.874
  -6366766.856 9  -4937039.43146  23217937.657    23217939.1274   23217946.3824
      4007.671        3122.861
  -1019927.736 9   -781561.79946  23373928.566    23373929.1694   23373936.3554
     -1226.386        -955.625
 97  5 19 16 34 59.9970000  0  7 26  2 27  4  7  9 15               -0.002616774
  -4311793.718 9  -3334744.48248  22046712.045    22046713.8374   22046720.3434
      -385.192        -300.150
  -2691627.641 9  -2091853.07948  20489007.033    20489008.1434   20489014.2804
        71.940          56.057
   5280293.213 9   4115016.58847  21241700.684    21241702.6664   21241709.3434
     -2323.293       -1810.358
 -11668750.514 9  -9049782.96246  23008022.050    23008022.9474   23008030.3504
      4268.450        3326.065
  -8246872.174 9  -6415377.81548  19423518.529    19423519.9084   19423526.3624
       626.962         488.542
  -6486917.228 9  -5030663.03546  23195073.608    23195075.2184   23195082.4924
      4003.406        3119.537
   -982858.636 8   -752676.80446  23380982.605    23380983.2704   23380990.4934
     -1244.014        -969.362
 97  5 19 16 35 29.9970000  0  7 26  2 27  4  7  9 15               -0.002631279
  -4299988.129 9  -3325545.35448  22048958.623    22048960.4184   22048966.9324
      -401.576        -312.916
  -2693648.836 9  -2093428.03648  20488622.597    20488623.5774   20488629.6924
        63.362          49.373
   5350204.872 9   4169493.17947  21255004.508    21255006.4184   21255013.1104
     -2337.062       -1821.087
 -11796737.344 9  -9149512.89846  22983666.628    22983667.7654   22983675.1814
      4264.403        3322.911
  -8265451.121 9  -6429854.91048  19419982.911    19419984.4474   19419990.8954
       611.952         476.846
  -6606946.128 9  -5124191.99346  23172233.256    23172234.4814   23172241.7164
      3998.727        3115.891
   -945262.781 8   -723381.37546  23388136.295    23388137.5554   23388144.7044
     -1262.073        -983.434
 97  5 19 16 35 59.9970000  0  7 26  2 27  4  7  9 15               -0.002645746
  -4287696.904 9  -3315967.81247  22051297.595    22051299.3934   22051305.9104
      -417.480        -325.309
  -2695435.135 9  -2094819.96148  20488282.608    20488283.6464   20488289.7744
        55.853          43.522
   5420518.442 9   4224282.94147  21268384.630    21268386.6534   21268393.3924
     -2350.127       -1831.268
 -11924621.941 9  -9249163.17946  22959330.524    22959332.0964   22959339.4764
      4261.572        3320.705
  -8283593.448 9  -6443991.79048  19416530.399    19416532.0454   19416538.4874
       597.716         465.753
  -6726833.432 9  -5217610.63346  23149419.546    23149420.6574   23149427.9364
      3993.932        3112.155
   -907135.393 8   -693671.76546  23395391.393    23395392.9564   23395400.2734
     -1279.544        -997.047
 97  5 19 16 36 29.9970000  0  7 26  2 27  4  7  9 15               -0.002660197
  -4274953.706 9  -3306038.08147  22053722.567    22053724.3484   22053730.9004
      -432.543        -337.046
  -2697007.505 9  -2096045.18448  20487983.213    20487984.4314   20487990.5734
        48.767          38.000
   5491193.481 9   4279354.37047  21281834.043    21281835.6834   21281842.4494
     -2361.751       -1840.325
 -12052454.257 9  -9348772.72346  22935004.662    22935006.4224   22935013.7134
      4260.074        3319.538
  -8301328.902 9  -6457811.62048  19413155.557    19413157.1104   19413163.5644
       584.208         455.227
  -6846597.680 9  -5310933.37046  23126629.075    23126630.2974   23126637.5524
      3989.957        3109.057
   -868506.493 8   -663571.37246  23402742.256    23402743.8814   23402751.1034
     -1296.078       -1009.931
 97  5 19 16 36 59.9970000  0  7 26  2 27  4  7  9 15               -0.002674618
  -4261720.259 9  -3295726.33948  22056240.852    22056242.6174   22056249.1824
      -449.328        -350.126
  -2698355.764 9  -2097095.78148  20487726.608    20487727.8874   20487733.9994
        41.409          32.267
   5562235.656 9   4334711.87547  21295352.892    21295354.5914   21295361.3614
     -2374.104       -1849.951
 -12180202.696 9  -9448316.89646  22910694.300    22910696.6274   22910704.0044
      4256.668        3316.884
  -8318635.753 9  -6471297.48448  19409862.277    19409863.7564   19409870.2064
       569.657         443.889
  -6966213.088 9  -5404140.13446  23103866.863    23103868.2924   23103875.4624
      3984.608        3104.889
   -829354.838 8   -633063.62146  23410192.385    23410194.1944   23410201.4904
     -1313.756       -1023.706
 97  5 19 16 37 29.9970000  0  7 26  2 27  4  7  9 15               -0.002689021
  -4248015.454 9  -3285047.30347  22058848.814    22058850.5584   22058857.1464
      -464.122        -361.654
  -2699518.099 9  -2098001.50248  20487505.331    20487506.7034   20487512.8294
        36.278          28.269
   5633617.380 9   4390333.96647  21308936.576    21308938.1314   21308944.8764
     -2384.404       -1857.977
 -12307870.956 9  -9547798.60246  22886399.548    22886402.1554   22886409.4134
      4254.817        3315.442
  -8335518.605 9  -6484452.95248  19406649.349    19406651.0644   19406657.5034
       555.952         433.209
  -7085682.486 9  -5497233.12746  23081132.592    23081133.9834   23081141.1364
      3980.004        3101.302
   -789704.707 8   -602167.45146  23417737.704    23417739.2654   23417746.6984
     -1329.553       -1036.015
 97  5 19 16 37 59.9970000  0  7 26  2 27  4  7  9 15               -0.002703412
  -4233835.740 9  -3273998.21447  22061547.087    22061548.8904   22061555.4834
      -480.587        -374.483
  -2700492.430 9  -2098760.72348  20487319.914    20487321.3244   20487327.4464
        28.993          22.592
   5705331.271 9   4446214.88947  21322583.466    21322584.8704   21322591.6294
     -2396.192       -1867.163
 -12435455.441 9  -9647215.01946  22862121.108    22862123.5824   22862130.8094
      4251.339        3312.732
  -8351952.491 9  -6497258.57248  19403522.146    19403523.7924   19403530.2474
       539.986         420.768
  -7204978.777 9  -5590191.24046  23058431.347    23058432.6744   23058439.7464
      3973.577        3096.294
   -749549.020 8   -570877.34246  23425378.982    23425380.6824   23425388.0664
     -1347.073       -1049.667
 97  5 19 16 38 29.9970000  0  7 26  2 27  4  7  9 15               -0.002717810
  -4219208.777 9  -3262600.61547  22064330.586    22064332.3834   22064338.9244
      -495.590        -386.174
  -2701282.254 9  -2099376.17748  20487169.718    20487171.0084   20487177.1434
        22.639          17.641
   5777355.825 9   4502337.88247  21336289.217    21336290.7084   21336297.5004
     -2406.748       -1875.388
 -12562980.019 9  -9746584.78346  22837853.905    22837856.3914   22837863.5444
      4249.044        3310.943
  -8367944.460 9  -6509719.85248  19400479.189    19400480.6434   19400487.0704
       524.979         409.075
  -7324123.270 9  -5683031.06146  23035759.094    23035760.2284   23035767.3644
      3968.205        3092.108
   -708905.826 8   -539207.34646  23433113.025    23433114.8074   23433122.3344
     -1363.535       -1062.495
 97  5 19 16 38 59.9970000  0  7 26  2 27  4  7  9 15               -0.002732207
  -4204128.031 9  -3250849.42547  22067200.398    22067202.1694   22067208.7314
      -510.470        -397.769
  -2701876.921 9  -2099839.55948  20487056.548    20487057.8594   20487063.9944
        16.024          12.486
   5849712.625 9   4558719.76847  21350058.424    21350059.7484   21350066.5874
     -2417.984       -1884.143
 -12690420.814 9  -9845889.22146  22813602.105    22813605.0504   22813612.3334
      4246.150        3308.688
  -8383473.599 9  -6521820.47548  19397523.992    19397525.5474   19397532.0054
       509.392         396.929
  -7443099.544 9  -5775739.80646  23013118.606    23013119.7854   23013126.9224
      3962.740        3087.849
   -667766.171 8   -507150.51646  23440942.253    23440943.4494   23440950.9694
     -1379.956       -1075.290
 97  5 19 16 39 29.9970000  0  7 26  2 27  4  7  9 15               -0.002746621
  -4188619.931 9  -3238765.23147  22070151.507    22070153.2804   22070159.8574
      -522.845        -407.412
  -2702275.839 9  -2100150.41148  20486980.599    20486981.9484   20486988.0754
        11.270           8.782
   5922397.106 9   4615356.98547  21363889.694    21363891.2134   21363898.0094
     -2427.043       -1891.202
 -12817795.021 9  -9945141.80546  22789363.372    22789366.4704   22789373.8264
      4246.069        3308.625
  -8398538.236 9  -6533559.16048  19394657.303    19394658.8814   19394665.3064
       495.617         386.195
  -7561925.177 9  -5868331.15747  22990506.788    22990508.0014   22990515.1224
      3959.636        3085.431
   -626142.734 8   -474716.72046  23448863.235    23448864.1164   23448871.7854
     -1394.333       -1086.493
 97  5 19 16 39 59.9970000  0  7 26  2 27  4  7  9 15               -0.002761062
  -4172688.026 9  -3226350.79047  22073183.232    22073185.0464   22073191.6224
      -538.180        -419.361
  -2702481.068 9  -2100310.33348  20486941.659    20486942.9194   20486949.0344
         3.376           2.631
   5995405.879 9   4672246.90647  21377782.924    21377784.3574   21377791.1684
     -2439.454       -1900.873
 -12945118.253 9 -10044354.66046  22765134.821    22765137.6194   22765144.9644
      4243.066        3306.285
  -8413137.709 9  -6544935.37248  19391879.177    19391880.6874   19391887.1304
       478.814         373.102
  -7680616.927 9  -5960818.19447  22967920.247    22967921.7174   22967928.8094
      3954.166        3081.168
   -584037.179 8   -441907.24046  23456875.428    23456876.5884   23456884.2524
     -1411.717       -1100.039
 97  5 19 16 40 29.9970000  0  7 26  2 27  4  7  9 15               -0.002775513
  -4156319.191 9  -3213595.89347  22076298.084    22076299.9704   22076306.5434
      -553.075        -430.968
  -2702470.893 9  -2100302.41448  20486943.704    20486944.8654   20486950.9844
        -4.006          -3.122
   6068769.139 9   4729413.04947  21391743.722    21391744.9304   21391751.8134
     -2451.425       -1910.201
 -13072374.855 9 -10143515.59746  22740919.138    22740921.3624   22740928.7174
      4240.526        3304.306
  -8427275.639 9  -6555951.94248  19389188.836    19389190.3224   19389196.7364
       463.885         361.469
  -7799171.390 9  -6053198.26647  22945359.905    22945361.5364   22945368.5654
      3949.505        3077.536
   -541439.772 8   -408714.49346  23464981.950    23464982.5314   23464990.3334
     -1428.073       -1112.784
 97  5 19 16 40 59.9970000  0  7 26  2 27  4  7  9 15               -0.002789954
  -4139487.132 9  -3200480.03647  22079501.091    22079502.9984   22079509.6264
      -569.056        -443.420
  -2702234.279 9  -2100118.04448  20486988.654    20486989.8914   20486996.0534
       -11.706          -9.122
   6142508.298 9   4786872.09547  21405775.859    21405777.0464   21405783.9684
     -2464.404       -1920.315
 -13199529.244 9 -10242596.88746  22716722.128    22716724.5354   22716732.0014
      4236.503        3301.171
  -8440960.775 9  -6566615.68048  19386584.491    19386586.1154   19386592.5514
       448.575         349.539
  -7917581.371 9  -6145465.73946  22922827.072    22922828.8654   22922835.8614
      3944.532        3073.661
   -498339.974 8   -375130.27646  23473182.683    23473184.2514   23473191.9104
     -1445.183       -1126.117
 97  5 19 16 41 29.9970000  0  7 26  2 27  4  7  9 15               -0.002804382
  -4122192.388 9  -3187003.64447  22082792.193    22082794.0834   22082800.7944
      -583.281        -454.505
  -2701786.733 9  -2099769.31148  20487073.864    20487075.0724   20487081.2474
       -17.341         -13.512
   6216615.603 9   4844618.01847  21419878.244    21419879.2274   21419886.1604
     -2475.234       -1928.754
 -13326580.533 9 -10341597.83846  22692545.846    22692547.4104   22692554.9184
      4234.231        3299.401
  -8454207.703 9  -6576937.96348  19384063.683    19384065.2854   19384071.7314
       435.434         339.299
  -8035858.962 9  -6237630.06746  22900319.683    22900321.3554   22900328.3994
      3941.317        3071.156
   -454740.529 8   -341156.73346  23481478.949    23481481.0124   23481488.6874
     -1460.600       -1138.130
 97  5 19 16 41 59.9970000  0  7 26  2 27  4  7  9 15               -0.002818808
  -4104456.335 9  -3173183.38547  22086167.182    22086169.1294   22086175.9024
      -598.270        -466.184
  -2701161.615 9  -2099282.21448  20487192.946    20487194.0744   20487200.2304
       -23.698         -18.466
   6291054.769 9   4902622.52147  21434043.560    21434044.5534   21434051.4304
     -2486.725       -1937.708
 -13453540.545 9 -10440527.67346  22668386.697    22668387.7964   22668395.1504
      4230.427        3296.437
  -8467058.704 9  -6586951.72948  19381618.337    19381619.8394   19381626.2834
       422.189         328.978
  -8154021.473 9  -6329704.69946  22877833.903    22877835.6974   22877842.8524
      3936.913        3067.724
   -410669.651 9   -306815.84646  23489865.132    23489867.3804   23489875.0914
     -1476.612       -1150.607
 97  5 19 16 42 29.9970000  0  7 26  2 27  4  7  9 15               -0.002833210
  -4086273.822 9  -3159015.21747  22089627.168    22089629.1784   22089635.9304
      -613.846        -478.322
  -2700340.567 9  -2098642.43948  20487349.113    20487350.3084   20487356.4604
       -30.926         -24.098
   6365842.518 9   4960898.65447  21448275.004    21448276.2314   21448283.0604
     -2498.937       -1947.224
 -13580381.734 9 -10539364.90746  22644248.573    22644250.6844   22644258.0174
      4225.599        3292.675
  -8479522.547 9  -6596663.81148  19379246.293    19379248.0244   19379254.4534
       408.573         318.369
  -8272045.824 9  -6421671.69346  22855374.351    22855376.3404   22855383.4354
      3931.331        3063.375
   -366121.404 9   -272102.95646  23498342.428    23498344.6244   23498352.3514
     -1493.197       -1163.530
 97  5 19 16 42 59.9970000  0  7 26  2 27  4  7  9 15               -0.002847595
  -4067655.944 9  -3144507.81647  22093170.057    22093172.0474   22093178.7764
      -627.548        -488.998
  -2699334.848 9  -2097858.76848  20487540.367    20487541.6894   20487547.8564
       -36.511         -28.450
   6440962.686 9   5019433.81247  21462569.328    21462571.1544   21462578.0214
     -2509.164       -1955.193
 -13707099.578 9 -10638106.03146  22620134.818    22620136.9744   22620144.4134
      4222.068        3289.923
  -8491593.171 9  -6606069.49748  19376949.316    19376951.0004   19376957.4174
       395.870         308.470
  -8389926.093 9  -6513526.43446  22832942.729    22832944.4284   22832951.4544
      3926.947        3059.959
   -321103.713 8   -237024.28846  23506909.238    23506911.2514   23506918.9644
     -1508.296       -1175.295
 97  5 19 16 43 29.9970000  0  7 26  2 27  4  7  9 15               -0.002861945
  -4048575.260 9  -3129639.78347  22096800.949    22096802.9654   22096809.6914
      -643.923        -501.758
  -2698089.620 9  -2096888.46548  20487777.305    20487778.6384   20487784.8354
       -45.999         -35.843
   6516432.379 9   5078241.32847  21476930.629    21476932.6254   21476939.4944
     -2521.694       -1964.956
 -13833661.238 9 -10736725.46246  22596051.276    22596053.1024   22596060.5364
      4215.922        3285.134
  -8503224.702 9  -6615133.02848  19374736.007    19374737.5894   19374744.0234
       380.173         296.239
  -8507605.649 9  -6605224.74446  22810549.333    22810550.7174   22810557.6784
      3918.780        3053.595
   -275579.189 9   -201550.67046  23515572.023    23515574.3404   23515582.0394
     -1526.150       -1189.208
 97  5 19 16 43 59.9970000  0  7 26  2 27  4  7  9 15               -0.002876394
  -4029043.501 9  -3114420.26547  22100517.802    22100519.7774   22100526.4664
      -658.123        -512.823
  -2696591.126 9  -2095720.81648  20488062.673    20488063.7764   20488069.9884
       -53.997         -42.076
   6592252.400 9   5137321.81647  21491358.444    21491360.7314   21491367.6214
     -2533.147       -1973.881
 -13960076.728 9 -10835230.99046  22571995.062    22571997.0894   22572004.4864
      4211.788        3281.913
  -8514424.576 9  -6623860.19748  19372604.756    19372606.3654   19372612.7524
       366.430         285.530
  -8625064.996 9  -6696751.46146  22788197.716    22788198.8764   22788205.8944
      3911.845        3048.191
   -229556.103 9   -165688.56846  23524330.260    23524332.2624   23524339.9724
     -1542.076       -1201.618
 97  5 19 16 44 29.9970000  0  7 26  2 27  4  7  9 15               -0.002890670
  -4009076.637 9  -3098861.69747  22104317.434    22104319.4114   22104326.0314
      -673.320        -524.665
  -2694833.479 9  -2094351.22548  20488397.198    20488398.2354   20488404.4234
       -63.415         -49.414
   6668428.121 9   5196679.48247  21505854.487    21505856.5104   21505863.3994
     -2545.379       -1983.412
 -14086361.420 9 -10933634.60346  22547963.265    22547965.9514   22547973.2534
      4206.923        3278.122
  -8525194.207 9  -6632252.12348  19370555.280    19370557.0134   19370563.4274
       351.162         273.633
  -8742302.943 9  -6788105.67646  22765887.997    22765889.2754   22765896.2044
      3903.687        3041.834
   -183044.717 9   -129445.95546  23533181.497    23533183.1124   23533190.8444
     -1559.049       -1214.843
 97  5 19 16 44 59.9970000  0  7 26  2 27  4  7  9 15               -0.002904901
  -3988667.680 9  -3082958.64847  22108201.229    22108203.1854   22108209.7064
      -686.286        -534.768
  -2692810.464 9  -2092774.85348  20488782.064    20488783.2224   20488789.4354
       -70.322         -54.796
   6744949.244 9   5256306.29747  21520415.908    21520418.0334   21520424.8854
     -2554.940       -1990.862
 -14212514.560 9 -11031935.71146  22523957.180    22523959.7564   22523967.0604
      4204.315        3276.090
  -8535512.906 9  -6640292.66448  19368591.753    19368593.4374   19368599.8514
       337.852         263.261
  -8859303.173 9  -6879274.64946  22743623.390    22743624.8214   22743631.6934
      3897.395        3036.931
   -136035.416 9    -92815.35746  23542127.376    23542128.7104   23542136.5324
     -1573.901       -1226.416
 97  5 19 16 45 29.9970000  0  7 26  2 27  4  7  9 15               -0.002919120
  -3967871.095 9  -3066753.55247  22112158.592    22112160.6304   22112167.2104
      -699.907        -545.382
  -2690586.104 9  -2091041.59348  20489205.122    20489206.5174   20489212.7494
       -77.562         -60.438
   6821757.502 9   5316156.84647  21535032.416    21535034.2214   21535041.0344
     -2565.656       -1999.212
 -14338595.133 9 -11130180.26946  22499965.193    22499967.4544   22499974.7184
      4201.234        3273.689
  -8545436.430 9  -6648025.28248  19366703.519    19366705.0734   19366711.4824
       323.916         252.402
  -8976111.632 9  -6970294.17546  22721395.332    22721396.8814   22721403.7234
      3890.190        3031.317
    -88580.054 9    -55837.17646  23551157.683    23551159.2314   23551167.0074
     -1589.517       -1238.585
 97  5 19 16 45 59.9970000  0  7 26  2 27  4  7  9 15               -0.002933310
  -3946644.644 9  -3050213.50247  22116197.960    22116199.9334   22116206.5454
      -715.239        -557.329
  -2688138.370 9  -2089134.27348  20489670.925    20489672.3044   20489678.5344
       -85.597         -66.699
   6898910.943 9   5376276.37847  21549714.211    21549716.0614   21549722.8644
     -2577.858       -2008.721
 -14464558.413 9 -11228333.44346  22475995.090    22475997.5234   22476004.7244
      4196.079        3269.672
  -8554923.174 9  -6655417.54848  19364898.128    19364899.7774   19364906.1894
       308.471         240.367
  -9092693.138 9  -7061136.86646  22699210.598    22699212.1704   22699218.9244
      3881.991        3024.928
    -40643.171 9    -18483.79946  23560279.621    23560281.3584   23560289.1494
     -1606.340       -1251.694
 97  5 19 16 46 29.9970000  0  7 26  2 27  4  7  9 15               -0.002947491
  -3924981.542 9  -3033333.19347  22120320.397    22120322.3414   22120328.9414
      -729.225        -568.227
  -2685481.256 9  -2087063.80548  20490176.736    20490177.9484   20490184.1794
       -91.774         -71.512
   6976389.904 9   5436649.55447  21564458.285    21564459.8754   21564466.6514
     -2587.675       -2016.370
 -14590387.617 9 -11326382.12546  22452050.227    22452052.9734   22452060.1584
      4192.208        3266.656
  -8563967.180 9  -6662464.83248  19363177.194    19363178.8084   19363185.1814
       294.240         229.278
  -9209059.918 9  -7151812.24046  22677066.491    22677068.2354   22677074.9804
      3875.478        3019.853
      7772.381 9     19242.60046  23569493.145    23569494.5364   23569502.3284
     -1621.675       -1263.643
 97  5 19 16 46 59.9970000  0  7 26  2 27  4  7  9 15               -0.002961685
  -3902914.155 9  -3016137.87147  22124519.771    22124521.6354   22124528.2714
      -741.535        -577.819
  -2682657.013 9  -2084863.10148  20490714.187    20490715.3754   20490721.6234
       -96.211         -74.970
   7054147.633 9   5497239.95147  21579255.355    21579256.6924   21579263.4544
     -2595.946       -2022.815
 -14716107.781 9 -11424345.86146  22428126.682    22428129.2074   22428136.3654
      4189.384        3264.455
  -8572603.945 9  -6669194.78048  19361533.713    19361535.2874   19361541.6994
       281.932         219.687
  -9325241.480 9  -7242343.28846  22654958.219    22654959.6464   22654966.3374
      3870.497        3015.972
     56632.209 9     57315.16046  23578791.070    23578792.2584   23578800.1124
     -1635.295       -1274.256
 97  5 19 16 47 29.9970000  0  7 26  2 27  4  7  9 15               -0.002975890
  -3880444.083 9  -2998628.76947  22128795.681    22128797.5554   22128804.2014
      -755.995        -589.087
  -2679659.478 9  -2082527.36448  20491284.454    20491285.7984   20491292.0444
      -103.462         -80.620
   7132193.337 9   5558054.74347  21594107.303    21594108.3274   21594115.0864
     -2606.825       -2031.292
 -14841708.359 9 -11522216.40447  22404225.942    22404228.2594   22404235.3314
      4184.275        3260.474
  -8580846.189 9  -6675617.31048  19359965.293    19359966.8784   19359973.2654
       267.815         208.687
  -9441256.372 9  -7332744.45746  22632881.391    22632882.6874   22632889.4244
      3864.181        3011.050
    105925.996 9     95725.89246  23588171.055    23588172.6244   23588180.4214
     -1650.686       -1286.249
 97  5 19 16 47 59.9970000  0  7 26  2 27  4  7  9 15               -0.002990106
  -3857573.362 9  -2980807.45747  22133147.843    22133149.7624   22133156.4424
      -769.771        -599.822
  -2676469.385 9  -2080041.58648  20491891.502    20491892.8484   20491899.1224
      -110.325         -85.968
   7210529.855 9   5619096.14347  21609014.781    21609015.3034   21609022.0714
     -2616.532       -2038.856
 -14967176.535 9 -11619983.77747  22380349.660    22380352.4744   22380359.4854
      4179.306        3256.602
  -8588693.464 9  -6681732.07148  19358471.888    19358473.5924   19358479.9914
       254.284         198.143
  -9557115.814 9  -7423024.49946  22610833.639    22610835.3044   22610841.9854
      3858.731        3006.803
    155654.451 9    134475.31346  23597633.982    23597635.6294   23597643.4084
     -1665.604       -1297.873
 97  5 19 16 48 29.9970000  0  7 26  2 27  4  7  9 15               -0.003004332
  -3834298.527 9  -2962671.27047  22137576.871    22137578.8254   22137585.5074
      -781.091        -608.642
  -2673072.639 9  -2077394.78348  20492537.907    20492539.2294   20492545.5224
      -115.413         -89.932
   7289151.546 9   5680359.75147  21623976.041    21623976.5364   21623983.3484
     -2624.274       -2044.889
 -15092507.284 9 -11717644.06547  22356499.814    22356502.7744   22356509.7704
      4176.968        3254.780
  -8596134.536 9  -6687530.31648  19357056.114    19357057.6414   19357064.0104
       242.687         189.107
  -9672814.971 9  -7513179.62247  22588817.291    22588818.4704   22588825.0394
      3855.349        3004.168
    205827.019 9    173570.79746  23607181.590    23607183.1504   23607191.0394
     -1678.450       -1307.883
 97  5 19 16 48 59.9960000  0  7 26  2 27  4  7  9 15               -0.003018572
  -3810638.927 9  -2944235.24747  22142079.093    22142081.1054   22142087.8104
      -795.628        -619.970
  -2669469.141 9  -2074586.87048  20493223.684    20493224.9484   20493231.2404
      -124.102         -96.703
   7368056.115 9   5741843.78847  21638991.046    21638991.6214   21638998.4414
     -2635.484       -2053.624
 -15217715.376 9 -11815208.77347  22332673.778    22332676.4424   22332683.4314
      4171.177        3250.268
  -8603189.715 9  -6693027.85948  19355713.723    19355715.0674   19355721.4544
       228.292         177.890
  -9788369.546 9  -7603222.09947  22566827.911    22566829.1334   22566835.6374
      3849.183        2999.363
    256428.189 9    213000.26946  23616811.344    23616812.1834   23616820.0464
     -1694.416       -1320.324
 97  5 19 16 49 29.9960000  0  7 26  2 27  4  7  9 15               -0.003032816
  -3786562.691 9  -2925474.56947  22146660.657    22146662.6844   22146669.3634
      -808.976        -630.371
  -2665630.833 9  -2071595.98948  20493954.077    20493955.3814   20493961.6594
      -131.271        -102.289
   7447277.977 9   5803575.07247  21654066.465    21654067.0734   21654073.8644
     -2645.474       -2061.408
 -15342779.777 9 -11912661.51747  22308874.924    22308877.4854   22308884.4454
      4166.775        3246.838
  -8609826.824 9  -6698199.63348  19354450.537    19354452.0684   19354458.4314
       214.624         167.239
  -9903763.550 9  -7693139.44747  22544868.710    22544870.3244   22544876.8734
      3843.934        2995.273
    307489.708 9    252788.44046  23626528.085    23626528.9974   23626536.7614
     -1709.304       -1331.925
 97  5 19 16 49 59.9960000  0  7 26  2 27  4  7  9 15               -0.003047063
  -3762071.248 9  -2906390.36647  22151321.306    22151323.2734   22151329.9644
      -823.041        -641.331
  -2661568.101 9  -2068430.23548  20494727.092    20494728.4924   20494734.7904
      -138.794        -108.151
   7526809.158 9   5865547.38247  21669200.206    21669201.3644   21669208.1714
     -2655.769       -2069.430
 -15467688.987 9 -12009993.31847  22285105.087    22285108.0274   22285114.9984
      4161.270        3242.548
  -8616038.584 9  -6703039.96548  19353268.386    19353270.0044   19353276.3754
       200.332         156.103
 -10018969.575 9  -7782910.36147  22522945.652    22522947.3174   22522953.7594
      3837.113        2989.958
    359013.271 9    292936.64446  23636332.633    23636333.5704   23636341.5584
     -1724.798       -1343.998
 97  5 19 16 50 29.9960000  0  7 26  2 27  4  7  9 15               -0.003061304
  -3737178.311 9  -2886993.30647  22156058.450    22156060.2794   22156067.0024
      -835.693        -651.189
  -2657293.036 9  -2065099.02148  20495540.561    20495542.0124   20495548.3264
      -145.332        -113.246
   7606633.201 9   5927747.89347  21684389.976    21684391.4444   21684398.2494
     -2664.980       -2076.608
 -15592452.529 9 -12107211.63147  22261363.392    22261366.2464   22261373.1964
      4157.093        3239.293
  -8621848.178 9  -6707566.92648  19352163.000    19352164.4434   19352170.7974
       187.912         146.425
 -10133982.110 9  -7872530.47447  22501060.132    22501061.0764   22501067.5634
      3831.258        2985.396
    410978.286 9    333428.83845  23646221.418    23646222.2244   23646230.1784
     -1738.683       -1354.818
 97  5 19 16 50 59.9960000  0  7 26  2 27  4  7  9 15               -0.003075522
  -3711870.996 9  -2867273.34747  22160874.356    22160876.1854   22160882.8964
      -849.730        -662.127
  -2652791.641 9  -2061591.45248  20496397.281    20496398.5934   20496404.9004
      -152.951        -119.183
   7686763.115 9   5990186.73747  21699638.128    21699639.6794   21699646.4874
     -2675.217       -2084.585
 -15717048.501 9 -12204299.36447  22237654.266    22237656.3424   22237663.3744
      4150.990        3234.538
  -8627257.611 9  -6711782.07148  19351133.541    19351135.0554   19351141.4024
       174.350         135.857
 -10248782.739 9  -7961985.46647  22479213.870    22479215.2024   22479221.7254
      3823.729        2979.529
    463391.534 9    374270.33345  23656195.516    23656196.0704   23656204.1014
     -1753.812       -1366.607
 97  5 19 16 51 29.9960000  0  7 26  2 27  4  7  9 15               -0.003089739
  -3686184.655 9  -2847258.04947  22165762.278    22165764.1574   22165770.8954
      -862.084        -671.754
  -2648105.951 9  -2057940.27148  20497288.846    20497290.2374   20497296.5464
      -158.950        -123.857
   7767161.607 9   6052834.87247  21714937.200    21714939.0034   21714945.8644
     -2684.071       -2091.484
 -15841499.338 9 -12301274.00547  22213972.071    22213974.1264   22213981.1404
      4146.151        3230.767
  -8632294.770 9  -6715707.13348  19350174.889    19350176.5114   19350182.8534
       162.095         126.308
 -10363391.442 9  -8051290.92447  22457404.472    22457405.8904   22457412.3534
      3817.421        2974.614
    516218.191 9    415433.93445  23666247.774    23666248.7474   23666256.5304
     -1767.422       -1377.212
 97  5 19 16 51 59.9960000  0  7 26  2 27  4  7  9 15               -0.003103941
  -3660119.900 9  -2826947.88047  22170722.119    22170724.1344   22170730.9014
      -876.044        -682.632
  -2643221.823 9  -2054134.46448  20498218.265    20498219.6774   20498226.0124
      -167.250        -130.325
   7847837.090 9   6115698.84347  21730289.686    21730291.0604   21730297.9434
     -2694.837       -2099.873
 -15965792.384 9 -12398125.68946  22190319.477    22190321.9034   22190328.9264
      4139.620        3225.678
  -8636958.183 9  -6719340.96448  19349287.699    19349289.0964   19349295.4024
       148.203         115.483
 -10477796.768 9  -8140437.90247  22435633.956    22435635.2674   22435641.7494
      3809.163        2968.179
    569461.249 9    456922.00945  23676379.784    23676380.5384   23676388.3624
     -1782.652       -1389.079
 97  5 19 16 52 29.9960000  0  7 26  2 27  4  7  9 15               -0.003118122
  -3633664.332 9  -2806333.18947  22175756.424    22175758.5034   22175765.2504
      -888.789        -692.563
  -2638113.189 9  -2050153.71548  20499190.562    20499191.8344   20499198.1654
      -174.321        -135.835
   7928804.918 9   6178790.61747  21745697.497    21745698.7764   21745705.6794
     -2704.163       -2107.140
 -16089925.931 9 -12494853.08146  22166697.390    22166699.9414   22166707.0144
      4134.815        3221.934
  -8641231.123 9  -6722670.53248  19348474.653    19348475.9734   19348482.3064
       135.424         105.525
 -10591985.620 9  -8229416.19247  22413904.400    22413905.8204   22413912.4034
      3802.271        2962.809
    623133.561 8    498744.55745  23686592.962    23686594.1274   23686601.9284
     -1796.708       -1400.032
 97  5 19 16 52 59.9960000  0  7 26  2 27  4  7  9 15               -0.003132228
  -3606712.217 9  -2785331.57047  22180885.236    22180887.3364   22180894.0544
      -908.198        -707.687
  -2632686.022 9  -2045924.76248  20500223.107    20500224.6044   20500230.9394
      -187.748        -146.297
   8010166.400 9   6242189.12747  21761180.330    21761181.3304   21761188.2314
     -2720.211       -2119.645
 -16213798.893 9 -12591377.41946  22143125.327    22143127.6864   22143134.7064
      4122.982        3212.713
  -8644999.939 9  -6725607.27948  19347757.375    19347758.8074   19347765.1394
       115.542          90.033
 -10705851.901 9  -8318143.13047  22392236.252    22392237.7704   22392244.4144
      3788.398        2951.998
    677339.901 8    540983.24445  23696908.247    23696909.4314   23696916.9764
     -1817.401       -1416.157
 97  5 19 16 53 29.9960000  0  7 26  2 27  4  7  9 15               -0.003146243
  -3579246.208 9  -2763929.52047  22186111.944    22186113.9714   22186120.6794
      -921.932        -718.389
  -2626915.008 9  -2041427.88048  20501321.094    20501322.8114   20501329.1294
      -195.921        -152.666
   8091946.135 9   6305913.54847  21776742.640    21776743.5294   21776750.3974
     -2730.777       -2127.878
 -16337374.215 9 -12687669.83946  22119609.861    22119612.0584   22119619.0714
      4116.369        3207.560
  -8648231.425 9  -6728125.32448  19347142.333    19347143.9054   19347150.2394
       100.915          78.635
 -10819356.522 9  -8406588.27347  22370636.930    22370638.5374   22370645.1664
      3779.556        2945.109
    732106.552 8    583658.52445  23707329.807    23707331.1544   23707338.7484
     -1832.767       -1428.130
 97  5 19 16 53 59.9960000  0  7 26  2 27  4  7  9 15               -0.003160260
  -3551413.286 9  -2742241.56447  22191408.363    22191410.4034   22191417.0594
      -934.011        -727.801
  -2620955.581 9  -2036784.17748  20502455.098    20502456.8494   20502463.1644
      -201.846        -157.282
   8173987.697 9   6369841.99147  21792354.659    21792355.5464   21792362.4714
     -2739.241       -2134.474
 -16460803.713 9 -12783848.62546  22096121.844    22096124.1224   22096131.2264
      4111.831        3204.024
  -8651081.273 9  -6730345.98748  19346599.945    19346601.5784   19346607.9054
        88.584          69.026
 -10932639.650 9  -8494860.80647  22349079.854    22349081.4534   22349088.0144
      3772.218        2939.391
    787282.797 8    626652.99345  23717829.117    23717830.9714   23717838.3934
     -1846.147       -1438.556
 97  5 19 16 54 29.9960000  0  7 26  2 27  4  7  9 15               -0.003174273
  -3523205.428 9  -2720261.45247  22196776.133    22196778.1844   22196784.8134
      -945.540        -736.784
  -2614815.763 9  -2031999.91748  20503623.671    20503625.2244   20503631.5284
      -206.671        -161.042
   8256292.131 9   6433975.26447  21808016.597    21808017.5774   21808024.5264
     -2746.888       -2140.432
 -16584078.454 9 -12879906.82447  22072663.445    22072665.6374   22072672.7504
      4107.379        3200.555
  -8653557.248 9  -6732275.32648  19346128.904    19346130.4274   19346136.7554
        77.415          60.323
 -11045696.372 9  -8582956.92347  22327565.872    22327567.4894   22327574.0534
      3765.803        2934.392
    842870.392 8    669967.97845  23728407.619    23728408.7794   23728416.3284
     -1858.954       -1448.535
 97  5 19 16 54 59.9960000  0  7 26  2 27  4  7  9 15               -0.003188270
  -3494616.829 9  -2697984.65247  22202216.454    22202218.4634   22202225.0704
      -959.435        -747.612
  -2608490.050 9  -2027070.80248  20504827.655    20504828.9934   20504835.2784
      -214.212        -166.918
   8338872.887 9   6498323.85647  21823731.389    21823732.2634   21823739.1894
     -2757.539       -2148.732
 -16707167.388 9 -12975820.23647  22049240.429    22049242.5384   22049249.6674
      4099.413        3194.348
  -8655660.632 9  -6733914.32448  19345728.585    19345730.1564   19345736.4964
        63.659          49.604
 -11158523.166 9  -8670873.86847  22306095.723    22306097.2004   22306103.8024
      3756.970        2927.509
    898879.378 8    713611.33645  23739065.473    23739067.1604   23739074.4724
     -1874.194       -1460.411
 97  5 19 16 55 29.9960000  0  7 26  2 27  4  7  9 15               -0.003202256
  -3465643.102 9  -2675407.75147  22207730.112    22207732.0434   22207738.6144
      -973.446        -758.529
  -2601970.476 9  -2021990.63048  20506068.309    20506069.6484   20506075.9224
      -221.755        -172.796
   8421739.187 9   6562894.94647  21839500.549    21839501.2294   21839508.1564
     -2768.151       -2157.001
 -16830053.240 9 -13071575.39847  22025856.071    22025858.0164   22025865.1744
      4091.816        3188.428
  -8657386.235 9  -6735258.95648  19345400.260    19345401.8174   19345408.1444
        49.973          38.940
 -11271123.853 9  -8758614.64647  22284668.244    22284669.9974   22284676.5964
      3748.608        2920.993
    955313.647 8    757586.08345  23749805.076    23749806.0744   23749813.7164
     -1889.369       -1472.236
 97  5 19 16 55 59.9960000  0  7 26  2 27  4  7  9 15               -0.003216222
  -3436262.064 9  -2652513.46447  22213321.219    22213323.0824   22213329.6994
      -985.814        -768.167
  -2595227.224 9  -2016736.16048  20507351.665    20507352.8634   20507359.1194
      -228.593        -178.124
   8504913.084 9   6627705.73047  21855327.736    21855328.6944   21855335.6714
     -2777.423       -2164.226
 -16952727.929 9 -13167166.01747  22002511.512    22002513.7974   22002520.9314
      4085.723        3183.680
  -8658715.271 9  -6736294.57348  19345147.492    19345148.9664   19345155.2954
        37.910          29.540
 -11383493.223 9  -8846175.15747  22263285.090    22263286.7814   22263293.4034
      3742.168        2915.975
   1012186.453 8    801902.54845  23760627.725    23760628.4724   23760636.0844
     -1902.817       -1482.715
 97  5 19 16 56 29.9960000  0  7 26  2 27  4  7  9 15               -0.003230200
  -3406528.113 9  -2629344.18347  22218979.404    22218981.3024   22218987.9304
      -996.989        -776.875
  -2588282.964 9  -2011325.06048  20508673.153    20508674.3114   20508680.5814
      -235.033        -183.143
   8588350.227 9   6692721.63247  21871205.501    21871206.2814   21871213.2524
     -2785.579       -2170.581
 -17075232.635 9 -13262624.18647  21979199.537    21979201.9164   21979209.0224
      4080.776        3179.825
  -8659687.088 9  -6737051.83648  19344962.425    19344964.0814   19344970.3604
        26.340          20.525
 -11495689.398 9  -8933600.70047  22241934.762    22241936.5284   22241943.2094
      3736.944        2911.904
   1069447.410 8    846521.40945  23771523.805    23771525.0244   23771532.3234
     -1915.195       -1492.360
 97  5 19 16 56 59.9960000  0  7 26  2 27  4  7  9 15               -0.003244177
  -3376416.401 9  -2605880.53847  22224709.438    22224711.4074   22224718.0914
     -1010.032        -787.038
  -2581086.572 9  -2005717.49348  20510042.236    20510043.7684   20510050.0534
      -244.152        -190.248
   8672082.309 9   6757967.36147  21887139.345    21887140.0434   21887147.0094
     -2795.901       -2178.624
 -17197544.459 9 -13357932.06347  21955924.415    21955926.7444   21955933.8304
      4073.832        3174.415
  -8660253.643 9  -6737493.31148  19344854.741    19344856.2644   19344862.5594
        12.027           9.372
 -11607675.203 9  -9020862.33447  22220624.652    22220626.3404   22220632.9934
      3729.256        2905.914
   1127124.410 8    891464.49745  23782499.653    23782500.6654   23782507.8814
     -1929.468       -1503.482
 97  5 19 16 57 29.9960000  0  7 26  2 27  4  7  9 15               -0.003258157
  -3345934.802 9  -2582128.67547  22230509.805    22230511.8484   22230518.6534
     -1022.868        -797.040
  -2573636.540 9  -1999912.28948  20511459.616    20511461.4704   20511467.7954
      -253.389        -197.446
   8756091.500 9   6823429.01547  21903125.725    21903126.5434   21903133.5384
     -2805.498       -2186.102
 -17319678.979 9 -13453101.77147  21932683.076    21932685.3094   21932692.3974
      4067.603        3169.561
  -8660420.786 9  -6737623.55648  19344822.994    19344824.4444   19344830.7034
        -1.652          -1.287
 -11719450.731 9  -9107960.10647  22199354.139    22199356.0514   22199362.7924
      3721.510        2899.878
   1185203.992 8    936721.30345  23793551.835    23793552.7904   23793560.3034
     -1943.349       -1514.298
 97  5 19 16 57 59.9960000  0  7 26  2 27  4  7  9 15               -0.003272127
  -3315094.915 9  -2558097.62647  22236378.379    22236380.4474   22236387.3444
     -1032.890        -804.849
  -2565928.660 9  -1993906.16148  20512926.445    20512928.2304   20512934.6104
      -260.198        -202.752
   8840358.696 9   6889091.72347  21919161.211    21919162.1064   21919169.1984
     -2812.070       -2191.223
 -17441645.417 9 -13548140.51547  21909473.711    21909475.8624   21909482.9094
      4063.416        3166.298
  -8660202.701 9  -6737453.62248  19344864.242    19344865.9254   19344872.1874
       -12.753          -9.937
 -11831011.751 9  -9194890.73147  22178125.053    22178126.6914   22178133.4254
      3715.855        2895.471
   1243678.906 8    982286.13845  23804678.056    23804680.1374   23804687.9844
     -1954.871       -1523.276
 97  5 19 16 58 29.9960000  0  7 26  2 27  4  7  9 15               -0.003286112
  -3283927.634 9  -2533811.47547  22242309.259    22242311.4194   22242318.3384
     -1044.773        -814.109
  -2557998.226 9  -1987726.61948  20514435.784    20514437.3424   20514443.7254
      -268.280        -209.049
   8924846.192 9   6954926.07947  21935238.961    21935239.6104   21935246.7044
     -2820.187       -2197.548
 -17563454.244 9 -13643056.44947  21886294.431    21886296.4224   21886303.4064
      4057.297        3161.530
  -8659619.205 9  -6736998.95448  19344975.254    19344976.9664   19344983.2514
       -25.851         -20.144
 -11942365.163 9  -9281659.58347  22156935.032    22156936.7744   22156943.4864
      3707.692        2889.111
   1302528.961 8   1028143.23845  23815875.403    23815878.9004   23815886.8924
     -1968.331       -1533.764
 97  5 19 16 58 59.9960000  0  8 26  2 27  4  7  9 24 15            -0.003300098
  -3252419.595 9  -2509259.78847  22248305.142    22248307.2564   22248314.1764
     -1056.747        -823.439
  -2549839.039 9  -1981368.82648  20515988.706    20515990.0284   20515996.3874
      -276.560        -215.501
   9009561.317 9   7020937.81847  21951359.752    21951360.3954   21951367.5004
     -2828.417       -2203.961
 -17685078.651 9 -13737828.67547  21863150.204    21863152.0694   21863159.0204
      4049.807        3155.694
  -8658657.130 9  -6736249.29148  19345158.514    19345160.0794   19345166.3574
       -39.236         -30.574
 -12053479.543 9  -9368242.18247  22135790.562    22135792.3534   22135799.0404
      3698.992        2882.331
  -2936851.24318  -2273887.35355  24002974.743    24002977.9725   24002987.3755
      4323.835        3369.222
   1361770.594 8   1074305.51245  23827150.283    23827152.0614   23827160.1484
     -1982.190       -1544.564
 97  5 19 16 59 29.9960000  0  8 26  2 27  4  7  9 24 15            -0.003314098
  -3220584.983 9  -2484453.63847  22254363.070    22254365.2034   22254372.1474
     -1066.413        -830.971
  -2541472.438 9  -1974849.41648  20517580.691    20517582.1714   20517588.5034
      -282.221        -219.912
   9094488.432 9   7087114.72947  21967520.577    21967521.5234   21967528.6014
     -2834.485       -2208.690
 -17806503.863 9 -13832445.68547  21840043.946    21840045.6314   21840052.5594
      4044.131        3151.271
  -8657329.828 9  -6735215.03548  19345411.277    19345412.6944   19345418.9594
       -50.396         -39.270
 -12164370.011 9  -9454650.30847  22114688.855    22114690.6044   22114697.3054
      3692.637        2877.379
  -3066633.659 8  -2375016.45545  23978279.900    23978281.1574   23978290.5014
      4327.057        3371.733
   1421395.850 8   1120766.70145  23838497.820    23838498.6364   23838506.4734
     -1993.894       -1553.684
 97  5 19 16 59 59.9960000  0  8 26  2 27  4  7  9 24 15            -0.003328132
  -3188447.919 9  -2459411.81447  22260478.696    22260480.7134   22260487.6364
     -1076.416        -838.766
  -2532924.390 9  -1968188.61348  20519207.366    20519208.8184   20519215.1294
      -287.879        -224.321
   9179625.612 9   7153455.34247  21983721.460    21983722.6124   21983729.6804
     -2841.793       -2214.384
 -17927732.791 9 -13926909.74247  21816974.723    21816976.5674   21816983.4244
      4037.413        3146.036
  -8655638.626 9  -6733897.21748  19345733.096    19345734.5384   19345740.7974
       -62.678         -48.840
 -12275045.042 9  -9540890.55047  22093627.969    22093629.7984   22093636.5444
      3685.379        2871.724
  -3196485.153 8  -2476199.38145  23953569.688    23953571.2984   23953580.5894
      4329.070        3373.301
   1481393.712 8   1167518.22445  23849915.761    23849915.9664   23849923.7064
     -2006.281       -1563.336
 97  5 19 17  0 29.9960000  0  8 26  2 27  4  7  9 24 15            -0.003342194
  -3155999.334 9  -2434127.22947  22266653.383    22266655.4834   22266662.4274
     -1086.388        -846.536
  -2524194.575 9  -1961386.16848  20520868.467    20520870.0554   20520876.3864
      -293.662        -228.828
   9265004.756 9   7219984.48947  21999968.487    21999969.7904   21999976.8414
     -2849.687       -2220.535
 -18048743.288 9 -14021203.60047  21793946.899    21793948.9904   21793955.8654
      4030.591        3140.720
  -8653570.183 9  -6732285.44648  19346126.644    19346128.1464   19346134.3814
       -74.544         -58.086
 -12385493.721 9  -9626954.43547  22072610.333    22072612.1124   22072618.8424
      3678.360        2866.255
  -3326385.038 8  -2577420.06745  23928850.609    23928852.4124   23928861.4324
      4331.573        3375.252
   1541776.436 8   1214569.66745  23861406.658    23861406.5484   23861414.0884
     -2018.651       -1572.975
 97  5 19 17  0 59.9960000  0  8 26  2 27  4  7  9 24 15            -0.003356256
  -3123204.386 9  -2408572.75747  22272894.056    22272896.1794   22272903.0804
     -1098.348        -855.856
  -2515245.799 9  -1954413.11348  20522571.475    20522572.9824   20522579.3314
      -301.365        -234.830
   9350668.312 9   7286735.26347  22016269.508    22016271.0624   22016278.1504
     -2859.580       -2228.244
 -18169505.041 9 -14115303.63647  21770966.527    21770968.7934   21770975.5984
      4021.901        3133.949
  -8651111.568 9  -6730369.64748  19346594.642    19346596.0484   19346602.2494
       -87.736         -68.366
 -12495694.473 9  -9712825.10947  22051639.748    22051641.6104   22051648.3744
      3669.943        2859.696
  -3456320.528 8  -2678668.47445  23904124.015    23904125.8014   23904135.1694
      4332.337        3375.847
   1602569.531 8   1261940.87745  23872974.650    23872974.9374   23872982.7274
     -2032.624       -1583.863
 97  5 19 17  1 29.9960000  0  8 26  2 27  4  7  9 24 15            -0.003370334
  -3090095.387 9  -2382773.57847  22279194.598    22279196.6584   22279203.5414
     -1109.439        -864.498
  -2506123.197 9  -1947304.60548  20524307.326    20524308.9694   20524315.3144
      -307.414        -239.543
   9436576.967 9   7353677.01247  22032617.290    22032619.0214   22032626.0924
     -2868.165       -2234.934
 -18290062.911 9 -14209244.79947  21748025.119    21748027.3924   21748034.1914
      4014.925        3128.513
  -8648318.984 9  -6728193.61248  19347126.059    19347127.4894   19347133.6524
       -99.130         -77.244
 -12605688.786 9  -9798534.95547  22030708.373    22030710.4184   22030717.1104
      3662.391        2853.811
  -3586326.291 8  -2779971.58145  23879384.209    23879386.5184   23879395.7604
      4334.353        3377.418
   1663728.563 8   1309597.25446  23884612.968    23884613.1184   23884620.9084
     -2045.176       -1593.644
 97  5 19 17  1 59.9960000  0  8 26  2 27  4  7  9 24 15            -0.003384392
  -3056621.126 9  -2356689.78347  22285564.546    22285566.6124   22285573.5184
     -1121.176        -873.644
  -2496790.127 9  -1940032.10048  20526083.415    20526084.9834   20526091.3524
      -313.871        -244.575
   9522765.610 9   7420836.94047  22049018.660    22049020.2474   22049027.2774
     -2876.557       -2241.473
 -18410392.658 9 -14303008.20947  21725127.294    21725129.4144   21725136.1624
      4008.127        3123.216
  -8645160.280 9  -6725732.28748  19347726.836    19347728.5364   19347734.7034
      -110.310         -85.956
 -12715421.660 9  -9884041.06047  22009826.885    22009828.8944   22009835.6144
      3654.196        2847.425
  -3716379.904 8  -2881312.02445  23854635.716    23854638.1204   23854647.6204
      4336.876        3379.384
   1725288.144 8   1357565.72946  23896327.312    23896327.6564   23896335.3154
     -2057.705       -1603.406
 97  5 19 17  2 29.9960000  0  7 26  2 27  4  7  9 24               -0.003398433
  -3022799.224 9  -2330335.09847  22292000.717    22292002.7454   22292009.6494
     -1133.932        -883.583
  -2487259.462 9  -1932605.61948  20527897.221    20527898.6044   20527904.9974
      -321.921        -250.848
   9609181.499 9   7488173.94147  22065462.947    22065464.6794   22065471.6634
     -2884.796       -2247.893
 -18530530.916 9 -14396622.39847  21702265.831    21702267.8394   21702274.5534
      4000.772        3117.485
  -8641685.429 9  -6723024.61248  19348388.104    19348389.7854   19348395.9254
      -121.787         -94.899
 -12824915.741 9  -9969361.08247  21988990.712    21988992.7744   21988999.5284
      3644.913        2840.192
  -3846530.947 8  -2982728.33445  23829868.302    23829871.1374   23829880.6684
      4339.331        3381.297
 97  5 19 17  2 59.9960000  0  7 26  2 27  4  7  9 24               -0.003412446
  -2988626.779 9  -2303707.25747  22298503.497    22298505.5744   22298512.4754
     -1145.431        -892.544
  -2477519.726 9  -1925016.23248  20529750.739    20529752.0634   20529758.4544
      -328.749        -256.168
   9695804.877 9   7555672.61847  22081946.528    22081948.6404   22081955.6364
     -2891.490       -2253.109
 -18650482.875 9 -14490091.42447  21679439.501    21679441.7694   21679448.4274
      3994.606        3112.680
  -8637898.602 9  -6720073.84148  19349108.857    19349110.3924   19349116.5114
      -132.234        -103.039
 -12934155.022 9 -10054482.58247  21968203.112    21968205.2394   21968211.9334
      3636.333        2833.506
  -3976780.524 8  -3084221.44445  23805082.728    23805085.3424   23805094.9864
      4342.471        3383.744
 97  5 19 17  3 29.9960000  0  7 26  2 27  4  7  9 24               -0.003426414
  -2954078.766 9  -2276786.76347  22305077.822    22305079.8324   22305086.7934
     -1156.585        -901.235
  -2467535.990 9  -1917236.71748  20531650.545    20531651.9244   20531658.3044
      -335.812        -261.672
   9782671.463 9   7623360.81246  22098476.723    22098478.8124   22098485.8884
     -2898.616       -2258.662
 -18770204.764 9 -14583381.18247  21656657.189    21656659.4374   21656666.1124
      3987.961        3107.502
  -8633744.842 9  -6716837.15448  19349899.345    19349900.8674   19349906.9534
      -143.763        -112.023
 -13043087.863 9 -10139365.29947  21947474.166    21947475.9644   21947482.6824
      3627.103        2826.314
  -4107087.161 8  -3185759.02545  23780287.340    23780288.8084   23780298.2904
      4345.585        3386.170
 97  5 19 17  3 59.9960000  0  7 26  2 27  4  7  9 24               -0.003440364
  -2919197.948 9  -2249606.92247  22311715.372    22311717.4374   22311724.4864
     -1168.539        -910.550
  -2457322.516 9  -1909278.17548  20533594.179    20533595.4804   20533601.8904
      -344.915        -268.765
   9869758.606 9   7691220.86046  22115048.877    22115050.9874   22115058.0954
     -2907.093       -2265.267
 -18889719.195 9 -14676509.27047  21633914.537    21633916.5674   21633923.2384
      3979.642        3101.020
  -8629233.425 9  -6713321.76548  19350757.721    19350759.3484   19350765.4414
      -156.730        -122.127
 -13151739.094 9 -10224028.55847  21926797.942    21926800.2834   21926807.0304
      3616.573        2818.109
  -4237477.660 8  -3287361.91645  23755475.361    23755476.1514   23755485.9144
      4347.053        3387.314
 97  5 19 17  4 29.9960000  0  7 26  2 27  4  7  9 24               -0.003454291
  -2883999.713 9  -2222179.76547  22318413.563    22318415.4704   22318422.5174
     -1178.386        -918.223
  -2446867.420 9  -1901131.36348  20535583.566    20535585.0384   20535591.4454
      -352.339        -274.550
   9957069.671 9   7759255.40046  22131663.292    22131665.6774   22131672.8904
     -2914.133       -2270.753
 -19009005.941 9 -14769459.95347  21611214.803    21611217.0454   21611223.6984
      3972.354        3095.341
  -8624364.831 9  -6709528.06148  19351684.403    19351685.8524   19351691.9104
      -168.313        -131.153
 -13260111.234 9 -10308474.36347  21906175.447    21906177.6894   21906184.4124
      3607.974        2811.408
  -4367935.287 8  -3389017.13245  23730649.805    23730650.9794   23730660.6674
      4349.567        3389.273
 97  5 19 17  4 59.9960000  0  7 26  2 27  4  7  9 24               -0.003468220
  -2848493.342 9  -2194512.49047  22325170.122    22325172.1584   22325179.1964
     -1188.866        -926.389
  -2436185.909 9  -1892808.12048  20537616.164    20537617.6764   20537624.0884
      -359.969        -280.495
  10044613.045 9   7827470.96346  22148321.971    22148324.6384   22148331.9174
     -2922.310       -2277.125
 -19128055.275 9 -14862225.63847  21588560.499    21588562.6954   21588569.3564
      3963.960        3088.800
  -8619129.986 9  -6705448.96148  19352680.565    19352682.0154   19352688.0814
      -180.926        -140.981
 -13368223.286 9 -10392717.49547  21885602.356    21885604.6294   21885611.3124
      3599.304        2804.652
  -4498454.111 8  -3490720.02145  23705812.687    23705813.9964   23705823.7724
      4351.340        3390.655
 97  5 19 17  5 29.9960000  0  7 26  2 27  4  7  9 24               -0.003482159
  -2812670.950 9  -2166598.95647  22331986.954    22331989.0194   22331995.9874
     -1198.720        -934.067
  -2425264.757 9  -1884298.14548  20539694.310    20539695.8884   20539702.3054
      -367.352        -286.248
  10132399.859 9   7895876.20746  22165026.934    22165029.9224   22165037.3374
     -2929.397       -2282.647
 -19246846.986 9 -14954790.57547  21565955.375    21565957.3504   21565964.0314
      3956.190        3082.745
  -8613507.997 9  -6701068.19148  19353750.390    19353751.8514   19353757.9144
      -192.939        -150.342
 -13476071.912 9 -10476755.35747  21865079.424    21865081.7174   21865088.3794
      3591.269        2798.391
  -4629022.848 8  -3592461.78545  23680965.961    23680967.4044   23680977.3474
      4353.786        3392.561
 97  5 19 17  5 59.9960000  0  7 26  2 27  4  7  9 24               -0.003496096
  -2776521.884 9  -2138430.86847  22338865.774    22338867.9904   22338874.8994
     -1211.019        -943.651
  -2414098.414 9  -1875597.11548  20541819.175    20541820.7794   20541827.1834
      -376.781        -293.596
  10220421.464 9   7964464.40146  22181776.971    22181779.8884   22181787.2464
     -2938.518       -2289.754
 -19365383.181 9 -15047156.40147  21543398.589    21543400.6174   21543407.3374
      3946.340        3075.070
  -8607512.537 9  -6696396.40648  19354891.271    19354892.7554   19354898.8304
      -206.431        -160.855
 -13583652.671 9 -10560584.49347  21844607.441    21844609.7204   21844616.3324
      3580.816        2790.246
  -4759629.504 8  -3694233.09845  23656111.417    23656113.7494   23656123.6484
      4353.524        3392.356
 97  5 19 17  6 29.9960000  0  7 26  2 27  4  7  9 24               -0.003510026
  -2740040.510 9  -2110003.84247  22345808.046    22345810.2004   22345817.0844
     -1222.614        -952.686
  -2402693.288 9  -1866710.01648  20543989.637    20543991.1634   20543997.5294
      -385.121        -300.094
  10308675.228 9   8033233.50946  22198571.467    22198574.1074   22198581.4074
     -2946.668       -2296.105
 -19483665.291 9 -15139324.24847  21520890.000    21520892.2524   21520898.9584
      3937.630        3068.283
  -8601148.971 9  -6691437.78848  19356102.334    19356103.7294   19356109.7914
      -219.352        -170.924
 -13690955.864 9 -10644197.35447  21824188.594    21824190.6274   21824197.2084
      3571.188        2782.744
  -4890274.463 8  -3796034.24645  23631249.240    23631252.5774   23631262.5814
      4354.512        3393.126
 97  5 19 17  6 59.9960000  0  7 26  2 27  4  7  9 24               -0.003523966
  -2703251.336 9  -2081336.99347  22352808.862    22352810.9434   22352817.8904
     -1230.077        -958.502
  -2391071.194 9  -1857653.85448  20546201.452    20546202.8254   20546209.1904
      -389.883        -303.805
  10397135.720 9   8102163.70646  22215405.490    22215407.6574   22215414.9764
     -2950.886       -2299.392
 -19601725.605 9 -15231319.27147  21498424.070    21498426.0624   21498432.8164
      3932.809        3064.526
  -8594442.308 9  -6686211.82148  19357378.271    19357379.9394   19357385.9994
      -227.901        -177.585
 -13798006.919 9 -10727613.73647  21803817.418    21803819.4874   21803826.0324
      3565.298        2778.154
  -5020990.762 8  -3897890.99245  23606374.845    23606378.0184   23606387.9484
      4359.590        3397.083
 97  5 19 17  7 29.9960000  0  7 26  2 27  4  7  9 24               -0.003537904
  -2666172.022 9  -2052444.06247  22359864.721    22359866.9264   22359873.9074
     -1241.295        -967.243
  -2379230.447 9  -1848427.31048  20548454.842    20548456.0814   20548462.4524
      -398.861        -310.801
  10485794.788 9   8171248.62846  22232277.236    22232278.8974   22232286.3444
     -2959.255       -2305.913
 -19719563.339 9 -15323140.85047  21476000.239    21476002.2344   21476008.9654
      3923.481        3057.258
  -8587411.015 9  -6680732.89648  19358716.320    19358717.9374   19358724.0004
      -240.338        -187.276
 -13904803.912 9 -10810832.14447  21783494.770    21783496.7284   21783503.2444
      3555.021        2770.146
  -5151779.510 8  -3999804.18345  23581488.187    23581489.7694   23581499.6294
      4360.081        3397.466
 97  5 19 17  7 59.9960000  0  7 26  2 27  4  7  9 24               -0.003551835
  -2628788.865 9  -2023314.36647  22366978.564    22366980.8084   22366987.6894
     -1250.176        -974.163
  -2367164.455 9  -1839025.25448  20550751.017    20550752.1494   20550758.5564
      -404.902        -315.508
  10574675.636 9   8240506.37846  22249190.702    22249192.3994   22249199.8474
     -2965.597       -2310.855
 -19837145.736 9 -15414763.47147  21453624.802    21453627.0244   21453633.7754
      3915.976        3051.410
  -8580042.807 9  -6674991.44348  19360118.650    19360120.0754   19360126.1144
      -250.310        -195.047
 -14011331.488 9 -10893840.62147  21763223.442    21763225.2424   21763231.6904
      3547.490        2764.278
  -5282616.804 8  -4101755.20345  23556591.265    23556592.1794   23556602.0054
      4363.137        3399.847
 97  5 19 17  8 29.9960000  0  7 26  2 27  4  7  9 24               -0.003565792
  -2591137.781 9  -1993975.89147  22374143.541    22374145.6114   22374152.4264
     -1259.900        -981.740
  -2354913.053 9  -1829478.71848  20553082.337    20553083.5294   20553089.9384
      -411.895        -320.957
  10663750.775 9   8309915.51146  22266140.953    22266142.8594   22266150.3304
     -2972.648       -2316.349
 -19954498.255 9 -15506206.96247  21431293.304    21431295.5364   21431302.2934
      3907.428        3044.749
  -8572367.615 9  -6669010.77648  19361579.162    19361580.6384   19361586.6604
      -261.308        -203.617
 -14117635.261 9 -10976674.70247  21742994.378    21742996.3144   21743002.7954
      3539.456        2758.018
  -5413550.114 8  -4203781.03545  23531674.886    23531676.2944   23531686.0984
      4365.502        3401.690
 97  5 19 17  8 59.9960000  0  7 26  2 27  4  7  9 24               -0.003579750
  -2553190.812 9  -1964406.87147  22381364.653    22381366.6994   22381373.5634
     -1269.905        -989.536
  -2342440.035 9  -1819759.50048  20555455.743    20555457.0704   20555463.4974
      -419.409        -326.812
  10753048.465 9   8379498.05446  22283133.873    22283135.6814   22283143.1104
     -2980.289       -2322.303
 -20071571.100 9 -15597432.52547  21409014.862    21409017.2864   21409024.0624
      3897.529        3037.035
  -8564360.462 9  -6662771.44048  19363102.640    19363104.3624   19363110.3944
      -272.450        -212.299
 -14223682.464 9 -11059308.86147  21722814.295    21722816.1874   21722822.7124
      3530.421        2750.977
  -5544533.730 8  -4305846.05245  23506749.236    23506750.9514   23506760.7364
      4366.685        3402.612
 97  5 19 17  9 29.9960000  0  7 26  2 27  4  7  9 24               -0.003593689
  -2514914.979 9  -1934581.58347  22388648.128    22388650.3364   22388657.3234
     -1280.240        -997.590
  -2329718.917 9  -1809846.95448  20557876.332    20557877.8164   20557884.2384
      -427.008        -332.733
  10842587.823 9   8449268.91246  22300172.694    22300174.4614   22300181.9174
     -2987.343       -2327.800
 -20188323.940 9 -15688408.72747  21386797.452    21386799.8994   21386806.7214
      3887.788        3029.445
  -8555991.291 9  -6656250.01648  19364695.474    19364696.9704   19364703.0014
      -283.905        -221.225
 -14329424.458 9 -11141705.19847  21702692.501    21702694.1194   21702700.6214
      3520.554        2743.289
  -5675514.145 8  -4407908.61145  23481825.623    23481826.1654   23481836.0244
      4366.892        3402.773
 97  5 19 17  9 59.9960000  0  7 26  2 27  4  7  9 24               -0.003607627
  -2476330.764 9  -1904516.00647  22395990.523    22395992.6984   22395999.7324
     -1291.196       -1006.127
  -2316787.609 9  -1799770.62248  20560336.807    20560338.5404   20560344.9734
      -434.429        -338.516
  10932325.034 9   8519193.95246  22317248.609    22317250.8894   22317258.4234
     -2994.377       -2333.281
 -20304809.074 9 -15779176.33847  21364631.158    21364633.4754   21364640.3364
      3878.719        3022.378
  -8547294.795 9  -6649473.53148  19366350.252    19366351.8794   19366357.9024
      -295.128        -229.970
 -14434878.702 9 -11223877.30547  21682625.330    21682626.8324   21682633.3484
      3510.498        2735.453
  -5806513.157 8  -4509985.65745  23456896.872    23456897.9464   23456907.6654
      4366.983        3402.844
 97  5 19 17 10 29.9960000  0  7 26  2 27  4  7  9 24               -0.003621552
  -2437439.939 9  -1874211.51147  22403391.297    22403393.4134   22403400.4364
     -1301.552       -1014.196
  -2303636.036 9  -1789522.65848  20562839.417    20562841.2074   20562847.6434
      -442.387        -344.717
  11022249.962 9   8589265.25246  22334360.646    22334363.1044   22334370.7024
     -3000.618       -2338.144
 -20421039.110 9 -15869745.16947  21342513.178    21342515.6184   21342522.4034
      3869.779        3015.412
  -8538276.278 9  -6642446.12348  19368066.429    19368068.0424   19368074.0664
      -306.152        -238.560
 -14540039.719 9 -11305820.93647  21662613.838    21662615.3444   21662621.8574
      3500.193        2727.423
  -5937520.141 8  -4612068.89845  23431965.250    23431967.9844   23431977.6244
      4366.403        3402.392
 97  5 19 17 10 59.9960000  0  7 26  2 27  4  7  9 24               -0.003635463
  -2398257.393 9  -1843679.69247  22410847.433    22410849.6534   22410856.6024
     -1311.185       -1021.703
  -2290262.518 9  -1779101.74448  20565384.471    20565386.1354   20565392.5734
      -449.508        -350.266
  11112344.581 9   8659468.78546  22351505.023    22351507.6284   22351515.1694
     -3006.252       -2342.534
 -20537011.981 9 -15960113.61847  21320444.170    21320446.6814   21320453.4414
      3861.338        3008.835
  -8528948.501 9  -6635177.72848  19369841.526    19369843.0584   19369849.0844
      -316.330        -246.491
 -14644905.744 9 -11387534.69347  21642658.290    21642659.9784   21642666.4674
      3490.431        2719.816
  -6068518.820 8  -4714145.65945  23407036.971    23407039.6324   23407049.3364
      4366.336        3402.340
 97  5 19 17 11 29.9960000  0  7 26  2 27  4  7  9 24               -0.003649414
  -2358808.863 9  -1812940.60247  22418354.326    22418356.4164   22418363.3844
     -1319.751       -1028.377
  -2276704.110 9  -1768536.77248  20567964.744    20567966.2254   20567972.6584
      -455.414        -354.868
  11202582.311 9   8729783.82846  22368676.967    22368679.4424   22368686.8564
     -3010.836       -2346.106
 -20652769.245 9 -16050314.05947  21298416.231    21298418.7834   21298425.5804
      3854.681        3003.648
  -8519330.527 9  -6627683.21048  19371671.770    19371673.3174   19371679.2924
      -325.978        -254.009
 -14749506.847 9 -11469042.01747  21622753.354    21622755.0544   21622761.5464
      3481.902        2713.170
  -6199543.337 8  -4816242.59345  23382104.882    23382106.3504   23382116.0664
      4367.533        3403.272
 97  5 19 17 11 59.9960000  0  7 26  2 27  4  7  9 24               -0.003663354
  -2319078.136 9  -1781981.65047  22425914.734    22425916.9514   22425923.9244
     -1327.655       -1034.536
  -2262946.256 9  -1757816.38148  20570582.783    20570584.2694   20570590.6894
      -460.779        -359.048
  11292997.181 9   8800236.90946  22385882.624    22385884.9224   22385892.3444
     -3015.650       -2349.857
 -20768287.354 9 -16140328.14447  21276433.658    21276436.3864   21276443.1884
      3847.457        2998.018
  -8509391.655 9  -6619938.63548  19373562.965    19373564.6084   19373570.6324
      -335.401        -261.351
 -14853832.293 9 -11550334.54847  21602900.936    21602902.5654   21602909.0364
      3474.284        2707.234
  -6330588.586 8  -4918355.68545  23357168.593    23357169.4354   23357178.7604
      4369.756        3405.005
 97  5 19 17 12 29.9960000  0  7 26  2 27  4  7  9 24               -0.003677326
  -2279108.519 9  -1750836.53947  22433520.725    22433522.9344   22433529.9244
     -1336.913       -1041.750
  -2249000.457 9  -1746949.54148  20573236.756    20573238.0884   20573244.5234
      -468.737        -365.250
  11383567.380 9   8870811.01446  22403117.953    22403119.9634   22403127.3094
     -3022.278       -2355.022
 -20883564.799 9 -16230154.70147  21254497.241    21254499.7844   21254506.5724
      3837.843        2990.527
  -8499152.240 9  -6611959.87648  19375511.542    19375513.1354   19375519.1384
      -347.089        -270.459
 -14957904.855 9 -11631430.02447  21583096.709    21583098.2694   21583104.6684
      3464.039        2699.251
  -6461677.819 8  -5020503.03845  23332223.085    23332223.9474   23332233.2424
      4369.423        3404.745
 97  5 19 17 12 59.9960000  0  7 26  2 27  4  7  9 24               -0.003691303
  -2238860.002 9  -1719474.09947  22441179.846    22441182.0004   22441189.0714
     -1345.797       -1048.673
  -2234825.978 9  -1735904.50448  20575934.119    20575935.4424   20575941.8694
      -475.790        -370.745
  11474338.677 9   8941541.83046  22420391.007    22420393.2654   22420400.6324
     -3028.618       -2359.962
 -20998560.461 9 -16319761.68247  21232614.292    21232616.8074   21232623.5714
      3829.060        2983.683
  -8488562.651 9  -6603708.25148  19377526.715    19377528.2814   19377534.2634
      -358.363        -279.244
 -15061671.598 9 -11712287.19847  21563350.594    21563352.0884   21563358.4504
      3454.256        2691.628
  -6592769.938 8  -5122652.63946  23307275.904    23307277.9104   23307287.1214
      4370.400        3405.506
 97  5 19 17 13 29.9960000  0  7 26  2 27  4  7  9 24               -0.003705283
  -2198337.133 9  -1687897.89647  22448891.144    22448893.2734   22448900.3424
     -1355.472       -1056.212
  -2220420.234 9  -1724679.27448  20578675.518    20578676.7764   20578683.2074
      -484.610        -377.618
  11565306.484 9   9012425.75946  22437701.686    22437703.9554   22437711.3914
     -3035.673       -2365.459
 -21113283.152 9 -16409155.95947  21210783.289    21210785.7984   21210792.5844
      3819.127        2975.943
  -8477626.770 9  -6595186.79248  19379607.787    19379609.3174   19379615.3214
      -370.459        -288.669
 -15165133.779 9 -11792907.05547  21543662.199    21543663.8914   21543670.2514
      3443.398        2683.167
  -6723877.462 8  -5224814.25146  23282327.224    23282328.7984   23282338.1284
      4370.060        3405.242
 97  5 19 17 13 59.9960000  0  7 26  2 27  4  7  9 24               -0.003719243
  -2157533.042 9  -1656102.54947  22456655.963    22456658.1014   22456665.1254
     -1363.105       -1062.160
  -2205744.488 9  -1713243.64148  20581468.038    20581469.4944   20581475.9134
      -492.115        -383.466
  11656476.555 9   9083467.29846  22455051.124    22455053.1154   22455060.6364
     -3040.509       -2369.228
 -21227701.483 9 -16498313.06747  21189010.386    21189012.6884   21189019.4914
      3810.652        2969.339
  -8466339.568 9  -6586391.57648  19381755.706    19381757.2204   19381763.2114
      -380.126        -296.202
 -15268274.909 9 -11873276.74047  21524034.701    21524036.7424   21524043.1464
      3434.383        2676.142
  -6854974.667 8  -5326967.82646  23257380.514    23257381.6704   23257390.9594
      4371.394        3406.281
 97  5 19 17 14 29.9960000  0  7 26  2 27  4  7  9 24               -0.003733181
  -2116471.554 9  -1624106.62147  22464469.647    22464471.8944   22464478.9064
     -1374.641       -1071.149
  -2190815.417 9  -1701610.61548  20584308.814    20584310.4104   20584316.8504
      -503.156        -392.070
  11747808.809 9   9154635.21446  22472431.238    22472433.0874   22472440.6504
     -3048.577       -2375.515
 -21341853.983 9 -16587263.04347  21167288.114    21167290.1964   21167296.9704
      3799.293        2960.488
  -8454742.953 9  -6577355.25748  19383962.472    19383963.9794   19383969.9834
      -393.220        -306.405
 -15371121.663 9 -11953417.03147  21504463.609    21504465.6324   21504472.0604
      3421.887        2666.405
  -6986087.851 8  -5429133.87146  23232429.967    23232431.7034   23232440.9444
      4369.239        3404.602
 97  5 19 17 14 59.9960000  0  7 26  2 27  4  7  9 24               -0.003747103
  -2075123.971 9  -1591887.74647  22472337.747    22472340.0624   22472347.1344
     -1382.632       -1077.376
  -2175622.737 9  -1689772.18548  20587199.669    20587201.4864   20587207.9364
      -510.534        -397.819
  11839319.443 9   9225942.12046  22489845.627    22489847.0734   22489854.6464
     -3052.917       -2378.896
 -21455723.063 9 -16675992.17047  21145619.419    21145621.6344   21145628.3224
      3790.942        2953.981
  -8442820.100 9  -6568064.72448  19386231.277    19386232.8384   19386238.8494
      -402.426        -313.579
 -15473660.221 9 -12033317.17547  21484951.184    21484953.1204   21484959.6774
      3413.038        2659.510
  -7117212.546 8  -5531308.86546  23207477.234    23207479.4864   23207488.6234
      4371.460        3406.332
 97  5 19 17 15 29.9960000  0  7 26  2 27  4  7  9 24               -0.003760994
  -2033495.202 9  -1559449.78247  22480259.591    22480261.7884   22480268.8844
     -1392.643       -1085.176
  -2160164.819 9  -1677727.07448  20590141.096    20590143.0254   20590149.5094
      -519.908        -405.123
  11930998.763 9   9297380.47846  22507292.125    22507293.2004   22507300.6754
     -3059.182       -2383.778
 -21569286.540 9 -16764483.16047  21124008.722    21124011.2144   21124017.8574
      3779.745        2945.256
  -8430585.976 9  -6558531.64948  19388559.387    19388560.8894   19388566.9024
      -413.374        -322.110
 -15575884.373 9 -12112972.33147  21465498.627    21465500.4724   21465507.0424
      3401.668        2650.650
  -7248356.669 9  -5633499.00945  23182520.946    23182523.5334   23182532.7024
      4371.176        3406.111
 97  5 19 17 15 59.9960000  0  7 26  2 27  4  7  9 24               -0.003774885
  -1991623.299 9  -1526822.36947  22488227.793    22488229.8244   22488236.8794
     -1400.785       -1091.521
  -2144490.734 9  -1665513.52248  20593123.706    20593125.7134   20593132.2024
      -526.903        -410.574
  12022814.704 9   9368925.29546  22524764.488    22524765.3104   22524772.7944
     -3063.962       -2387.503
 -21682562.698 9 -16852750.27347  21102452.826    21102455.4914   21102462.1224
      3769.961        2937.632
  -8418070.259 9  -6548779.14848  19390940.984    19390942.5254   19390948.5114
      -423.031        -329.635
 -15677807.553 9 -12192392.96647  21446103.383    21446105.0784   21446111.6764
      3391.121        2642.432
  -7379542.589 9  -5735721.73745  23157557.222    23157559.7654   23157568.7404
      4372.465        3407.116
 97  5 19 17 16 29.9960000  0  7 26  2 27  4  7  9 24               -0.003788789
  -1949517.927 9  -1494013.02047  22496240.184    22496242.2304   22496249.2734
     -1407.575       -1096.812
  -2128620.709 9  -1653147.29048  20596143.522    20596145.6844   20596152.1734
      -532.508        -414.941
  12114770.874 9   9440579.37046  22542262.721    22542264.0004   22542271.4584
     -3067.929       -2390.594
 -21795540.861 9 -16940785.18147  21080953.880    21080956.4624   21080963.0684
      3760.243        2930.059
  -8405270.723 9  -6538805.49148  19393376.623    19393378.1484   19393384.1304
      -431.779        -336.451
 -15779418.982 9 -12271570.67347  21426767.455    21426769.0744   21426775.6644
      3381.486        2634.924
  -7510770.168 9  -5837976.93345  23132585.696    23132587.9184   23132596.8154
      4374.389        3408.615
 97  5 19 17 16 59.9960000  0  7 26  2 27  4  7  9 24               -0.003802689
  -1907156.241 9  -1461003.95547  22504300.967    22504303.3694   22504310.4954
     -1416.671       -1103.899
  -2112521.916 9  -1640602.79348  20599207.060    20599209.2194   20599215.7224
      -540.849        -421.441
  12206908.069 9   9512374.50446  22559795.906    22559797.1824   22559804.7094
     -3074.628       -2395.814
 -21908147.762 9 -17028530.79147  21059525.417    21059528.0884   21059534.6484
      3746.871        2919.640
  -8392151.623 9  -6528582.82248  19395873.026    19395874.6384   19395880.6174
      -442.946        -345.153
 -15880673.803 9 -12350470.50647  21407499.227    21407500.9134   21407507.4904
      3368.732        2624.986
  -7641986.258 9  -5940223.18845  23107616.034    23107618.2844   23107627.0104
      4372.970        3407.509
 97  5 19 17 17 29.9960000  0  7 26  2 27  4  7  9 24               -0.003816590
  -1864554.904 9  -1427808.14447  22512407.504    22512410.2004   22512417.3104
     -1423.893       -1109.527
  -2096211.700 9  -1627893.55048  20602310.732    20602312.9544   20602319.4954
      -547.012        -426.243
  12299219.613 9   9584305.49046  22577362.249    22577363.5054   22577371.1464
     -3079.928       -2399.944
 -22020392.654 9 -17115994.31447  21038166.126    21038168.5714   21038175.1394
      3735.761        2910.983
  -8378731.913 9  -6518125.91348  19398426.771    19398428.3544   19398434.3504
      -452.304        -352.445
 -15981577.867 9 -12429097.03047  21388297.637    21388299.4794   21388305.9674
      3357.898        2616.544
  -7773183.637 9  -6042454.85645  23082649.694    23082652.1894   23082660.7714
      4372.735        3407.326
 97  5 19 17 17 59.9960000  0  7 26  2 27  4  7  9 24               -0.003830519
  -1821741.746 9  -1394447.27247  22520554.513    22520557.3134   22520564.4194
     -1430.782       -1114.895
  -2079720.599 9  -1615043.36248  20605448.954    20605451.1044   20605457.6434
      -552.858        -430.798
  12391684.004 8   9656355.58146  22594957.459    22594958.8804   22594966.6044
     -3084.738       -2403.692
 -22132323.600 9 -17203213.20747  21016866.602    21016868.7944   21016875.3774
      3725.955        2903.341
  -8365031.741 9  -6507450.46248  19401033.868    19401035.4514   19401041.4414
      -461.384        -359.520
 -16082176.789 9 -12507485.77247  21369154.145    21369156.0854   21369162.5374
      3348.361        2609.112
  -7904378.803 8  -6144684.79145  23057683.545    23057686.4344   23057695.1384
      4373.237        3407.717
 97  5 19 17 18 29.9960000  0  7 26  2 27  4  7  9 24               -0.003844470
  -1778687.080 9  -1360898.21347  22528747.583    22528750.2664   22528757.4224
     -1439.475       -1121.669
  -2063024.415 9  -1602033.36948  20608626.350    20608628.3294   20608634.8494
      -560.094        -436.437
  12484318.346 8   9728538.09246  22612584.961    22612586.5944   22612594.4524
     -3090.557       -2408.226
 -22243927.714 9 -17290177.43247  20995629.104    20995631.2464   20995637.7814
      3714.696        2894.568
  -8351033.829 9  -6496543.00348  19403697.588    19403699.1534   19403705.1554
      -471.578        -367.463
 -16182467.894 9 -12585634.66647  21350069.268    21350071.2664   21350077.7184
      3337.917        2600.974
  -8035561.105 8  -6246904.68345  23032719.694    23032723.1284   23032731.9504
      4372.479        3407.126
 97  5 19 17 18 59.9960000  0  7 26  2 27  4  7  9 24               -0.003858465
  -1735401.986 9  -1327169.61047  22536984.793    22536987.1504   22536994.3014
     -1446.093       -1126.826
  -2046147.298 9  -1588882.38648  20611837.873    20611839.9274   20611846.4634
      -565.055        -440.303
  12577088.991 8   9800826.80846  22630238.085    22630240.3674   22630248.1104
     -3094.026       -2410.929
 -22355248.155 9 -17376920.61347  20974445.214    20974447.6594   20974454.1574
      3706.989        2888.563
  -8336762.520 9  -6485422.51348  19406413.434    19406414.9304   19406420.9154
      -479.812        -373.879
 -16282482.452 9 -12663568.06647  21331037.155    21331039.0834   21331045.5174
      3329.795        2594.645
  -8166768.366 8  -6349144.04045  23007751.769    23007755.2554   23007764.0354
      4374.549        3408.739
 97  5 19 17 19 29.9960000  0  7 26  2 27  4  7  9 24               -0.003872474
  -1691851.177 9  -1293233.95147  22545272.549    22545274.6154   22545281.7474
     -1455.203       -1133.924
  -2029045.769 9  -1575556.54248  20615092.217    20615094.2524   20615100.7884
      -573.183        -446.636
  12670027.299 8   9873246.17546  22647923.601    22647926.0294   22647933.7694
     -3099.783       -2415.415
 -22466279.653 9 -17463438.63947  20953316.578    20953319.0344   20953325.5434
      3696.885        2880.690
  -8322168.564 9  -6474050.60648  19409190.537    19409192.1024   19409198.0804
      -491.182        -382.739
 -16382187.471 9 -12741260.26847  21312063.870    21312065.8364   21312072.3294
      3319.211        2586.398
  -8297964.619 8  -6451374.81745  22982786.766    22982789.4004   22982798.1834
      4373.733        3408.104
 97  5 19 17 19 59.9960000  0  7 26  2 27  4  7  9 24               -0.003886517
  -1648060.460 9  -1259111.35247  22553605.872    22553607.7584   22553614.8604
     -1463.309       -1140.241
  -2011716.522 9  -1562053.24948  20618389.947    20618391.9264   20618398.4734
      -581.249        -452.921
  12763104.964 8   9945774.13346  22665635.868    22665638.2074   22665645.8694
     -3104.590       -2419.161
 -22577028.847 9 -17549736.68847  20932241.599    20932244.1584   20932250.6034
      3686.910        2872.917
  -8307252.090 9  -6462427.38148  19412029.041    19412030.6334   19412036.6034
      -502.318        -391.417
 -16481601.753 9 -12818725.92147  21293146.074    21293147.9594   21293154.4584
      3308.921        2578.380
  -8429162.839 8  -6553607.12345  22957821.249    22957823.0864   22957831.9234
      4373.406        3407.849
 97  5 19 17 20 29.9960000  0  7 26  2 27  4  7  9 24               -0.003900589
  -1604040.968 9  -1224810.49447  22561982.662    22561984.4694   22561991.5894
     -1470.876       -1146.137
  -1994151.569 9  -1548366.29248  20621732.414    20621734.4314   20621740.9834
      -589.605        -459.432
  12856317.391 8  10018407.08846  22683374.278    22683375.9324   22683383.7474
     -3109.284       -2422.819
 -22687467.407 9 -17635792.68747  20911225.761    20911228.3984   20911234.8254
      3676.099        2864.493
  -8292015.407 9  -6450554.64648  19414928.452    19414930.0924   19414936.0614
      -513.129        -399.841
 -16580705.956 9 -12895949.96147  21274287.284    21274289.0614   21274295.5794
      3298.437        2570.211
  -8560353.277 8  -6655833.37545  22932856.389    22932858.2624   22932867.0574
      4372.710        3407.306
 97  5 19 17 20 59.9960000  0  7 26  2 27  4  7  9 24               -0.003914694
  -1559846.167 9  -1190373.03247  22570392.753    22570394.5504   22570401.6994
     -1474.494       -1148.956
  -1976362.596 9  -1534504.77948  20625117.536    20625119.5654   20625126.1204
      -595.391        -463.941
  12949636.703 8  10091123.33246  22701133.039    22701134.0144   22701141.9134
     -3111.119       -2424.249
 -22797628.307 9 -17721632.32347  20890262.915    20890265.4604   20890271.8694
      3668.757        2858.772
  -8276492.351 9  -6438458.76348  19417882.418    19417884.0254   19417889.9854
      -520.763        -405.789
 -16679535.826 9 -12972960.23347  21255480.429    21255482.3264   21255488.8534
      3290.965        2564.388
  -8691552.831 8  -6758066.71145  22907889.337    22907891.7184   22907900.5354
      4374.443        3408.657
 97  5 19 17 21 29.9960000  0  7 26  2 27  4  7  9 24               -0.003928816
  -1515493.752 9  -1155812.76147  22578832.769    22578834.5744   22578841.7744
     -1481.240       -1154.213
  -1958350.252 9  -1520469.21248  20628545.264    20628547.2284   20628553.7644
      -604.182        -470.791
  13043055.610 8  10163917.17846  22718910.194    22718911.1774   22718919.0754
     -3115.646       -2427.776
 -22907504.486 9 -17807250.11147  20869353.941    20869356.6984   20869363.1084
      3657.292        2849.838
  -8260703.212 9  -6426155.54648  19420887.004    19420888.6074   19420894.5664
      -530.749        -413.571
 -16778083.189 9 -13049750.36547  21236727.541    21236729.3884   21236735.8764
      3279.924        2555.785
  -8822749.029 8  -6860297.42546  22882922.876    22882925.7074   22882934.6274
      4372.916        3407.467
 97  5 19 17 21 59.9960000  0  7 26  2 27  4  7  9 24               -0.003942956
  -1470973.641 9  -1121121.81247  22587304.617    22587306.5084   22587313.6804
     -1486.542       -1158.344
  -1940119.603 9  -1506263.52948  20632014.396    20632016.4244   20632022.9584
      -610.766        -475.922
  13136569.068 8  10236784.71846  22736705.102    22736706.2714   22736714.1554
     -3118.422       -2429.939
 -23017070.497 9 -17892626.19447  20848504.324    20848506.9664   20848513.3974
      3647.431        2842.154
  -8244656.657 9  -6413651.74148  19423940.554    19423942.1944   19423948.1414
      -538.676        -419.748
 -16876328.195 9 -13126304.89347  21218032.031    21218033.9424   21218040.3954
      3269.874        2547.954
  -8953930.214 8  -6962516.44546  22857959.866    22857962.7434   22857971.6564
      4372.617        3407.234
 97  5 19 17 22 29.9960000  0  7 26  2 27  4  7  9 24               -0.003957086
  -1426253.017 9  -1086274.60947  22595814.630    22595816.5424   22595823.7424
     -1494.581       -1164.609
  -1921663.200 9  -1491881.93148  20635526.519    20635528.5734   20635535.1104
      -619.425        -482.669
  13230203.554 8  10309746.56346  22754522.540    22754524.3884   22754532.3374
     -3123.699       -2434.051
 -23126313.903 9 -17977750.90347  20827716.133    20827718.6354   20827725.0204
      3635.879        2833.152
  -8228344.167 9  -6400940.71348  19427044.723    19427046.3424   19427052.2844
      -548.672        -427.537
 -16974236.577 9 -13202597.11648  21199400.612    21199402.6194   21199408.9944
      3257.633        2538.415
  -9085074.320 8  -7064706.57846  22833004.491    22833006.6414   22833015.8484
      4370.429        3405.529
 97  5 19 17 22 59.9960000  0  7 26  2 27  4  7  9 24               -0.003971199
  -1381315.789 9  -1051258.62047  22604365.934    22604367.7404   22604375.0314
     -1502.162       -1170.516
  -1902985.585 9  -1477327.96748  20639080.831    20639082.8444   20639089.3774
      -626.368        -488.079
  13323965.220 8  10382807.49146  22772364.468    22772366.7714   22772374.6884
     -3127.904       -2437.328
 -23235243.052 9 -18062630.74547  20806987.761    20806990.0744   20806996.4704
      3624.955        2824.640
  -8211757.005 9  -6388015.66248  19430201.246    19430202.8034   19430208.7474
      -557.921        -434.744
 -17071794.192 9 -13278616.01448  21180836.310    21180838.0134   21180844.3424
      3245.180        2528.712
  -9216177.042 9  -7166864.46146  22808056.640    22808058.6104   22808067.6834
      4368.755        3404.225
 97  5 19 17 23 29.9960000  0  7 26  2 27  4  7  9 24               -0.003985259
  -1336075.691 9  -1016006.63747  22612974.777    22612976.6844   22612983.9994
     -1511.713       -1177.958
  -1884032.910 9  -1462559.66248  20642687.489    20642689.4424   20642695.9774
      -635.327        -495.060
  13417920.027 8  10456018.92346  22790242.892    22790245.8274   22790253.6644
     -3133.759       -2441.890
 -23343760.405 9 -18147189.70347  20786337.721    20786339.8944   20786346.3154
      3611.546        2814.192
  -8194822.132 9  -6374819.66448  19433423.759    19433425.4054   19433431.3444
      -569.258        -443.578
 -17168895.086 9 -13354279.02548  21162358.590    21162360.3144   21162366.6804
      3230.405        2517.199
  -9347155.287 8  -7268925.34346  22783131.946    22783134.2244   22783143.3624
      4364.957        3401.265
 97  5 19 17 23 59.9960000  0  7 26  2 27  4  7  9 24               -0.003999316
  -1290624.619 9   -980590.26247  22621624.021    22621625.8284   22621633.1224
     -1518.747       -1183.439
  -1864875.255 9  -1447631.64148  20646333.238    20646335.0284   20646341.5584
      -642.332        -500.518
  13511986.660 8  10529317.49346  22808142.952    22808146.1154   22808153.8814
     -3137.940       -2445.148
 -23451954.232 9 -18231496.55448  20765749.117    20765751.2784   20765757.6944
      3600.871        2805.874
  -8177613.532 9  -6361410.37448  19436698.457    19436700.1244   19436706.0604
      -578.356        -450.667
 -17265629.433 9 -13429656.41448  21143950.602    21143952.3254   21143958.7294
      3218.179        2507.672
  -9478093.489 8  -7370955.02346  22758214.821    22758217.4984   22758226.6034
      4363.771        3400.341
 97  5 19 17 24 29.9960000  0  7 26  2 27  4  7  9 24               -0.004013340
  -1244938.847 9   -944991.00547  22630317.402    22630319.5534   22630326.8244
     -1525.810       -1188.943
  -1845473.874 9  -1432513.70048  20650025.266    20650027.0264   20650033.5214
      -650.094        -506.567
  13606214.989 8  10602742.07245  22826073.879    22826077.3094   22826084.9714
     -3142.737       -2448.886
 -23559795.431 9 -18315528.63647  20745227.266    20745229.7604   20745236.1654
      3589.568        2797.066
  -8160110.895 9  -6347771.96348  19440029.145    19440030.7744   19440036.6984
      -587.385        -457.703
 -17361975.271 9 -13504731.07548  21125616.562    21125618.2994   21125624.7254
      3205.988        2498.172
  -9608985.292 8  -7472948.55046  22733307.296    22733309.6684   22733318.7594
      4363.179        3399.880
 97  5 19 17 24 59.9950000  0  7 26  2 27  4  7  9 24               -0.004027346
  -1199044.661 9   -909229.33847  22639050.906    22639052.9534   22639060.2124
     -1534.350       -1195.597
  -1825834.671 9  -1417210.44548  20653762.517    20653764.2714   20653770.7704
      -659.796        -514.127
  13700581.629 8  10676274.42046  22844031.256    22844034.8344   22844042.4624
     -3148.978       -2453.749
 -23667279.963 9 -18399282.79748  20724773.748    20724776.1124   20724782.5184
      3575.762        2786.308
  -8142338.243 9  -6333923.14948  19443411.279    19443412.8094   19443418.7474
      -597.951        -465.936
 -17457946.260 9 -13579513.64548  21107353.814    21107355.6064   21107362.0424
      3191.849        2487.155
  -9739847.710 9  -7574919.18546  22708405.783    22708407.3914   22708416.2794
      4360.548        3397.830
 97  5 19 17 25 29.9950000  0  7 26  2 27  4  7  9 24               -0.004041343
  -1152980.749 9   -873335.42446  22647816.712    22647818.7524   22647825.8684
     -1538.065       -1198.492
  -1805967.657 9  -1401729.67548  20657543.144    20657544.8634   20657551.3794
      -666.258        -519.162
  13795055.484 8  10749890.31845  22862009.653    22862012.5564   22862020.2864
     -3150.768       -2455.144
 -23774441.952 9 -18482785.62048  20704381.601    20704383.8284   20704390.2754
      3566.810        2779.332
  -8124333.401 9  -6319893.41248  19446837.347    19446839.0114   19446844.9574
      -604.001        -470.650
 -17553587.929 9 -13654039.60848  21089153.798    21089155.6194   21089162.0014
      3182.863        2480.153
  -9870716.457 9  -7676894.75146  22683502.574    22683503.8484   22683512.7344
      4362.346        3399.231
 97  5 19 17 25 59.9950000  0  7 26  2 27  4  7  9 24               -0.004055328
  -1106738.873 9   -837302.82846  22656615.956    22656618.2204   22656625.4014
     -1544.552       -1203.547
  -1785847.252 9  -1386051.45548  20661371.978    20661373.6924   20661380.1764
      -674.657        -525.707
  13889649.691 8  10823599.98945  22880010.824    22880013.4524   22880021.2494
     -3155.334       -2458.702
 -23881263.672 9 -18566023.30148  20684053.879    20684056.2724   20684062.7594
      3554.747        2769.933
  -8106083.630 9  -6305672.81948  19450310.286    19450311.8344   19450317.7944
      -612.445        -477.230
 -17648902.521 9 -13728310.69748  21071016.036    21071017.8574   21071024.2004
      3171.672        2471.433
 -10001574.602 9  -7778862.05246  22658600.693    22658602.3404   22658611.1694
      4361.602        3398.651
 97  5 19 17 26 29.9950000  0  7 26  2 27  4  7  9 24               -0.004069316
  -1060305.451 9   -801120.98146  22665451.793    22665454.1304   22665461.4254
     -1551.451       -1208.923
  -1765479.241 9  -1370180.29548  20665247.909    20665249.6054   20665256.1144
      -683.636        -532.703
  13984365.600 8  10897404.50045  22898034.907    22898037.4124   22898045.1974
     -3159.242       -2461.747
 -23987722.729 9 -18648978.38648  20663795.221    20663797.7904   20663804.2674
      3542.158        2760.123
  -8087579.559 9  -6291254.06848  19453831.389    19453833.0314   19453839.0214
      -621.689        -484.433
 -17743885.380 9 -13802323.29848  21052941.465    21052943.2724   21052949.5044
      3160.057        2462.382
 -10132408.965 9  -7880810.82346  22633703.623    22633705.3784   22633714.0934
      4359.745        3397.204
 97  5 19 17 26 59.9950000  0  7 26  2 27  4  7  9 24               -0.004083326
  -1013686.271 9   -764794.38146  22674323.224    22674325.4474   22674332.8454
     -1557.530       -1213.660
  -1744867.147 9  -1354118.94048  20669170.072    20669171.9574   20669178.4664
      -691.575        -538.890
  14079169.182 8  10971277.32145  22916075.471    22916077.9544   22916085.8604
     -3162.141       -2464.006
 -24093825.472 9 -18731655.82948  20643604.665    20643607.0764   20643613.5414
      3530.310        2750.891
  -8068805.723 9  -6276625.11548  19457403.932    19457405.5544   19457411.5014
      -630.959        -491.656
 -17838537.549 9 -13876078.21648  21034929.776    21034931.5814   21034937.7374
      3149.082        2453.830
 -10263184.790 9  -7982713.98646  22608817.555    22608819.5664   22608828.1454
      4357.441        3395.409
 97  5 19 17 27 29.9950000  0  7 26  2 27  4  7  9 24               -0.004097339
   -966847.679 9   -728296.82546  22683236.495    22683238.6604   22683245.9944
     -1564.425       -1219.032
  -1723978.150 9  -1337841.81948  20673145.183    20673147.0084   20673153.5214
      -700.288        -545.679
  14174095.896 9  11045246.08845  22934139.655    22934141.9014   22934149.8334
     -3165.644       -2466.736
 -24199538.863 9 -18814029.87848  20623488.259    20623490.4764   20623496.9564
      3517.796        2741.140
  -8049716.089 9  -6261750.08148  19461036.517    19461038.1944   19461044.1594
      -641.005        -499.484
 -17932829.837 9 -13949552.71248  21016986.503    21016988.3414   21016994.4684
      3137.628        2444.905
 -10393854.569 9  -8084534.51546  22583951.847    22583953.8904   22583962.4984
      4354.432        3393.064
 97  5 19 17 27 59.9950000  0  8 26  2 27  5  4  7  9 24            -0.004111390
   -919818.121 9   -691650.45746  22692186.040    22692188.1414   22692195.4954
     -1570.707       -1223.928
  -1702860.501 9  -1321386.52748  20677163.572    20677165.5864   20677172.0854
      -707.349        -551.181
  14269105.966 8  11119279.81745  22952220.165    22952221.7894   22952229.6334
     -3168.184       -2468.715
   -331021.05019   -235771.03255  23691170.609    23691170.7855   23691178.9185
      3509.959        2735.033
 -24304892.870 9 -18896123.88848  20603440.058    20603442.2664   20603448.7534
      3506.138        2732.055
  -8030343.611 9  -6246654.65148  19464723.108    19464724.6974   19464730.6554
      -650.200        -506.649
 -18026795.295 9 -14022772.53448  20999105.513    20999107.2654   20999113.4584
      3126.907        2436.551
 -10524459.486 9  -8186304.50346  22559098.765    22559100.5924   22559109.1514
      4352.731        3391.738
 97  5 19 17 28 29.9950000  0  8 26  2 27  5  4  7  9 24            -0.004125475
   -872601.502 9   -654858.32746  22701171.165    22701173.2114   22701180.5124
     -1576.858       -1228.721
  -1681527.869 9  -1304763.71148  20681222.921    20681225.0484   20681231.5514
      -714.656        -556.875
  14364184.197 9  11193366.64345  22970313.431    22970314.7874   22970322.5354
     -3170.321       -2470.380
   -436351.945 9   -317846.98055  23671128.927    23671126.8734   23671134.2565
      3512.109        2736.708
 -24409906.269 9 -18977952.48448  20583456.494    20583458.8544   20583465.3644
      3494.829        2723.243
  -8010699.342 9  -6231347.43448  19468461.207    19468462.8674   19468468.8274
      -659.241        -513.694
 -18120434.396 9 -14095738.05548  20981286.487    20981288.3124   20981294.5144
      3115.704        2427.821
 -10655009.149 9  -8288031.44246  22534255.890    22534257.7394   22534266.2914
      4350.431        3389.946
 97  5 19 17 28 59.9950000  0  8 26  2 27  5  4  7  9 24            -0.004139574
   -825188.897 9   -617913.46546  22710193.537    22710195.5874   22710202.8724
     -1583.184       -1233.650
  -1659970.789 9  -1287966.00848  20685325.135    20685327.2534   20685333.7644
      -721.695        -562.360
  14459348.410 9  11267520.48045  22988423.419    22988424.0094   22988431.7954
     -3173.318       -2472.715
   -541723.696 9   -399954.83445  23651076.088    23651074.8775   23651082.9114
      3513.350        2737.675
 -24514562.010 9 -19059502.38848  20563541.008    20563543.4864   20563550.0304
      3482.847        2713.907
  -7990778.010 9  -6215824.32348  19472252.153    19472253.7734   19472259.7624
      -667.969        -520.495
 -18213719.322 9 -14168427.59048  20963534.844    20963536.7294   20963542.9624
      3103.960        2418.670
 -10785475.114 9  -8389693.17046  22509428.809    22509430.7684   22509439.3274
      4348.145        3388.165
 97  5 19 17 29 29.9950000  0  8 26  2 27  5  4  7  9 24            -0.004153688
   -777594.493 9   -580826.95646  22719250.166    22719252.4644   22719259.8714
     -1590.379       -1239.256
  -1638211.326 9  -1271010.60448  20689465.585    20689467.9534   20689474.5034
      -729.534        -568.468
  14554594.234 8  11341737.90545  23006548.558    23006548.8044   23006556.6294
     -3177.052       -2475.625
   -647137.035 9   -482095.01745  23631015.337    23631015.5614   23631023.7104
      3513.612        2737.879
 -24618870.509 9 -19140781.71848  20543691.533    20543694.2304   20543700.7654
      3470.244        2704.086
  -7970619.832 9  -6200116.65648  19476088.036    19476089.7244   19476095.7244
      -676.626        -527.241
 -18306659.089 9 -14240848.17948  20945848.955    20945850.9064   20945857.1244
      3091.276        2408.786
 -10915890.291 9  -8491315.33246  22484611.692    22484613.5424   22484622.0504
      4345.330        3385.971
 97  5 19 17 29 59.9950000  0  8 26  2 27  5  4  7  9 24            -0.004167831
   -729846.985 9   -543621.16946  22728336.355    22728338.5394   22728345.9744
     -1595.126       -1242.955
  -1616281.657 9  -1253922.57448  20693638.787    20693641.0694   20693647.5894
      -734.954        -572.691
  14649899.389 8  11416001.55445  23024684.597    23024684.7544   23024692.7024
     -3179.176       -2477.280
   -752623.674 9   -564292.32045  23610941.375    23610942.1774   23610950.4434
      3516.240        2739.927
 -24722849.816 9 -19221804.53348  20523905.135    20523907.6214   20523914.1614
      3459.309        2695.565
  -7950258.064 9  -6184250.35048  19479962.822    19479964.4844   19479970.4474
      -683.193        -532.358
 -18399268.034 9 -14313010.97248  20928226.168    20928228.0024   20928234.1674
      3080.229        2400.178
 -11046272.480 9  -8592911.77946  22459800.957    22459802.6074   22459811.0844
      4344.176        3385.072
 97  5 19 17 30 29.9950000  0  8 26  2 27  5  4  7  9 24            -0.004181958
   -681912.568 9   -506269.71646  22737458.126    22737460.2004   22737467.6614
     -1600.906       -1247.459
  -1594127.501 9  -1236659.62248  20697854.555    20697856.8814   20697863.3824
      -742.473        -578.550
  14745336.364 8  11490367.91045  23042845.101    23042845.9234   23042853.9094
     -3183.811       -2480.892
   -858119.815 9   -646497.05546  23590865.991    23590867.0954   23590875.1134
      3516.383        2740.039
 -24826439.990 9 -19302524.12648  20504192.502    20504195.0184   20504201.6064
      3446.233        2685.376
  -7929641.378 9  -6168185.40348  19483886.030    19483887.7044   19483893.7164
      -691.724        -539.006
 -18491480.960 9 -14384865.18548  20910678.629    20910680.4614   20910686.5964
      3066.795        2389.710
 -11176551.139 9  -8694427.56546  22435009.634    22435011.3334   22435019.7984
      4340.449        3382.168
 97  5 19 17 30 59.9950000  0  8 26  2 27  5  4  7  9 24            -0.004196033
   -633754.796 9   -468744.21146  22746622.143    22746624.3884   22746631.7954
     -1609.441       -1254.110
  -1571689.708 9  -1219175.65448  20702124.212    20702126.6554   20702133.1474
      -753.237        -586.938
  14840966.706 8  11564884.93645  23061042.255    23061043.9804   23061052.0824
     -3191.463       -2486.854
   -963568.663 9   -728664.88246  23570799.336    23570800.7674   23570808.8624
      3513.818        2738.040
 -24929583.633 9 -19382895.77548  20484564.763    20484567.4114   20484573.9754
      3430.211        2672.892
  -7908714.590 9  -6151878.82348  19487868.334    19487869.9334   19487875.9384
      -703.243        -547.981
 -18583234.964 9 -14456361.78948  20893218.513    20893220.2394   20893226.3554
      3050.327        2376.878
 -11306677.064 9  -8795824.33046  22410247.314    22410249.1584   22410257.5744
      4334.769        3377.742
 97  5 19 17 31 29.9950000  0  8 26  2 27  5  4  7  9 24            -0.004210068
   -585407.770 9   -431071.24746  22755822.223    22755824.5304   22755831.9264
     -1613.761       -1257.476
  -1548984.952 9  -1201483.66148  20706444.904    20706447.2644   20706453.7474
      -760.617        -592.688
  14936764.099 8  11639532.12045  23079271.264    23079273.7004   23079281.8274
     -3195.384       -2489.910
  -1069009.040 9   -810826.16946  23550734.576    23550736.0834   23550744.0854
      3515.358        2739.240
 -25032313.521 9 -19462945.02048  20465015.991    20465018.5534   20465025.1204
      3418.120        2663.470
  -7887498.910 9  -6135347.13348  19491905.453    19491907.1264   19491913.1564
      -711.533        -554.441
 -18674560.753 9 -14527524.72748  20875839.579    20875841.4664   20875847.6154
      3037.835        2367.144
 -11436698.185 9  -8897139.42646  22385504.948    22385506.8554   22385515.3184
      4332.909        3376.293
 97  5 19 17 31 59.9950000  0  8 26  2 27  5  4  7  9 24            -0.004224093
   -536928.131 9   -393294.94846  22765047.553    22765049.9484   22765057.3074
     -1617.924       -1260.720
  -1526045.589 9  -1183608.85248  20710810.122    20710812.4794   20710818.9864
      -768.379        -598.737
  15032698.821 8  11714286.32245  23097527.032    23097529.4984   23097537.6834
     -3199.838       -2493.380
  -1174482.904 9   -893013.50946  23530663.624    23530664.9954   23530673.1244
      3516.651        2740.247
 -25134662.652 9 -19542697.56648  20445539.462    20445542.1524   20445548.7374
      3405.617        2653.727
  -7866010.064 9  -6118602.58448  19495994.696    19495996.3514   19496002.3664
      -720.586        -561.495
 -18765491.620 9 -14598379.92548  20858535.966    20858537.8704   20858544.0414
      3024.616        2356.844
 -11566643.440 9  -8998395.40746  22360776.797    22360778.9694   22360787.4674
      4330.517        3374.429
 97  5 19 17 32 29.9950000  0  8 26  2 27  5  4  7  9 24            -0.004238095
   -488294.724 9   -355398.82246  22774302.345    22774304.6284   22774311.9344
     -1625.112       -1266.321
  -1502840.308 9  -1165526.83648  20715225.988    20715228.3334   20715234.8444
      -779.243        -607.202
  15128781.689 8  11789155.95345  23115810.729    23115813.5194   23115821.9054
     -3206.112       -2498.269
  -1279966.845 9   -975208.72046  23510590.475    23510592.1104   23510600.1654
      3515.173        2739.096
 -25236608.968 9 -19622136.23148  20426139.996    20426142.4314   20426148.9924
      3390.169        2641.690
  -7844219.135 9  -6101622.64348  19500141.339    19500143.0264   19500149.0614
      -732.680        -570.919
 -18855999.312 9 -14668905.38048  20841312.930    20841314.8464   20841320.9654
      3008.665        2344.414
 -11696496.765 9  -9099579.76546  22336066.362    22336068.6434   22336077.0734
      4325.706        3370.680
 97  5 19 17 32 59.9950000  0  8 26  2 27  5  4  7  9 24            -0.004252071
   -439472.526 9   -317355.59346  22783592.756    22783595.2274   22783602.5294
     -1629.870       -1270.029
  -1479347.631 9  -1147220.88048  20719696.512    20719698.8794   20719705.3834
      -787.147        -613.361
  15224998.353 8  11864129.84545  23134120.477    23134123.1894   23134131.2924
     -3208.502       -2500.131
  -1385453.664 9  -1057406.20246  23490516.963    23490518.6574   23490526.5254
      3516.977        2740.502
 -25338132.330 9 -19701245.32148  20406820.784    20406823.1774   20406829.7324
      3377.696        2631.971
  -7822110.068 9  -6084394.81048  19504348.621    19504350.2904   19504356.3164
      -741.496        -577.789
 -18946075.990 9 -14739094.98848  20824171.959    20824173.8124   20824179.9154
      2996.225        2334.721
 -11826250.647 9  -9200686.62646  22311374.692    22311377.2354   22311385.7144
      4324.063        3369.400
 97  5 19 17 33 29.9950000  0  8 26  2 27  5  4  7  9 24            -0.004266222
   -390519.062 9   -279210.07946  22792908.323    22792910.8154   22792918.1004
     -1633.285       -1272.690
  -1455621.731 9  -1128733.18448  20724211.456    20724213.7594   20724220.2554
      -794.290        -618.927
  15321276.125 8  11939151.34045  23152442.419    23152444.2564   23152452.4994
     -3209.465       -2500.882
  -1490998.265 9  -1139648.67246  23470432.341    23470434.0684   23470442.0554
      3519.511        2742.476
 -25439277.666 9 -19780059.84548  20387573.608    20387575.8304   20387582.3774
      3365.643        2622.579
  -7799741.255 9  -6066964.57148  19508605.186    19508606.8844   19508612.9264
      -749.323        -583.888
 -19035786.245 9 -14808999.06848  20807100.740    20807102.4904   20807108.5794
      2984.705        2325.744
 -11955946.859 9  -9301748.56046  22286693.956    22286696.7704   22286705.1444
      4322.486        3368.171
 97  5 19 17 33 59.9950000  0  8 26  2 27  5  4  7  9 24            -0.004280321
   -341443.184 9   -240969.18846  22802247.256    22802249.7174   22802257.0614
     -1638.682       -1276.895
  -1431660.548 9  -1110062.15748  20728771.250    20728773.4484   20728779.9494
      -803.424        -626.045
  15417587.455 8  12014198.99345  23170770.843    23170771.7304   23170780.0394
     -3211.430       -2502.413
  -1596596.082 8  -1221932.61446  23450337.543    23450339.3594   23450347.5254
      3520.125        2742.955
 -25540040.159 9 -19858576.05148  20368398.997    20368401.3674   20368407.8994
      3351.679        2611.698
  -7777130.844 9  -6049346.07748  19512907.898    19512909.5304   19512915.5604
      -758.092        -590.721
 -19125124.512 9 -14878613.29548  20790100.051    20790101.9994   20790108.0814
      2970.943        2315.021
 -12085571.505 9  -9402754.73846  22262027.199    22262029.9534   22262038.2834
      4318.740        3365.252
 97  5 19 17 34 29.9950000  0  8 26  2 27  5  4  7  9 24            -0.004294388
   -292208.711 9   -202604.72246  22811616.511    22811618.7334   22811626.1164
     -1643.233       -1280.441
  -1407429.415 9  -1091180.77948  20733382.490    20733384.5024   20733390.9934
      -811.693        -632.488
  15513936.895 8  12089276.31645  23189106.631    23189106.4704   23189114.8464
     -3211.710       -2502.631
  -1702217.119 8  -1304234.64746  23430238.593    23430240.3924   23430248.4904
      3521.611        2744.112
 -25640391.560 9 -19936771.92548  20349302.661    20349305.1144   20349311.6634
      3338.753        2601.626
  -7754272.582 9  -6031534.45248  19517257.649    19517259.2904   19517265.3384
      -765.369        -596.391
 -19214061.499 9 -14947914.83148  20773175.843    20773177.8374   20773184.0014
      2958.429        2305.269
 -12215094.847 9  -9503681.96246  22237379.570    22237382.5074   22237390.7724
      4316.165        3363.245
 97  5 19 17 34 59.9950000  0  8 26  2 27  5  4  7  9 24            -0.004308417
   -242831.932 9   -164129.36846  22821012.572    22821014.8084   22821022.2034
     -1648.135       -1284.261
  -1382939.039 9  -1072097.38748  20738042.797    20738044.8794   20738051.3974
      -820.729        -639.529
  15610304.024 8  12164367.42645  23207444.561    23207444.5794   23207452.9684
     -3212.790       -2503.473
  -1807869.970 8  -1386561.45746  23410133.371    23410135.3584   23410143.3764
      3522.144        2744.528
 -25740352.519 9 -20014663.55848  20330280.537    20330283.1384   20330289.7024
      3325.443        2591.254
  -7731196.645 9  -6013553.21348  19521648.873    19521650.5124   19521656.5574
      -772.964        -602.310
 -19302611.791 9 -15016915.05048  20756325.307    20756327.2624   20756333.4634
      2945.041        2294.837
 -12344527.828 9  -9604538.78346  22212749.343    22212752.1874   22212760.4224
      4312.629        3360.490
 97  5 19 17 35 29.9950000  0  8 26  2 27  5  4  7  9 24            -0.004322404
   -193330.853 9   -125557.14546  22830432.253    22830434.5524   22830442.0844
     -1653.217       -1288.221
  -1358186.776 9  -1052809.93348  20742753.009    20742755.1274   20742761.6384
      -830.528        -647.165
  15706702.262 8  12239482.77645  23225787.551    23225788.6494   23225797.1744
     -3214.950       -2505.156
  -1913550.637 8  -1468909.93446  23390022.762    23390024.8444   23390032.9184
      3522.117        2744.507
 -25839919.499 9 -20092248.19248  20311333.450    20311336.1784   20311342.7194
      3311.229        2580.178
  -7707903.855 9  -5995402.99348  19526081.311    19526082.9804   19526089.0344
      -781.045        -608.606
 -19390763.867 9 -15085604.96648  20739550.612    20739552.4444   20739558.7084
      2930.572        2283.562
 -12473854.091 9  -9705312.43546  22188139.068    22188142.2024   22188150.4154
      4307.808        3356.734
 97  5 19 17 35 59.9950000  0  8 26  2 27  5  4  7  9 24            -0.004336247
   -143682.391 9    -86870.07946  22839880.218    22839882.4344   22839889.9474
     -1657.644       -1291.671
  -1333165.319 9  -1033312.71648  20747514.336    20747516.5314   20747523.0984
      -838.442        -653.331
  15803152.350 8  12314638.52545  23244141.599    23244142.6194   23244151.1534
     -3216.105       -2506.056
  -2019257.808 8  -1551279.07345  23369907.543    23369909.4624   23369917.5764
      3524.047        2746.011
 -25939079.724 9 -20169515.87848  20292463.993    20292466.6104   20292473.1174
      3298.411        2570.190
  -7684386.967 9  -5977078.15548  19530556.409    19530558.1084   19530564.1734
      -787.842        -613.903
 -19478499.139 9 -15153970.10248  20722854.949    20722856.9304   20722863.1804
      2917.558        2273.422
 -12603054.595 9  -9805988.10046  22163553.027    22163556.1844   22163564.3834
      4304.453        3354.119
 97  5 19 17 36 29.9950000  0  8 26  2 27  5  4  7  9 24            -0.004350209
    -93881.035 9    -48063.87546  22849357.166    22849359.4674   22849366.7164
     -1662.848       -1295.726
  -1307894.021 9  -1013620.81948  20752323.314    20752325.5384   20752332.0984
      -846.633        -659.714
  15899659.251 8  12389838.56345  23262506.438    23262507.4824   23262515.8194
     -3218.153       -2507.652
  -2125006.836 8  -1633680.80346  23349783.809    23349785.8924   23349794.2184
      3525.414        2747.076
 -26037836.383 9 -20246469.09248  20273671.296    20273673.8134   20273680.3654
      3284.822        2559.602
  -7660640.045 9  -5958574.06848  19535075.368    19535077.0154   19535083.0674
      -795.816        -620.116
 -19565836.012 9 -15222024.79548  20706235.432    20706237.3144   20706243.4814
      2904.471        2263.224
 -12732142.647 9  -9906576.14746  22138988.425    22138991.5404   22138999.7164
      4300.788        3351.263
 97  5 19 17 36 59.9950000  0  8 26  2 27  5  4  7  9 24            -0.004364193
    -43950.050 9     -9156.65646  22858858.646    22858861.0314   22858868.3354
     -1665.697       -1297.946
  -1282407.956 9   -993761.57148  20757173.339    20757175.3794   20757181.9564
      -852.305        -664.134
  15996202.093 8  12465066.59145  23280878.774    23280879.0234   23280887.4724
     -3218.024       -2507.551
  -2230824.019 8  -1716135.69646  23329647.322    23329649.6144   23329657.7084
      3529.122        2749.965
 -26136207.152 9 -20323121.61548  20254951.897    20254954.4764   20254961.0014
      3273.124        2550.486
  -7636674.137 9  -5939899.34248  19539635.893    19539637.5444   19539643.6324
      -801.963        -624.906
 -19652803.551 9 -15289791.69648  20689686.183    20689687.9664   20689694.0864
      2893.433        2254.623
 -12861143.344 9 -10007096.11546  22114440.649    22114443.4354   22114451.6434
      4299.198        3350.024
 97  5 19 17 37 29.9950000  0  8 26  2 27  5  4  7  9 24            -0.004378205
      6124.223 9     29862.22246  22868387.459    22868389.8994   22868397.2774
     -1671.433       -1302.415
  -1256692.863 9   -973723.85648  20762066.716    20762068.8104   20762075.4144
      -860.864        -670.803
  16092800.512 8  12540337.94746  23299261.733    23299261.0914   23299269.6444
     -3220.633       -2509.584
  -2336688.587 8  -1798627.46946  23309502.004    23309504.1124   23309512.2324
      3529.693        2750.410
 -26234154.745 9 -20399444.39248  20236313.157    20236315.6554   20236322.1464
      3257.958        2538.669
  -7612458.910 9  -5921030.34548  19544243.868    19544245.5824   19544251.6454
      -811.043        -631.981
 -19739378.639 9 -15357252.78748  20673211.393    20673213.2624   20673219.3804
      2879.438        2243.718
 -12990029.267 9 -10107526.64546  22089914.778    22089917.2494   22089925.4584
      4294.470        3346.340
 97  5 19 17 37 59.9950000  0  8 26  2 27  5  4  7  9 24            -0.004392245
     56341.777 9     68992.73046  22877943.538    22877946.0884   22877953.4394
     -1675.260       -1305.397
  -1230755.136 9   -953512.66848  20767002.350    20767004.6314   20767011.2534
      -867.316        -675.831
  16189442.085 8  12615642.92446  23317652.382    23317651.5724   23317660.1414
     -3221.107       -2509.954
  -2442599.718 8  -1881155.52546  23289348.000    23289349.7944   23289358.0284
      3531.808        2752.058
 -26331683.427 9 -20475440.74448  20217753.919    20217756.5514   20217763.0324
      3244.845        2528.451
  -7588006.474 9  -5901976.50348  19548897.003    19548898.7334   19548904.8084
      -818.121        -637.497
 -19825564.087 9 -15424410.26148  20656810.809    20656812.6904   20656818.8444
      2867.223        2234.200
 -13118822.314 9 -10207884.81146  22065406.432    22065408.7574   22065416.9504
      4292.613        3344.893
 97  5 19 17 38 29.9950000  0  8 26  2 27  5  4  7  9 24            -0.004406305
    106701.742 9    108234.20546  22887526.945    22887529.2664   22887536.6334
     -1682.384       -1310.948
  -1204586.972 9   -933121.90748  20771982.263    20771984.3034   20771990.9174
      -877.625        -683.864
  16286132.941 8  12690986.29446  23336052.377    23336051.4094   23336060.0694
     -3225.390       -2513.291
  -2548530.467 8  -1963698.87346  23269189.812    23269191.6154   23269200.1284
      3529.733        2750.441
 -26428783.074 9 -20551102.78648  20199276.376    20199279.0774   20199285.5394
      3228.067        2515.377
  -7563308.864 9  -5882731.62348  19553596.876    19553598.5534   19553604.6264
      -828.685        -645.729
 -19911342.387 9 -15491250.48548  20640487.742    20640489.6384   20640495.7624
      2850.821        2221.419
 -13247522.328 9 -10308170.48146  22040915.686    22040917.9774   22040926.1794
      4286.818        3340.378
 97  5 19 17 38 59.9950000  0  8 26  2 27  5  4  7  9 24            -0.004420372
    157204.040 9    147586.58446  22897137.353    22897139.5294   22897146.9164
     -1685.021       -1313.003
  -1178171.810 9   -912538.68648  20777009.023    20777010.9524   20777017.5684
      -884.051        -688.871
  16382894.827 8  12766385.02946  23354464.742    23354464.6254   23354473.4544
     -3226.109       -2513.851
  -2654458.796 8  -2046240.37146  23249032.324    23249034.0924   23249042.4794
      3531.478        2751.801
 -26525438.256 9 -20626418.49048  20180883.578    20180886.2054   20180892.6364
      3214.976        2505.176
  -7538360.805 9  -5863291.58448  19558344.292    19558346.0064   19558352.0844
      -835.188        -650.796
 -19996684.196 9 -15557750.58548  20624247.687    20624249.6474   20624255.7294
      2838.064        2211.478
 -13376107.258 9 -10408366.47946  22016446.448    22016449.0944   22016457.2824
      4284.660        3338.696
 97  5 19 17 39 29.9950000  0  8 26  2 27  5  4  7  9 24            -0.004434461
    207812.504 9    187021.68846  22906767.767    22906770.0274   22906777.4814
     -1689.898       -1316.804
  -1151536.508 9   -891783.92648  20782077.650    20782079.5094   20782086.1254
      -892.634        -695.559
  16479711.566 8  12841826.48046  23372887.887    23372888.4124   23372897.1754
     -3229.367       -2516.390
  -2760415.038 8  -2128803.60445  23228869.472    23228871.2004   23228879.6134
      3531.262        2751.633
 -26621671.681 9 -20701405.55048  20162570.910    20162573.5814   20162579.9824
      3199.610        2493.203
  -7513196.086 9  -5843682.71948  19563133.020    19563134.7204   19563140.7824
      -843.478        -657.255
 -20081623.445 9 -15623936.99948  20608084.199    20608086.2004   20608092.3264
      2823.513        2200.140
 -13504590.403 9 -10508483.16346  21991996.503    21991999.5014   21992007.7584
      4279.766        3334.883
 97  5 19 17 39 59.9950000  0  8 26  2 27  5  4  7  9 24            -0.004448560
    258554.106 9    226560.55046  22916423.721    22916425.7884   22916433.2944
     -1692.808       -1319.071
  -1124666.577 9   -870846.34348  20787190.964    20787192.6984   20787199.3334
      -898.679        -700.269
  16576609.904 8  12917331.53645  23391327.024    23391327.6664   23391336.4934
     -3230.512       -2517.282
  -2866381.108 8  -2211374.45646  23208704.451    23208706.4624   23208714.9644
      3533.051        2753.027
 -26717459.604 9 -20776045.46648  20144343.038    20144345.7184   20144352.1324
      3186.155        2482.718
  -7487798.048 9  -5823892.05348  19567966.097    19567967.8104   19567973.8754
      -849.863        -662.231
 -20166143.190 9 -15689796.53548  20592000.657    20592002.6204   20592008.7244
      2811.135        2190.495
 -13632949.135 9 -10608502.90946  21967570.671    21967573.6204   21967581.8944
      4277.036        3332.755
 97  5 19 17 40 29.9950000  0  8 26  2 27  5  4  7  9 24            -0.004462672
    309434.461 9    266207.53846  22926105.778    22926108.0984   22926115.5644
     -1698.033       -1323.143
  -1097558.742 9   -849723.37748  20792349.435    20792351.1904   20792357.8294
      -907.494        -707.138
  16673597.988 8  12992906.50645  23409783.009    23409783.9944   23409792.8764
     -3234.117       -2520.091
  -2972349.262 8  -2293946.93346  23188539.244    23188541.3924   23188549.7644
      3532.728        2752.775
 -26812782.060 9 -20850322.68248  20126203.885    20126206.4474   20126212.8324
      3169.841        2470.006
  -7462150.362 9  -5803906.85148  19572846.693    19572848.4194   19572854.4844
      -858.839        -669.225
 -20250240.303 9 -15755326.73848  20575997.390    20575999.4254   20576005.5954
      2796.479        2179.075
 -13761155.214 9 -10708403.69046  21943174.052    21943176.7564   21943185.0284
      4271.111        3328.138
 97  5 19 17 40 59.9950000  0  8 26  2 27  5  4  7  9 24            -0.004476827
    360391.317 9    305914.11146  22935802.764    22935804.8984   22935812.4224
     -1699.517       -1324.299
  -1070256.693 9   -828449.07648  20797545.038    20797546.6134   20797553.2694
      -913.045        -711.464
  16770606.136 8  13068497.13145  23428242.110    23428244.2584   23428252.9764
     -3233.404       -2519.535
  -3078392.671 9  -2376578.07246  23168359.811    23168361.7804   23168370.3084
      3536.498        2755.713
 -26907684.490 9 -20924272.60048  20108144.344    20108147.0974   20108153.4784
      3156.749        2459.804
  -7436310.118 9  -5783771.60148  19577763.907    19577765.6584   19577771.7434
      -864.148        -673.362
 -20333978.846 9 -15820577.53648  20560062.490    20560064.4984   20560070.7204
      2785.730        2170.699
 -13889255.163 9 -10808221.79546  21918797.358    21918800.1194   21918808.3634
      4268.487        3326.094
 97  5 19 17 41 29.9950000  0  8 26  2 27  5  4  7  9 24            -0.004490989
    411479.372 9    345722.94346  22945524.450    22945526.6624   22945534.2494
     -1705.022       -1328.589
  -1042700.383 9   -806976.65748  20802788.934    20802790.4244   20802797.0744
      -922.832        -719.090
  16867668.409 8  13144129.92845  23446713.121    23446714.6634   23446723.3954
     -3236.178       -2521.697
  -3184466.396 9  -2459232.84246  23148174.681    23148176.6324   23148185.0754
      3536.280        2755.543
 -27002115.670 9 -20997855.31248  20090174.609    20090177.4294   20090183.7854
      3140.044        2446.787
  -7410236.773 9  -5763454.72048  19582725.574    19582727.2764   19582733.3204
      -872.709        -680.033
 -20417306.284 9 -15885507.99348  20544205.863    20544207.8354   20544214.0004
      2770.613        2158.919
 -14017199.707 9 -10907918.80047  21894450.149    21894453.0854   21894461.2064
      4262.383        3321.337
 97  5 19 17 41 59.9950000  0  8 26  2 27  5  4  7  9 24            -0.004505144
    462691.580 9    385628.50846  22955269.896    22955272.0544   22955279.6894
     -1708.427       -1331.242
  -1014879.511 9   -785298.07648  20808082.904    20808084.5964   20808091.2594
      -931.397        -725.764
  16964773.036 8  13219795.75345  23465190.547    23465193.1854   23465201.9254
     -3236.882       -2522.246
  -3290569.090 9  -2541910.19346  23127984.082    23127985.9404   23127994.2894
      3537.775        2756.708
 -27096091.148 9 -21071082.93548  20072291.621    20072294.4564   20072300.8114
      3125.595        2435.528
  -7383942.916 9  -5742966.00748  19587729.052    19587730.8404   19587736.9124
      -879.616        -685.415
 -20500203.850 9 -15950103.48648  20528431.012    20528432.9474   20528439.0854
      2756.384        2147.832
 -14145002.602 9 -11007505.42647  21870130.201    21870133.0034   21870141.0984
      4258.220        3318.093
 97  5 19 17 42 29.9950000  0  8 26  2 27  5  4  7  9 24            -0.004519286
    514009.117 9    425616.14346  22965035.352    22965037.4814   22965045.1744
     -1712.889       -1334.719
   -986784.625 9   -763405.97748  20813429.176    20813430.8634   20813437.5444
      -941.789        -733.862
  17061912.535 8  13295488.75745  23483675.761    23483678.2814   23483687.1284
     -3239.145       -2524.009
  -3396711.224 9  -2624618.27246  23107785.694    23107787.7374   23107795.9644
      3538.199        2757.038
 -27189629.681 9 -21143970.07848  20054492.011    20054494.6614   20054500.9984
      3110.224        2423.551
  -7357435.463 9  -5722310.85548  19592773.428    19592775.0494   19592781.0964
      -887.801        -691.793
 -20582662.324 9 -16014356.82648  20512739.571    20512741.5864   20512747.7614
      2740.530        2135.478
 -14272667.473 9 -11106984.49547  21845836.361    21845839.1844   21845847.2814
      4252.482        3313.622
 97  5 19 17 42 59.9950000  0  8 26  2 27  5  4  7  9 24            -0.004533392
    565448.918 9    465699.08446  22974823.923    22974826.2704   22974833.8144
     -1717.094       -1337.995
   -958394.221 9   -741283.61348  20818831.758    20818833.4054   20818840.0984
      -951.590        -741.499
  17159107.920 8  13371225.29545  23502171.997    23502174.3004   23502182.8134
     -3241.269       -2525.664
  -3502867.891 9  -2707337.65646  23087584.584    23087586.8264   23087594.9834
      3538.121        2756.977
 -27282723.235 9 -21216510.49048  20036776.861    20036779.5484   20036785.8464
      3095.360        2411.969
  -7330691.185 9  -5701471.16348  19597862.568    19597864.2994   19597870.3434
      -895.849        -698.064
 -20664649.232 9 -16078242.71548  20497137.863    20497140.0074   20497146.1764
      2724.641        2123.097
 -14400171.323 9 -11206338.09647  21821573.230    21821575.9334   21821584.1134
      4246.949        3309.311
 97  5 19 17 43 29.9950000  0  8 26  2 27  5  4  7  9 24            -0.004547465
    616997.296 9    505866.57346  22984633.267    22984635.7094   22984643.1384
     -1719.603       -1339.950
   -929723.770 9   -718943.03448  20824287.717    20824289.2434   20824295.9424
      -959.933        -748.000
  17256362.420 8  13447007.92545  23520678.593    23520681.2224   23520689.5964
     -3242.586       -2526.690
  -3609025.555 9  -2790057.85946  23067383.601    23067385.6154   23067393.7834
      3538.733        2757.454
 -27375387.223 9 -21288716.17148  20019143.594    20019146.1564   20019152.4704
      3081.791        2401.396
  -7303714.935 9  -5680450.72348  19602996.062    19602997.7334   19603003.7534
      -902.919        -703.573
 -20746168.690 9 -16141764.35748  20481625.364    20481627.3764   20481633.5524
      2709.734        2111.481
 -14527518.490 9 -11305569.60647  21797340.141    21797342.5644   21797350.7444
      4242.320        3305.704
 97  5 19 17 43 59.9950000  0  8 26  2 27  5  4  7  9 24            -0.004561534
    668621.018 9    546092.78446  22994456.938    22994459.3364   22994466.9154
     -1722.559       -1342.254
   -900811.238 9   -696413.81148  20829789.260    20829791.0974   20829797.8554
      -968.115        -754.375
  17353653.325 8  13522818.88645  23539192.676    23539195.0014   23539203.3764
     -3243.991       -2527.785
  -3715199.008 9  -2872790.34046  23047179.489    23047181.3844   23047189.5864
      3538.898        2757.583
 -27467637.200 9 -21360599.24748  20001588.969    20001591.5594   20001597.8664
      3067.439        2390.212
  -7276509.376 9  -5659251.59148  19608173.053    19608174.7994   19608180.8354
      -911.408        -710.188
 -20827238.929 9 -16204935.96148  20466198.228    20466200.2094   20466206.3954
      2694.461        2099.580
 -14654712.414 9 -11404681.71147  21773135.959    21773138.3364   21773146.4414
      4236.615        3301.258
 97  5 19 17 44 29.9950000  0  8 26  2 27  5  4  7  9 24            -0.004575580
    720362.443 9    586410.71446  23004303.081    23004305.4544   23004312.9674
     -1726.152       -1345.053
   -871629.907 9   -673675.13948  20835342.744    20835344.1794   20835350.9254
      -976.663        -761.036
  17451008.727 8  13598680.08045  23557719.584    23557721.4194   23557728.9984
     -3245.601       -2529.040
  -3821347.062 9  -2955503.05046  23026980.213    23026982.0824   23026990.2734
      3538.299        2757.116
 -27559418.620 9 -21432117.21548  19984123.482    19984126.1294   19984132.3594
      3051.992        2378.176
  -7249023.395 9  -5637833.95248  19613403.533    19613405.2524   19613411.2544
      -920.235        -717.066
 -20907831.907 9 -16267735.67448  20450861.852    20450863.8604   20450870.0434
      2679.201        2087.689
 -14781710.318 9 -11503641.06347  21748968.876    21748971.3914   21748979.4534
      4230.471        3296.471
 97  5 19 17 44 59.9950000  0  8 26  2 27  5  4  7  9 24            -0.004589623
    772187.473 9    626793.78646  23014165.234    23014167.5204   23014175.0934
     -1729.451       -1347.624
   -842209.009 9   -650749.79148  20840941.430    20840942.7974   20840949.5794
      -985.415        -767.856
  17548384.212 8  13674556.98645  23576248.276    23576251.7154   23576259.6204
     -3246.876       -2530.033
  -3927492.831 9  -3038213.97946  23006781.424    23006783.1714   23006791.2764
      3537.566        2756.545
 -27650756.800 9 -21503289.80148  19966742.381    19966745.0444   19966751.2394
      3036.461        2366.073
  -7221301.135 9  -5616232.19948  19618678.924    19618680.6254   19618686.6344
      -928.534        -723.533
 -20987987.443 9 -16330194.52148  20435608.676    20435610.7784   20435616.9264
      2663.905        2075.770
 -14908543.237 9 -11602471.86347  21724833.387    21724835.8214   21724843.8054
      4224.373        3291.719
 97  5 19 17 45 29.9950000  0  8 26  2 27  5  4  7  9 24            -0.004603646
    824125.399 9    667264.86746  23024048.600    23024051.0094   23024058.5684
     -1733.098       -1350.466
   -812510.377 9   -627608.02348  20846592.713    20846594.2724   20846601.0874
      -994.543        -774.969
  17645814.365 7  13750476.44745  23594791.909    23594792.0654   23594800.8244
     -3248.585       -2531.365
  -4033616.780 9  -3120907.88546  22986586.462    22986588.4454   22986596.5574
      3537.261        2756.307
 -27741613.766 9 -21574087.41448  19949452.972    19949455.5574   19949461.7304
      3020.523        2353.654
  -7193318.169 9  -5594427.29848  19624003.911    19624005.5874   19624011.5764
      -937.056        -730.173
 -21067663.094 9 -16392279.43548  20420447.032    20420448.9954   20420455.1424
      2647.603        2063.067
 -15035177.380 9 -11701147.77247  21700735.641    21700738.0944   21700746.0894
      4217.675        3286.500
 97  5 19 17 45 59.9950000  0  7 26  2  5  4  7  9 24               -0.004617664
    876161.400 9    707812.31246  23033950.687    23033953.1704   23033960.8084
     -1735.681       -1352.479
   -782550.355 9   -604262.57948  20852293.913    20852295.5094   20852302.3384
     -1002.780        -781.387
  -4139747.249 9  -3203606.88546  22966390.430    22966392.4814   22966400.3984
      3538.337        2757.146
 -27832002.457 9 -21644520.14448  19932252.547    19932255.1634   19932261.3004
      3005.612        2342.035
  -7165098.602 9  -5572438.03648  19629373.948    19629375.6084   19629381.5944
      -943.907        -735.512
 -21146862.466 9 -16453993.22348  20405375.861    20405377.8494   20405384.0494
      2632.660        2051.423
 -15161631.402 9 -11799683.32047  21676672.045    21676674.5844   21676682.7064
      4212.850        3282.740
 97  5 19 17 46 29.9950000  0  7 26  2  5  4  7  9 24               -0.004631684
    928255.629 9    748405.15546  23043863.925    23043866.3984   23043874.1294
     -1736.467       -1353.091
   -752338.321 9   -580720.75048  20858043.178    20858044.6934   20858051.5194
     -1010.558        -787.448
  -4245921.236 9  -3286339.81445  22946186.131    22946188.2404   22946196.0294
      3540.717        2759.000
 -27921955.540 9 -21714613.43148  19915134.915    19915137.6204   19915143.7644
      2991.914        2331.361
  -7136699.975 9  -5550309.24448  19634777.938    19634779.7184   19634785.6894
      -948.695        -739.243
 -21225624.139 9 -16515365.94648  20390387.925    20390390.0094   20390396.1724
      2618.752        2040.586
 -15287962.568 9 -11898123.14747  21652632.222    21652634.5394   21652642.6724
      4209.473        3280.109
 97  5 19 17 46 59.9950000  0  7 26  2  5  4  7  9 24               -0.004645711
    980399.792 9    789036.91846  23053786.809    23053789.1604   23053796.8244
     -1738.850       -1354.948
   -721866.478 9   -556976.48048  20863841.857    20863843.3324   20863850.1504
     -1019.873        -794.706
  -4352137.055 9  -3369105.31746  22925973.930    22925975.9114   22925983.6204
      3541.180        2759.361
 -28011463.203 9 -21784359.64148  19898102.193    19898104.8804   19898111.0074
      2975.942        2318.916
  -7108121.997 9  -5528040.70248  19640216.144    19640217.8924   19640223.8604
      -955.726        -744.721
 -21303931.053 9 -16576384.31048  20375486.592    20375488.6994   20375494.8364
      2602.653        2028.041
 -15414149.877 9 -11996450.87247  21628619.730    21628621.7964   21628630.0434
      4203.714        3275.621
 97  5 19 17 47 29.9950000  0  7 26  2  5  4  7  9 24               -0.004659766
   1032585.768 9    829701.26146  23063717.527    23063719.8854   23063727.4934
     -1740.264       -1356.050
   -691157.204 9   -533047.19648  20869685.435    20869687.1444   20869693.9494
     -1027.703        -800.808
  -4458398.978 9  -3451906.76546  22905752.865    22905754.8994   22905762.4534
      3542.578        2760.450
 -28100513.975 9 -21853749.83148  19881156.439    19881159.0654   19881165.2064
      2960.474        2306.863
  -7079363.470 9  -5505631.46548  19645688.684    19645690.4774   19645696.4494
      -961.727        -749.398
 -21381795.255 9 -16637057.70248  20360669.695    20360671.6354   20360677.7704
      2588.152        2016.742
 -15540197.380 9 -12094669.66447  21604633.678    21604635.7004   21604643.9344
      4199.095        3272.022
 97  5 19 17 47 59.9950000  0  7 26  2  5  4  7  9 24               -0.004673842
   1084804.206 9    870390.89046  23073654.286    23073656.7804   23073664.3584
     -1739.976       -1355.825
   -660205.166 9   -508928.74948  20875575.630    20875577.1534   20875583.9684
     -1034.734        -806.286
  -4564696.460 9  -3534735.90146  22885525.073    22885527.1944   22885534.6944
      3545.023        2762.356
 -28189094.223 9 -21922773.38148  19864300.230    19864302.7784   19864308.9354
      2945.827        2295.450
  -7050427.179 9  -5483083.71748  19651195.122    19651196.8724   19651202.8474
      -966.419        -753.054
 -21459240.033 9 -16697404.27348  20345932.459    20345934.3734   20345940.4864
      2575.870        2007.171
 -15666112.190 9 -12192785.06447  21580672.688    21580674.9084   21580683.0684
      4196.020        3269.626
 97  5 19 17 48 29.9950000  0  7 26  2  5  4  7  9 24               -0.004687949
   1137047.891 9    911100.17646  23083595.971    23083598.3874   23083606.0884
     -1741.493       -1357.008
   -629017.576 9   -484626.75048  20881510.425    20881511.9624   20881518.7924
     -1042.710        -812.501
  -4671042.728 9  -3617603.05046  22865287.956    22865290.1414   22865297.5684
      3546.201        2763.274
 -28277198.343 9 -21991425.92248  19847534.685    19847537.0964   19847543.2694
      2929.302        2282.573
  -7021318.583 9  -5460401.70448  19656734.285    19656736.0674   19656742.0244
      -972.800        -758.026
 -21536287.878 9 -16757441.54448  20331270.751    20331272.6134   20331278.7384
      2562.067        1996.416
 -15791890.306 9 -12290793.93247  21556737.425    21556740.0874   21556748.2404
      4190.200        3265.091
 97  5 19 17 48 59.9950000  0  7 26  2  5  4  7  9 24               -0.004702084
   1189342.447 9    951849.12746  23093547.688    23093549.8074   23093557.4084
     -1744.474       -1359.330
   -597604.831 9   -460149.30248  20887487.693    20887489.6274   20887496.4634
     -1051.333        -819.221
  -4777426.466 9  -3700499.40546  22845043.946    22845045.9664   22845053.1774
      3546.307        2763.356
 -28364809.216 9 -22059694.11348  19830862.841    19830865.2924   19830871.4874
      2911.637        2268.808
  -6992017.208 9  -5437569.47148  19662310.163    19662311.9434   19662317.9084
      -980.362        -763.918
 -21612928.249 9 -16817161.29948  20316686.318    20316688.4074   20316694.5824
      2547.488        1985.056
 -15917489.073 9 -12388663.05747  21532836.472    21532839.3794   21532847.5364
      4183.323        3259.732
 97  5 19 17 49 29.9950000  0  7 26  2  5  4  7  9 24               -0.004716221
   1241727.678 9    992668.70946  23103516.284    23103518.3344   23103526.0744
     -1748.352       -1362.352
   -565924.206 9   -435463.12748  20893516.609    20893518.2584   20893525.0834
     -1061.157        -826.875
  -4883814.965 9  -3783399.43546  22824798.792    22824800.7594   22824808.0904
      3545.901        2763.040
 -28451886.867 9 -22127546.80948  19814292.563    19814294.9734   19814301.1544
      2893.322        2254.537
  -6962492.474 9  -5414563.19648  19667928.506    19667930.3024   19667936.2844
      -988.405        -770.186
 -21689126.781 9 -16876536.76948  20302186.184    20302188.3084   20302194.4454
      2531.788        1972.822
 -16042883.141 9 -12486372.67547  21508974.635    21508977.7064   21508985.8414
      4175.775        3253.851
 97  5 19 17 49 59.9950000  0  7 26  2  5  4  7  9 24               -0.004730353
   1294211.208 9   1033564.89746  23113503.424    23113505.6264   23113513.4664
     -1751.045       -1364.451
   -533971.145 9   -410564.65848  20899596.613    20899598.7444   20899605.5824
     -1069.373        -833.278
  -4990216.834 9  -3866309.93646  22804551.074    22804553.0994   22804560.3924
      3547.131        2763.998
 -28538451.177 9 -22194999.49748  19797819.888    19797822.3024   19797828.4624
      2877.361        2242.099
  -6932748.730 9  -5391386.26148  19673588.465    19673590.3594   19673596.3124
      -994.965        -775.297
 -21764863.862 9 -16935552.66348  20287773.915    20287776.0094   20287782.2074
      2516.818        1961.157
 -16168065.871 9 -12583917.61247  21485153.239    21485156.1444   21485164.3074
      4169.292        3248.799
 97  5 19 17 50 29.9950000  0  7 26  2  5  4  7  9 24               -0.004744496
   1346763.652 9   1074514.78546  23123503.676    23123506.0724   23123513.9454
     -1752.412       -1365.516
   -501802.805 9   -385498.44548  20905718.110    20905720.2014   20905727.0654
     -1075.325        -837.916
  -5096669.079 9  -3949259.67446  22784293.757    22784295.7794   22784303.0994
      3549.564        2765.894
 -28624571.532 9 -22262106.24848  19781431.572    19781434.1264   19781440.2934
      2864.013        2231.698
  -6902832.120 9  -5368074.62648  19679281.495    19679283.3034   19679289.2574
      -999.576        -778.890
 -21840162.591 9 -16994226.99348  20273445.212    20273447.1894   20273453.2994
      2502.926        1950.332
 -16293073.503 9 -12681326.11447  21461365.488    21461367.9864   21461376.0584
      4164.496        3245.062
 97  5 19 17 50 59.9950000  0  7 26  2  5  4  7  9 24               -0.004758624
   1399411.333 9   1115538.89046  23133522.208    23133524.6934   23133532.4914
     -1755.535       -1367.949
   -469386.468 9   -360238.98948  20911886.745    20911888.8214   20911895.6664
     -1084.178        -844.814
  -5203124.987 9  -4032212.26846  22764035.847    22764037.8574   22764045.2734
      3549.215        2765.622
 -28710234.239 9 -22328856.38648  19765130.501    19765133.0474   19765139.2404
      2848.641        2219.720
  -6872713.696 9  -5344605.73548  19685012.819    19685014.6434   19685020.6024
     -1006.547        -784.322
 -21914974.736 9 -17052522.16348  20259208.822    20259210.9044   20259217.0074
      2486.233        1937.324
 -16417886.475 9 -12778582.93047  21437614.507    21437616.8654   21437624.8894
      4158.092        3240.072
 97  5 19 17 51 29.9950000  0  7 26  2  5  4  7  9 24               -0.004772738
   1452121.874 9   1156611.97846  23143552.781    23143555.3284   23143563.0024
     -1759.170       -1370.782
   -436733.372 9   -334795.04248  20918100.454    20918102.5184   20918109.3604
     -1093.281        -851.907
  -5309595.624 9  -4115176.32546  22743775.078    22743777.0674   22743784.4374
      3548.154        2764.795
 -28795471.588 9 -22395275.08048  19748910.128    19748912.8954   19748919.0964
      2833.264        2207.738
  -6842420.328 9  -5321000.51948  19690777.537    19690779.2834   19690785.2184
     -1013.701        -789.897
 -21989310.499 9 -17110446.12448  20245063.158    20245065.2684   20245071.3534
      2468.853        1923.782
 -16542534.801 9 -12875711.45347  21413894.752    21413897.1354   21413905.0604
      4150.837        3234.418
 97  5 19 17 51 59.9950000  0  7 26  2  5  4  7  9 24               -0.004786808
   1504932.299 9   1197762.89446  23153601.993    23153604.7624   23153612.5354
     -1761.911       -1372.918
   -403812.569 9   -309142.49447  20924365.256    20924367.1924   20924374.0424
     -1102.120        -858.795
  -5416042.048 9  -4198121.53646  22723519.010    22723521.0194   22723528.3964
      3547.504        2764.289
 -28880260.253 9 -22461344.15548  19732775.394    19732778.1134   19732784.3254
      2818.446        2196.192
  -6811917.327 9  -5297231.95848  19696581.986    19696583.8284   19696589.7844
     -1020.481        -795.180
 -22063135.891 9 -17167972.39648  20231014.527    20231016.7514   20231022.8084
      2452.332        1910.908
 -16666965.712 9 -12972670.56147  21390216.271    21390218.7584   21390226.6234
      4143.761        3228.905
 97  5 19 17 52 29.9950000  0  7 26  2  5  4  7  9 24               -0.004800867
   1557773.685 9   1238937.93146  23163657.569    23163660.2164   23163667.8934
     -1761.298       -1372.440
   -370661.417 9   -283310.45947  20930673.856    20930675.6824   20930682.5304
     -1108.559        -863.812
  -5522506.054 9  -4281080.40646  22703259.460    22703261.4684   22703268.8654
      3549.534        2765.871
 -28964623.638 9 -22527081.83548  19716721.490    19716724.3024   19716730.5124
      2804.938        2185.666
  -6781251.406 9  -5273336.44848  19702417.590    19702419.3534   19702425.2974
     -1024.612        -798.399
 -22136512.415 9 -17225148.90048  20217051.482    20217053.6454   20217059.7024
      2438.801        1900.364
 -16791218.852 9 -13069491.14647  21366571.501    21366574.1354   21366582.0044
      4138.957        3225.161
 97  5 19 17 52 59.9950000  0  7 26  2  5  4  7  9 24               -0.004814924
   1610630.599 9   1280125.07546  23173715.816    23173718.5094   23173726.3584
     -1762.018       -1373.001
   -337262.934 9   -257285.69047  20937029.401    20937031.2274   20937038.0704
     -1117.448        -870.739
  -5628982.794 9  -4364049.22846  22682997.491    22682999.5394   22683006.9964
      3549.537        2765.873
 -29048517.552 9 -22592453.69848  19700756.878    19700759.8074   19700766.0394
      2788.412        2172.789
  -6750410.887 9  -5249304.88748  19708286.261    19708288.0944   19708294.0454
     -1030.935        -803.326
 -22209432.677 9 -17281969.87448  20203175.305    20203177.3874   20203183.4514
      2423.082        1888.116
 -16915270.842 9 -13166154.98847  21342965.104    21342967.8114   21342975.6754
      4131.471        3219.328
 97  5 19 17 53 29.9950000  0  7 26  2  5  4  7  9 24               -0.004828996
   1663493.469 9   1321316.86846  23183775.559    23183778.0704   23183785.8104
     -1762.249       -1373.181
   -303622.623 9   -231072.49447  20943431.274    20943432.7784   20943439.6234
     -1125.279        -876.841
  -5735484.253 9  -4447037.28746  22662730.971    22662732.8584   22662740.4494
      3550.490        2766.616
 -29131921.218 9 -22657443.54748  19684885.745    19684888.6174   19684894.8354
      2771.643        2159.722
  -6719395.491 9  -5225137.05848  19714188.433    19714190.1654   19714196.1034
     -1036.833        -807.922
 -22281900.442 9 -17338438.25248  20189385.177    20189387.2304   20189393.3044
      2408.078        1876.424
 -17039112.207 9 -13262654.70547  21319398.904    21319401.5354   21319409.3864
      4124.447        3213.855
 97  5 19 17 53 59.9950000  0  7 26  2  5  4  7  9 24               -0.004843094
   1716361.481 9   1362512.63746  23193836.239    23193838.5954   23193846.4694
     -1763.386       -1374.067
   -269740.355 9   -204670.75947  20949878.814    20949880.3624   20949887.1854
     -1134.642        -884.137
  -5842006.201 9  -4530041.34946  22642460.376    22642462.3694   22642469.9714
      3549.778        2766.061
 -29214810.550 9 -22722032.62048  19669112.456    19669115.2914   19669121.5124
      2752.990        2145.187
  -6688196.554 9  -5200826.20448  19720125.345    19720127.1334   19720133.0704
     -1044.245        -813.697
 -22353911.572 9 -17394550.81248  20175681.902    20175683.9734   20175690.0084
      2391.466        1863.480
 -17162743.788 9 -13358990.95947  21295872.604    21295875.2144   21295882.9954
      4116.496        3207.659
 97  5 19 17 54 29.9950000  0  7 26  2  5  4  7  9 24               -0.004857207
   1769269.032 9   1403739.23646  23203904.289    23203906.6744   23203914.4854
     -1763.350       -1374.039
   -235578.931 9   -178051.50447  20956379.639    20956381.0894   20956387.8864
     -1142.145        -889.983
  -5948506.532 9  -4613028.54846  22622193.850    22622195.9744   22622203.6354
      3550.873        2766.914
 -29297126.805 9 -22786175.13748  19653448.374    19653451.0314   19653457.2504
      2735.443        2131.514
  -6656776.445 9  -5176343.01448  19726104.488    19726106.1854   19726112.1214
     -1049.895        -818.100
 -22425416.269 9 -17450268.75148  20162074.973    20162077.0404   20162083.0984
      2376.013        1851.439
 -17286144.718 9 -13455147.49247  21272390.298    21272392.7844   21272400.5464
      4110.653        3203.106
 97  5 19 17 54 59.9950000  0  7 26  2  5  4  7  9 24               -0.004871353
   1822207.563 9   1444989.97046  23213978.141    23213980.4814   23213988.3184
     -1764.358       -1374.824
   -201163.992 9   -151234.69947  20962928.211    20962930.0424   20962936.8634
     -1150.599        -896.571
  -6055015.760 9  -4696022.70246  22601925.976    22601927.9234   22601935.5694
      3551.470        2767.379
 -29378898.427 9 -22849893.27148  19637887.747    19637890.4014   19637896.6154
      2717.713        2117.698
  -6625158.388 9  -5151705.57548  19732121.114    19732122.8584   19732128.7964
     -1056.320        -823.106
 -22496422.799 9 -17505598.50648  20148562.946    20148564.9404   20148571.0214
      2359.461        1838.541
 -17409346.960 9 -13551149.18947  21248945.904    21248948.1274   21248955.8654
      4104.289        3198.147
 97  5 19 17 55 29.9950000  0  7 26  2  5  4  7  9 24               -0.004885542
   1875159.857 9   1486251.42746  23224054.559    23224057.0264   23224064.8514
     -1767.067       -1376.935
   -166517.618 9   -124237.55747  20969521.552    20969523.0784   20969529.8804
     -1160.614        -904.375
  -6161574.143 9  -4779055.13546  22581648.229    22581650.3794   22581658.1884
      3551.012        2767.022
 -29460161.378 9 -22913215.02748  19622423.999    19622426.5524   19622432.8064
      2698.548        2102.765
  -6593376.874 9  -5126940.76448  19738168.942    19738170.6894   19738176.6264
     -1063.693        -828.852
 -22566964.552 9 -17560566.10048  20135139.412    20135141.3454   20135147.3924
      2341.950        1824.896
 -17532390.124 9 -13647026.92547  21225531.602    21225533.7504   21225541.4734
      4096.940        3192.421
 97  5 19 17 55 59.9950000  0  7 26  2  5  4  7  9 24               -0.004899732
   1928166.135 9   1527554.95646  23234141.528    23234143.9024   23234151.6574
     -1768.458       -1378.019
   -131577.421 9    -97011.45947  20976170.149    20976171.9914   20976178.8154
     -1170.429        -912.023
  -6268135.004 9  -4862089.50446  22561370.269    22561372.5104   22561380.2334
      3551.283        2767.234
 -29540876.973 9 -22976110.27948  19607064.306    19607066.8624   19607073.1174
      2680.712        2088.866
  -6561395.071 9  -5102019.88848  19744254.940    19744256.6594   19744262.5614
     -1070.218        -833.936
 -22636995.065 9 -17615135.32448  20121813.029    20121814.9974   20121821.0214
      2324.944        1811.645
 -17655221.264 9 -13742739.45947  21202157.453    21202159.7274   21202167.4504
      4089.905        3186.939
 97  5 19 17 56 29.9950000  0  7 26  2  5  4  7  9 24               -0.004913918
   1981213.235 9   1568890.29246  23244235.891    23244238.4814   23244246.3634
     -1769.484       -1378.819
    -96346.179 9    -69558.57847  20982874.727    20982876.3164   20982883.1194
     -1179.676        -919.228
  -6374710.020 9  -4945134.90646  22541089.903    22541091.9424   22541099.6054
      3552.125        2767.890
 -29621064.359 9 -23038593.94448  19591805.245    19591807.6864   19591813.9254
      2663.768        2075.663
  -6529220.845 9  -5076949.07648  19750377.512    19750379.2284   19750385.1614
     -1076.266        -838.649
 -22706522.190 9 -17669312.29948  20108582.522    20108584.4124   20108590.4014
      2308.751        1799.027
 -17777840.892 9 -13838287.18047  21178823.493    21178826.0474   21178833.6814
      4083.034        3181.585
 97  5 19 17 56 59.9950000  0  7 26  2  5  4  7  9 24               -0.004928096
   2034286.190 9   1610245.76246  23254335.477    23254337.9524   23254345.8744
     -1768.503       -1378.054
    -60843.252 9    -41893.98847  20989630.342    20989632.3014   20989639.0964
     -1187.007        -924.941
  -6481299.120 9  -5028191.27546  22520806.448    22520808.6584   22520816.3664
      3553.900        2769.273
 -29700748.512 9 -23100685.47248  19576641.873    19576644.3134   19576650.5524
      2648.620        2063.860
  -6496864.548 9  -5051736.38448  19756534.638    19756536.4624   19756542.3984
     -1080.644        -842.060
 -22775569.266 9 -17723115.21248  20095443.310    20095445.2114   20095451.1644
      2294.573        1787.979
 -17900240.879 9 -13933663.75147  21155531.510    21155534.0564   21155541.6544
      4076.864        3176.777
 97  5 19 17 57 29.9950000  0  7 26  2  5  4  7  9 24               -0.004942254
   2087378.165 9   1651616.05246  23264438.672    23264441.1114   23264448.9744
     -1769.814       -1379.076
    -25070.849 9    -14019.41347  20996437.787    20996439.5794   20996446.3454
     -1196.580        -932.400
  -6587881.118 9  -5111242.12246  22500524.670    22500526.7824   22500534.4044
      3552.653        2768.301
 -29779926.898 9 -23162382.89448  19561574.839    19561577.1374   19561583.3884
      2631.136        2050.236
  -6464325.047 9  -5026380.94048  19762726.829    19762728.5404   19762734.4644
     -1087.497        -847.400
 -22844139.310 9 -17776546.40448  20082394.812    20082396.7714   20082402.7284
      2277.886        1774.976
 -18022400.602 9 -14028853.10247  21132285.352    21132287.7534   21132295.3654
      4068.123        3169.966
 97  5 19 17 57 59.9950000  0  7 26  2  5  4  7  9 24               -0.004956405
   2140464.530 9   1692981.96946  23274540.656    23274543.2224   23274551.0254
     -1768.671       -1378.185
     10934.664 9     14036.79747  21003289.335    21003291.2754   21003298.0204
     -1202.908        -937.331
  -6694465.764 9  -5194295.03146  22480242.208    22480244.4144   22480251.9164
      3553.779        2769.178
 -29858636.753 9 -23223715.23448  19546596.780    19546599.1464   19546605.3874
      2616.779        2039.049
  -6431623.517 9  -5000899.24648  19768949.696    19768951.4654   19768957.3814
     -1091.953        -850.872
 -22912251.722 9 -17829621.00648  20069433.413    20069435.4254   20069441.3874
      2263.602        1763.846
 -18144344.121 9 -14123873.96747  21109079.846    21109082.5654   21109090.2864
      4062.117        3165.286
 97  5 19 17 58 29.9950000  0  7 26  2  5  4  7  9 24               -0.004970550
   2193565.192 9   1734359.03246  23284645.346    23284647.9444   23284655.8854
     -1770.450       -1379.571
     47160.461 9     42264.65447  21010183.086    21010184.8434   21010191.5954
     -1211.416        -943.961
  -6801047.902 9  -5277345.98746  22459960.285    22459962.4004   22459969.9914
      3552.636        2768.288
 -29936869.374 9 -23284675.70348  19531709.540    19531711.9564   19531718.1924
      2599.433        2025.532
  -6398743.060 9  -4975278.10948  19775206.373    19775208.4244   19775214.3514
     -1099.332        -856.622
 -22979900.650 9 -17882334.45148  20056560.239    20056562.2834   20056568.2024
      2247.045        1750.944
 -18266070.538 9 -14218725.67347  21085915.947    21085918.7264   21085926.4674
      4053.502        3158.573
 97  5 19 17 58 59.9950000  0  7 26  2  5  4  7  9 24               -0.004984677
   2246711.667 9   1775771.78146  23294759.347    23294761.5064   23294769.5094
     -1773.080       -1381.621
     83644.387 9     70693.65947  21017125.368    21017127.5384   21017134.3084
     -1221.537        -951.847
  -6907603.304 9  -5360376.10946  22439683.468    22439685.5404   22439693.1094
      3550.632        2766.726
 -30014573.124 9 -23345224.06248  19516922.923    19516925.3864   19516931.6374
      2580.266        2010.597
  -6365641.967 9  -4949485.06648  19781505.785    19781507.3904   19781513.2784
     -1107.790        -863.213
 -23047045.751 9 -17934655.30248  20043782.848    20043784.9544   20043790.8904
      2228.714        1736.660
 -18387536.082 9 -14313374.11447  21062802.148    21062804.5944   21062812.3094
      4043.637        3150.886
 97  5 19 17 59 29.9950000  0  7 26  2  5  4  7  9 24               -0.004998776
   2299928.361 9   1817239.25246  23304886.212    23304888.3224   23304896.3154
     -1774.031       -1382.362
    120424.624 9     99353.55047  21024125.072    21024126.6234   21024133.3904
     -1229.837        -958.315
  -7014120.567 9  -5443376.50546  22419413.974    22419415.9974   22419423.5024
      3551.216        2767.181
 -30091708.441 9 -23405329.48848  19502244.207    19502246.9954   19502253.2334
      2562.677        1996.891
  -6332302.554 9  -4923506.31948  19787850.004    19787851.6774   19787857.5834
     -1114.272        -868.264
 -23113647.888 9 -17986553.06548  20031108.864    20031110.9624   20031116.9114
      2212.048        1723.674
 -18508726.244 9 -14407807.96147  21039740.469    21039742.8134   21039750.5624
      4036.216        3145.103
 97  5 19 17 59 59.9950000  0  7 26  2  5  4  7  9 24               -0.005012901
   2353157.921 9   1858716.74846  23315015.411    23315017.6794   23315025.7964
     -1774.429       -1382.672
    157438.754 9    128195.69747  21031168.982    21031170.2184   21031176.9524
     -1237.672        -964.420
  -7120673.887 9  -5526405.00846  22399137.614    22399139.5764   22399147.0254
      3552.363        2768.075
 -30168322.468 9 -23465028.71248  19487664.944    19487667.8104   19487674.0344
      2544.876        1983.020
  -6298778.417 9  -4897383.61348  19794228.861    19794231.0514   19794237.0194
     -1120.618        -873.209
 -23179761.381 9 -18038070.06748  20018527.826    20018529.9884   20018535.9254
      2195.540        1710.810
 -18629696.677 9 -14502070.59547  21016720.470    21016722.8654   21016730.5524
      4028.409        3139.020
 97  5 19 18  0 29.9940000  0  7 26  2  5  4  7  9 24               -0.005027063
   2406372.661 9   1900182.69846  23325141.983    23325144.1554   23325152.1914
     -1773.895       -1382.256
    194678.917 9    157213.98147  21038254.930    21038256.8044   21038263.5544
     -1245.746        -970.711
  -7227266.373 9  -5609464.01046  22378853.678    22378855.5534   22378863.0854
      3553.439        2768.914
 -30244404.221 9 -23524313.17948  19473187.087    19473189.9294   19473196.1724
      2526.839        1968.965
  -6265081.346 9  -4871126.16648  19800641.655    19800643.4364   19800649.3904
     -1126.410        -877.722
 -23245390.169 9 -18089209.37748  20006039.156    20006041.2564   20006047.1624
      2179.204        1698.081
 -18750432.076 9 -14596150.08047  20993745.047    20993747.6284   20993755.3354
      4020.043        3132.501
 97  5 19 18  0 59.9940000  0  7 26  2  5  4  7  9 24               -0.005041261
   2459551.503 9   1941620.66546  23335261.536    23335263.7594   23335271.9114
     -1771.322       -1380.251
    232142.266 9    186406.15047  21045384.476    21045385.8274   21045392.5794
     -1251.811        -975.437
  -7333911.446 9  -5692564.01346  22358559.709    22358561.6324   22358569.1964
      3556.160        2771.034
 -30319977.157 9 -23583201.16848  19458806.241    19458808.9184   19458815.1274
      2511.502        1957.014
  -6231252.582 9  -4844766.11348  19807079.132    19807080.8434   19807086.7954
     -1128.737        -879.535
 -23310550.056 9 -18139983.31048  19993639.642    19993641.7504   19993647.6484
      2164.891        1686.928
 -18870946.328 9 -14690057.25147  20970811.844    20970814.4624   20970822.2504
      4014.094        3127.865
 97  5 19 18  1 29.9940000  0  7 26  2  5  4  7  9 24               -0.005055460
   2512731.319 9   1983059.40646  23345381.384    23345383.7104   23345391.8494
     -1773.610       -1382.034
    269867.197 9    215802.17647  21052563.048    21052564.6744   21052571.4344
     -1262.817        -984.013
  -7440556.738 9  -5775664.17846  22338265.677    22338267.7224   22338275.2484
      3553.768        2769.170
 -30395022.371 9 -23641677.94048  19444525.825    19444528.2734   19444534.4894
      2491.828        1941.684
  -6197278.902 9  -4818293.12248  19813543.784    19813545.8124   19813551.7964
     -1135.957        -885.161
 -23375208.355 9 -18190366.39348  19981335.490    19981337.6474   19981343.5924
      2145.911        1672.138
 -18991198.105 9 -14783759.88647  20947928.609    20947931.2544   20947939.0764
      4002.899        3119.142
 97  5 19 18  1 59.9940000  0  7 26  2  5  4  7  9 24               -0.005069621
   2565942.956 9   2024522.92646  23355507.118    23355509.4804   23355517.7144
     -1773.374       -1381.850
    307892.935 9    245432.57547  21059799.006    21059800.7654   21059807.5234
     -1271.937        -991.120
  -7547149.590 9  -5858723.50546  22317981.782    22317983.7804   22317991.1464
      3552.639        2768.290
 -30469514.501 9 -23699723.74248  19430350.504    19430352.8834   19430359.0914
      2474.665        1928.310
  -6163124.783 9  -4791679.53048  19820043.145    19820045.1214   19820051.1114
     -1140.456        -888.667
 -23439323.801 9 -18240326.47848  19969134.702    19969136.8584   19969142.8644
      2128.798        1658.804
 -19111144.435 9 -14877224.51447  20925103.420    20925106.1624   20925114.0014
      3993.829        3112.075
 97  5 19 18  2 29.9940000  0  7 26  2  5  4  7  9 24               -0.005083753
   2619151.005 8   2065983.64046  23365632.308    23365634.7724   23365642.9574
     -1774.388       -1382.640
    346199.789 9    275282.03747  21067089.090    21067090.3614   21067097.0934
     -1282.351        -999.235
  -7653703.928 9  -5941752.80246  22297705.171    22297707.1344   22297714.4104
      3550.569        2766.677
 -30543491.650 9 -23757368.25248  19416273.018    19416275.4774   19416281.7074
      2456.693        1914.306
  -6128843.104 9  -4764966.55048  19826567.080    19826568.7324   19826574.7184
     -1145.562        -892.646
 -23502926.496 9 -18289887.01348  19957031.497    19957033.6914   19957039.6694
      2110.897        1644.855
 -19230824.273 9 -14970481.48147  20902329.106    20902331.7944   20902339.5964
      3984.327        3104.670
 97  5 19 18  2 59.9940000  0  7 26  2  5  4  7  9 24               -0.005097858
   2672365.999 8   2107449.78946  23375758.647    23375761.2574   23375769.5284
     -1772.632       -1381.272
    384792.410 9    305354.17047  21074432.664    21074434.3144   21074441.0584
     -1289.917       -1005.130
  -7760225.416 9  -6024756.50946  22277434.854    22277436.7274   22277444.0074
      3551.338        2767.276
 -30616955.459 9 -23814612.76548  19402293.174    19402295.7664   19402301.9564
      2441.389        1902.381
  -6094434.532 9  -4738154.69048  19833114.546    19833116.4484   19833122.4624
     -1148.034        -894.572
 -23566018.147 9 -18339049.33248  19945025.700    19945027.7654   19945033.7214
      2095.793        1633.085
 -19350253.074 9 -15063542.84147  20879602.517    20879605.2064   20879612.9814
      3978.050        3099.779
 97  5 19 18  3 29.9940000  0  7 26  2  5  4  7  9 24               -0.005111968
   2725525.322 8   2148872.52946  23385874.568    23385877.2844   23385885.6094
     -1772.466       -1381.142
    423619.732 9    335609.18747  21081821.197    21081822.8994   21081829.6664
     -1299.572       -1012.654
  -7866759.055 9  -6107769.66246  22257161.955    22257163.9894   22257171.2824
      3549.880        2766.140
 -30689940.902 9 -23871484.51948  19388404.402    19388407.1104   19388413.3064
      2423.046        1888.088
  -6059926.252 9  -4711265.12648  19839681.224    19839683.1794   19839689.2074
     -1153.665        -898.960
 -23628653.858 9 -18387856.37748  19933106.552    19933108.5664   19933114.5084
      2078.717        1619.779
 -19469483.420 9 -15156449.56547  20856913.812    20856916.3904   20856924.1384
      3969.426        3093.059
 97  5 19 18  3 59.9940000  0  7 26  2  5  4  7  9 24               -0.005126065
   2778681.700 8   2190292.98346  23395989.864    23395992.6054   23396000.9894
     -1772.033       -1380.805
    462732.854 9    366086.91247  21089263.827    21089265.9044   21089272.7034
     -1308.775       -1019.825
  -7973250.584 9  -6190750.02246  22236897.217    22236899.2964   22236906.6064
      3548.773        2765.278
 -30762362.380 9 -23927916.82348  19374622.992    19374625.7594   19374631.9704
      2404.274        1873.460
  -6025245.721 9  -4684241.35448  19846280.969    19846282.6924   19846288.6944
     -1159.303        -903.353
 -23690770.045 9 -18436258.59548  19921286.193    19921288.2294   19921294.1784
      2061.721        1606.536
 -19588450.938 9 -15249151.48347  20834274.975    20834277.5994   20834285.3404
      3960.797        3086.335
 97  5 19 18  4 29.9940000  0  7 26  2  5  4  7  9 24               -0.005140157
   2831820.619 8   2231699.82446  23406101.754    23406104.6594   23406113.1464
     -1770.709       -1379.773
    502122.243 9    396779.89947  21096759.469    21096761.4884   21096768.2894
     -1317.278       -1026.450
  -8079717.747 9  -6273711.41546  22216637.137    22216639.2094   22216646.4694
      3548.914        2765.388
 -30834217.370 9 -23983907.70848  19360949.307    19360952.2164   19360958.3934
      2385.936        1859.171
  -5990382.060 9  -4657074.87648  19852915.241    19852917.0444   19852923.0844
     -1165.208        -907.954
 -23752378.624 9 -18484265.28248  19909562.531    19909564.5334   19909570.4734
      2045.270        1593.717
 -19707155.622 9 -15341648.60447  20811686.223    20811688.8704   20811696.5644
      3952.560        3079.917
 97  5 19 18  4 59.9940000  0  7 26  2  5  4  7  9 24               -0.005154192
   2884953.231 8   2273101.76546  23416212.816    23416215.5934   23416223.9364
     -1770.523       -1379.628
    541799.172 9    427696.95047  21104309.813    21104311.7734   21104318.5644
     -1327.091       -1034.097
  -8186151.793 9  -6356647.00146  22196383.429    22196385.4674   22196392.6634
      3547.411        2764.216
 -30905483.384 9 -24039439.64848  19347387.744    19347390.7544   19347396.9254
      2365.898        1843.557
  -5955305.379 9  -4629742.40848  19859590.118    19859591.9224   19859597.9554
     -1172.432        -913.583
 -23813447.883 9 -18531851.71648  19897941.357    19897943.4104   19897949.3884
      2026.794        1579.320
 -19825571.770 9 -15433920.88947  20789152.376    20789155.0234   20789162.6884
      3942.337        3071.951
 97  5 19 18  5 29.9940000  0  7 26  2  5  4  7  9 24               -0.005168277
   2938033.447 8   2314462.89546  23426313.367    23426316.3614   23426324.9834
     -1768.859       -1378.332
    581730.169 9    458811.98347  21111908.267    21111910.3944   21111917.2454
     -1335.467       -1040.624
  -8292587.713 9  -6439584.03246  22176129.335    22176131.2854   22176138.4654
      3547.822        2764.537
 -30976193.385 9 -24094538.33248  19333932.080    19333935.1044   19333941.2684
      2347.605        1829.303
  -5920052.907 9  -4602272.96348  19866298.477    19866300.2364   19866306.2554
     -1178.233        -918.104
 -23874005.718 9 -18579039.63648  19886417.522    19886419.6334   19886425.5994
      2009.684        1565.988
 -19943718.368 9 -15525983.14047  20766669.868    20766672.4284   20766680.0644
      3933.393        3064.982
 97  5 19 18  5 59.9940000  0  7 26  2  5  4  7  9 24               -0.005182361
   2991094.382 8   2355808.95046  23436410.900    23436413.7564   23436422.1974
     -1767.798       -1377.505
    621935.468 9    490140.74747  21119560.022    21119561.2674   21119568.1114
     -1344.239       -1047.459
  -8399008.251 9  -6522509.08946  22155878.214    22155880.1044   22155887.1844
      3547.442        2764.241
 -31046335.045 9 -24149194.15448  19320584.595    19320587.5614   19320593.7264
      2329.231        1814.985
  -5884603.094 9  -4574649.74448  19873044.217    19873046.0954   19873052.1274
     -1184.366        -922.883
 -23934008.278 9 -18625794.86748  19874999.419    19875001.4974   19875007.4544
      1991.301        1551.663
 -20061567.133 9 -15617813.31247  20744243.989    20744246.5654   20744254.1134
      3923.724        3057.447
 97  5 19 18  6 29.9940000  0  7 26  2  5  4  7  9 24               -0.005196460
   3044108.155 8   2397118.29346  23446498.869    23446501.9114   23446510.4434
     -1767.231       -1377.063
    662390.030 9    521663.74747  21127258.268    21127259.4944   21127266.3514
     -1353.337       -1054.548
  -8505435.104 9  -6605439.05146  22135625.772    22135627.6454   22135634.7834
      3547.020        2763.912
 -31115947.642 9 -24203437.72248  19307337.665    19307340.7224   19307346.8654
      2310.796        1800.620
  -5848995.437 9  -4546903.52748  19879820.154    19879822.0144   19879828.0684
     -1190.074        -927.330
 -23993477.353 9 -18672134.40248  19863682.818    19863684.8794   19863690.8754
      1972.595        1537.087
 -20179145.659 9 -15709432.90947  20721869.479    20721872.0984   20721879.6464
      3914.010        3049.878
 97  5 19 18  6 59.9940000  0  7 26  2  5  4  7  9 24               -0.005210568
   3097112.376 8   2438420.17546  23456585.408    23456588.3214   23456596.9464
     -1766.348       -1376.375
    703115.181 9    553397.58847  21135007.477    21135009.2774   21135016.1374
     -1361.724       -1061.084
  -8611853.982 9  -6688362.81746  22115374.891    22115376.7874   22115383.8474
      3547.499        2764.285
 -31185002.811 9 -24257246.93148  19294196.858    19294199.9774   19294206.0974
      2292.875        1786.656
  -5813224.674 9  -4519030.21948  19886627.142    19886628.9954   19886635.0704
     -1194.734        -930.962
 -24052395.957 9 -18718044.99948  19852470.951    19852473.0664   19852479.0774
      1955.350        1523.649
 -20296441.308 9 -15800832.08247  20699548.794    20699551.4854   20699559.0444
      3905.510        3043.255
 97  5 19 18  7 29.9940000  0  7 26  2  5  4  7  9 24               -0.005224691
   3150102.317 8   2479710.92546  23466669.069    23466672.0104   23466680.7084
     -1767.560       -1377.319
    744099.119 9    585333.08847  21142805.942    21142808.2814   21142815.1814
     -1371.687       -1068.847
  -8718281.219 9  -6771293.08246  22095122.434    22095124.3224   22095131.3814
      3546.337        2763.379
 -31253516.735 9 -24310634.38748  19281159.282    19281162.2204   19281168.3034
      2273.385        1771.469
  -5777300.894 9  -4491037.67848  19893463.299    19893465.0944   19893471.1744
     -1201.378        -936.139
 -24110794.042 9 -18763549.99548  19841358.233    19841360.2904   19841366.2934
      1936.486        1508.950
 -20413478.400 9 -15892029.77847  20677277.374    20677280.0674   20677287.6234
      3895.508        3035.461
 97  5 19 18  7 59.9940000  0  7 26  2  5  4  7  9 24               -0.005238820
   3203109.779 8   2521015.34246  23476756.302    23476758.9994   23476767.7754
     -1767.110       -1376.969
    785353.445 9    617479.27947  21150657.053    21150658.7714   21150665.6584
     -1379.587       -1075.003
  -8824688.970 9  -6854208.15646  22074873.550    22074875.5954   22074882.5424
      3546.406        2763.433
 -31321461.823 9 -24363578.59548  19268229.903    19268232.6774   19268238.7614
      2255.136        1757.249
  -5741207.258 9  -4462912.77448  19900331.654    19900333.5064   19900339.5974
     -1205.898        -939.661
 -24168643.536 9 -18808627.52348  19830349.857    19830351.9084   19830357.9164
      1919.280        1495.543
 -20530234.510 9 -15983008.54347  20655059.474    20655062.1124   20655069.6224
      3886.901        3028.754
 97  5 19 18  8 29.9940000  0  7 26  2  5  4  7  9 24               -0.005252972
   3256119.331 8   2562321.36346  23486843.869    23486846.4034   23486855.1244
     -1767.948       -1377.622
    826859.678 9    649821.75647  21158555.434    21158557.1824   21158564.0924
     -1388.482       -1081.934
  -8931088.682 9  -6937116.98446  22054626.374    22054628.3554   22054635.2824
      3545.758        2762.928
 -31388836.907 9 -24416078.64748  19255409.085    19255411.6004   19255417.6664
      2235.458        1741.915
  -5704957.597 9  -4434666.30048  19907229.784    19907231.6174   19907237.7264
     -1211.881        -944.323
 -24225970.558 9 -18853297.92648  19819440.814    19819442.9494   19819448.9464
      1901.381        1481.596
 -20646714.054 9 -16073771.79247  20632894.238    20632896.7754   20632904.2544
      3877.188        3021.185
 97  5 19 18  8 59.9940000  0  7 26  2  5  4  7  9 24               -0.005267150
   3309124.615 8   2603624.07846  23496930.610    23496933.0704   23496941.7524
     -1767.628       -1377.372
    868601.985 9    682348.18847  21166498.683    21166500.5074   21166507.4514
     -1396.546       -1088.218
  -9037487.745 9  -7020025.29846  22034379.353    22034381.2514   22034388.1484
      3545.135        2762.443
 -31455649.271 9 -24468140.21648  19242695.301    19242697.6634   19242703.6674
      2216.680        1727.283
  -5668553.589 9  -4406299.55148  19914157.379    19914159.1074   19914165.2264
     -1217.103        -948.392
 -24282785.212 9 -18897569.08048  19808629.344    19808631.4974   19808637.4334
      1883.951        1468.014
 -20762917.641 9 -16164320.00347  20610781.568    20610783.9514   20610791.4434
      3867.153        3013.366
 97  5 19 18  9 29.9940000  0  7 26  2  5  4  7  9 24               -0.005281313
   3362133.966 8   2644929.97546  23507017.826    23507020.4404   23507029.2554
     -1766.551       -1376.533
    910602.534 9    715075.84947  21174490.811    21174492.9834   21174499.9384
     -1403.978       -1094.009
  -9143837.494 9  -7102895.18746  22014141.576    22014143.5584   22014150.3564
      3544.321        2761.809
 -31521884.931 9 -24519752.40648  19230091.217    19230093.4304   19230099.4394
      2198.474        1713.097
  -5631981.970 9  -4377802.20048  19921116.582    19921118.4444   19921124.6034
     -1221.490        -951.810
 -24339048.689 9 -18941410.75348  19797922.697    19797924.8364   19797930.8154
      1866.460        1454.384
 -20878785.243 9 -16254606.41347  20588732.825    20588735.0744   20588742.5824
      3856.588        3005.134
 97  5 19 18  9 59.9940000  0  7 26  2  5  4  7  9 24               -0.005295459
   3415114.646 8   2686213.47646  23517100.091    23517102.4264   23517111.2664
     -1765.606       -1375.797
    952842.855 9    747990.35147  21182529.435    21182531.1164   21182538.0564
     -1412.473       -1100.628
  -9250146.973 9  -7185733.70646  21993911.514    21993913.5154   21993920.3334
      3542.826        2760.644
 -31587559.773 9 -24570927.59548  19217593.738    19217595.9234   19217601.9024
      2179.678        1698.450
  -5595265.149 9  -4349191.70148  19928103.569    19928105.4324   19928111.5894
     -1226.634        -955.819
 -24394779.148 9 -18984837.08248  19787317.472    19787319.6774   19787325.6214
      1848.708        1440.552
 -20994314.188 9 -16344628.93547  20566748.352    20566750.6184   20566758.1144
      3844.938        2996.055
 97  5 19 18 10 29.9940000  0  7 26  2  5  4  7  9 24               -0.005309565
   3468072.601 8   2727479.32346  23527177.508    23527180.0604   23527188.9084
     -1764.919       -1375.262
    995357.510 9    781118.62547  21190619.804    21190621.4064   21190628.3734
     -1422.015       -1108.064
  -9356404.361 9  -7268531.62846  21973691.348    21973693.3044   21973700.1544
      3540.896        2759.140
 -31652667.034 9 -24621660.51648  19205204.252    19205206.4104   19205212.3524
      2160.840        1683.771
  -5558384.477 9  -4320453.52748  19935121.780    19935123.6094   19935129.7424
     -1232.088        -960.069
 -24449969.585 9 -19027842.61348  19776815.101    19776817.2944   19776823.2084
      1830.541        1426.396
 -21109487.957 9 -16434374.69747  20544831.515    20544833.7724   20544841.2404
      3833.293        2986.982
 97  5 19 18 10 59.9940000  0  7 26  2  5  4  7  9 24               -0.005323631
   3520972.052 9   2768699.53746  23537244.200    23537246.6284   23537255.5694
     -1762.685       -1373.521
   1038135.963 9    814452.43647  21198760.509    21198761.9344   21198768.9104
     -1431.061       -1115.112
  -9462630.731 9  -7351305.37846  21953477.206    21953479.0924   21953485.9024
      3539.699        2758.207
 -31717247.278 9 -24671982.77148  19192914.855    19192917.1584   19192923.1244
      2143.269        1670.080
  -5521382.348 9  -4291620.71248  19942163.014    19942164.8844   19942171.0574
     -1235.943        -963.072
 -24504645.909 9 -19070447.53548  19766410.680    19766412.7664   19766418.7124
      1813.398        1413.037
 -21224342.609 9 -16523871.79747  20522975.310    20522977.6504   20522985.1094
      3822.479        2978.555
 97  5 19 18 11 29.9940000  0  7 26  2  5  4  7  9 24               -0.005337663
   3573795.973 9   2809860.95146  23547296.287    23547298.6984   23547307.5844
     -1759.149       -1370.765
   1081187.985 9    847999.42547  21206952.809    21206954.4944   21206961.4674
     -1439.347       -1121.569
  -9568828.091 9  -7434056.52146  21933268.420    21933270.3564   21933277.2004
      3539.940        2758.395
 -31781293.054 9 -24721888.55848  19180727.028    19180729.6684   19180735.6104
      2126.064        1656.673
  -5484254.298 9  -4262689.77648  19949228.327    19949230.1264   19949236.3164
     -1239.680        -965.984
 -24558810.440 9 -19112653.66248  19756103.431    19756105.6074   19756111.5704
      1797.311        1400.502
 -21338886.399 9 -16613126.66647  20501178.199    20501180.6374   20501188.1454
      3813.619        2971.651
 97  5 19 18 11 59.9940000  0  7 26  2  5  4  7  9 24               -0.005351697
   3626518.576 9   2850943.42146  23557329.278    23557331.6414   23557340.5444
     -1756.495       -1368.697
   1124502.320 9    881750.81847  21215194.593    21215196.9574   21215204.0124
     -1448.965       -1129.064
  -9675028.570 9  -7516810.10346  21913059.022    21913061.0184   21913067.8294
      3539.388        2757.965
 -31844809.027 9 -24771381.50848  19168640.369    19168642.9834   19168648.9124
      2107.589        1642.277
  -5446999.330 9  -4233659.94448  19956317.677    19956319.4644   19956325.6824
     -1244.674        -969.876
 -24612479.229 9 -19154473.49548  19745890.595    19745892.7824   19745898.7464
      1779.760        1386.826
 -21453168.874 9 -16702177.91347  20479430.849    20479433.3914   20479440.9014
      3804.449        2964.506
 97  5 19 18 12 29.9940000  0  8 26  2  5  4  7  9 16 24            -0.005365714
   3679185.823 9   2891982.69746  23567351.689    23567353.8954   23567362.8584
     -1752.842       -1365.851
   1168123.974 9    915741.66847  21223495.882    21223497.9504   21223504.9894
     -1457.168       -1135.456
  -9781180.595 9  -7599525.93146  21892858.892    21892860.9664   21892867.7754
      3539.195        2757.814
 -31907736.490 9 -24820415.88448  19156665.619    19156668.2554   19156674.2154
      2089.317        1628.039
  -5409570.431 9  -4204494.58148  19963440.165    19963441.9504   19963448.2014
     -1248.851        -973.131
 -24665583.975 9 -19195853.81248  19735785.134    19735787.3104   19735793.2794
      1762.290        1373.213
   -161246.68818   -111259.01155  23403706.671           0.0005          0.0005
      2283.622        1779.446
 -21567157.141 9 -16790999.90547  20457739.577    20457742.1384   20457749.6434
      3796.469        2958.288
 97  5 19 18 12 59.9940000  0  8 26  2  5  4  7  9 16 24            -0.005379751
   3731763.496 9   2932952.20946  23577357.078    23577359.2054   23577368.0194
     -1751.809       -1365.046
   1212009.132 9    949937.85547  21231847.426    21231849.0954   21231856.1134
     -1467.704       -1143.665
  -9887303.379 9  -7682218.95446  21872664.395    21872666.3664   21872673.2274
      3536.211        2755.489
 -31970087.715 9 -24869001.23848  19144800.642    19144803.2224   19144809.1704
      2067.880        1611.335
  -5371987.983 9  -4175209.56748  19970591.980    19970593.6714   19970599.9454
     -1256.194        -978.852
 -24718132.302 9 -19236800.55448  19725785.454    19725787.6794   19725793.6514
      1741.447        1356.972
   -229583.831 8   -164508.69555  23390712.459           0.0005   23390722.8315
      2272.625        1770.877
 -21680873.706 9 -16879610.18348  20436100.128    20436102.5644   20436110.0774
      3784.969        2949.326
 97  5 19 18 13 29.9940000  0  8 26  2  5  4  7  9 16 24            -0.005393829
   3784253.481 9   2973853.41146  23587345.789    23587347.8704   23587356.7674
     -1749.109       -1362.942
   1256135.297 9    984321.84847  21240244.324    21240246.0574   21240253.1024
     -1475.692       -1149.890
  -9993397.587 9  -7764889.72646  21852475.268    21852477.2454   21852484.2034
      3535.147        2754.660
 -32031850.558 9 -24917128.12048  19133047.576    19133050.1674   19133056.0724
      2048.215        1596.012
  -5334241.899 9  -4145797.04548  19977774.799    19977776.5284   19977782.8294
     -1261.566        -983.038
 -24770111.484 9 -19277303.81548  19715894.175    19715896.3814   19715902.3344
      1722.353        1342.093
   -297645.954 8   -217544.06245  23377759.813    23377763.4195   23377772.1144
      2263.156        1763.498
 -21794307.600 9 -16968000.19648  20414514.537    20414516.7644   20414524.2994
      3775.644        2942.060
 97  5 19 18 13 59.9940000  0  8 26  2  5  4  7  9 16 24            -0.005407959
   3836634.027 9   3014669.30545  23597313.372    23597315.6044   23597324.5644
     -1744.620       -1359.444
   1300470.653 9   1018868.83347  21248680.377    21248682.8084   21248689.8914
     -1481.725       -1154.591
 -10099488.148 9  -7847557.66546  21832286.800    21832288.8834   21832295.7844
      3535.915        2755.258
 -32093059.074 9 -24964823.05448  19121399.789    19121402.5634   19121408.4824
      2030.642        1582.318
  -5296382.639 9  -4116296.34248  19984979.237    19984980.9104   19984987.2034
     -1264.030        -984.958
 -24821553.585 9 -19317388.57148  19706105.125    19706107.2784   19706113.2344
      1705.555        1329.004
   -365442.447 8   -270372.47755  23364858.878    23364860.1604   23364869.8935
      2254.782        1756.973
 -21907483.421 9 -17056189.11748  20392977.983    20392980.1044   20392987.6374
      3767.421        2935.653
 97  5 19 18 14 29.9940000  0  8 26  2  5  4  7  9 16 24            -0.005422107
   3888934.877 9   3055423.09745  23607265.982    23607268.1764   23607277.0844
     -1742.817       -1358.039
   1345037.927 9   1053596.53947  21257161.716    21257163.7434   21257170.7824
     -1490.260       -1161.242
 -10205556.289 9  -7930208.11646  21812102.727    21812104.7174   21812111.7004
      3534.510        2754.164
 -32153697.381 9 -25012073.67148  19109860.533    19109863.4984   19109869.3984
      2011.129        1567.114
  -5258404.696 9  -4086703.15148  19992206.126    19992207.8414   19992214.1354
     -1268.658        -988.565
 -24872449.549 9 -19357047.76448  19696419.967    19696422.1504   19696428.0644
      1686.783        1314.376
   -432931.393 9   -322961.24745  23352017.528    23352019.1525   23352027.3054
      2243.585        1748.248
 -22020349.727 9 -17144136.85648  20371500.373    20371502.3554   20371509.8824
      3756.018        2926.767
 97  5 19 18 14 59.9940000  0  8 26  2  5  4  7  9 16 24            -0.005436236
   3941187.027 9   3096138.97145  23617209.287    23617211.5294   23617220.4374
     -1740.828       -1356.489
   1389875.050 9   1088534.51947  21265694.707    21265696.0354   21265703.0694
     -1499.025       -1168.071
 -10311584.145 9  -8012827.18147  21791926.213    21791928.2524   21791935.3104
      3533.845        2753.645
 -32213753.084 9 -25058870.31248  19098432.217    19098435.2684   19098441.1664
      1992.445        1552.554
  -5220281.674 9  -4056996.91148  19999460.607    19999462.4044   19999468.6864
     -1272.988        -991.939
 -24922786.174 9 -19396271.10648  19686841.190    19686843.4084   19686849.2804
      1669.039        1300.550
   -500068.878 8   -375276.14045  23339243.016    23339243.2234   23339251.1184
      2232.064        1739.271
 -22132854.152 9 -17231802.60948  20350091.512    20350093.4424   20350100.9994
      3744.112        2917.490
